<?xml version="1.0" encoding="UTF-8" standalone="no" ?>
<gpx xmlns="http://www.topografix.com/GPX/1/1" xmlns:xsi="http://www.w3.org/2001/XMLSchema-instance" xsi:schemaLocation="http://www.topografix.com/GPX/1/1 http://www.topografix.com/GPX/1/1/gpx.xsd" version="1.1" creator="VisuGPX - https://www.visugpx.com">
  <metadata>
    <name>Traversée de la Chartreuse J3</name>
    <desc><![CDATA[Réalisée en Juin 2017.
Très longue étape du col de Bellefont aux abords de Chambéry.
Grosse étape, car nous n'avons pas trouvé un bon endroit pour bivouaquer au niveau de la pointe de la Gorgeat, là où nous avions prévu.]]></desc>
  </metadata>
  <trk>
    <name><![CDATA[2017-06-25 07:52]]></name>
    <desc><![CDATA[<p>Heure de départ: 06/24/2017 19:30<br/>Heure d'arrivée: 06/25/2017 21:28<br/>Distance: 32,8 km (25:58)<br/>Temps déplacement: 08:38<br/>Vitesse moyenne: 1,26 km/h<br/>Vitesse moyenne mouv.: 3,8 km/h<br/>Vitesse Max.: 8,17 km/h<br/>Altitude minimale: 769 m<br/>Altitude maximale: 1933 m<br/>Vitesse de montée: 265,3 m/h<br/>Vitesse de descente: -140,4 m/h<br/>Gain d'altitude: 1697 m<br/>Perte d'altitude: -2690 m<br/>Temps de montée: 06:23<br/>Temps de descente: 19:09<br/></p><hr align="center" width="480" style="height: 2px; width: 517px"/>]]></desc>
    <trkseg>
      <trkpt lat="45.3456" lon="5.87896">
        <ele>1777.97</ele>
        <time>2017-06-25T05:53:32Z</time>
      </trkpt>
      <trkpt lat="45.34573" lon="5.87915">
        <ele>1773.88</ele>
        <time>2017-06-25T05:53:54Z</time>
      </trkpt>
      <trkpt lat="45.34586" lon="5.87935">
        <ele>1766.13</ele>
        <time>2017-06-25T05:54:15Z</time>
      </trkpt>
      <trkpt lat="45.346" lon="5.87951">
        <ele>1764.95</ele>
        <time>2017-06-25T05:54:31Z</time>
      </trkpt>
      <trkpt lat="45.34618" lon="5.87959">
        <ele>1761.9</ele>
        <time>2017-06-25T05:54:47Z</time>
      </trkpt>
      <trkpt lat="45.34636" lon="5.87967">
        <ele>1762.43</ele>
        <time>2017-06-25T05:55:04Z</time>
      </trkpt>
      <trkpt lat="45.34652" lon="5.87979">
        <ele>1761.91</ele>
        <time>2017-06-25T05:55:23Z</time>
      </trkpt>
      <trkpt lat="45.34666" lon="5.87997">
        <ele>1754.92</ele>
        <time>2017-06-25T05:55:42Z</time>
      </trkpt>
      <trkpt lat="45.34684" lon="5.88001">
        <ele>1750.18</ele>
        <time>2017-06-25T05:55:59Z</time>
      </trkpt>
      <trkpt lat="45.34702" lon="5.8801">
        <ele>1749.49</ele>
        <time>2017-06-25T05:56:22Z</time>
      </trkpt>
      <trkpt lat="45.34714" lon="5.88029">
        <ele>1743.21</ele>
        <time>2017-06-25T05:56:41Z</time>
      </trkpt>
      <trkpt lat="45.3473" lon="5.88043">
        <ele>1739.86</ele>
        <time>2017-06-25T05:56:58Z</time>
      </trkpt>
      <trkpt lat="45.34748" lon="5.88045">
        <ele>1739.18</ele>
        <time>2017-06-25T05:57:15Z</time>
      </trkpt>
      <trkpt lat="45.34766" lon="5.88046">
        <ele>1734.18</ele>
        <time>2017-06-25T05:57:38Z</time>
      </trkpt>
      <trkpt lat="45.34784" lon="5.88042">
        <ele>1730.98</ele>
        <time>2017-06-25T05:57:59Z</time>
      </trkpt>
      <trkpt lat="45.34802" lon="5.88044">
        <ele>1724.96</ele>
        <time>2017-06-25T05:58:17Z</time>
      </trkpt>
      <trkpt lat="45.34821" lon="5.88043">
        <ele>1719.93</ele>
        <time>2017-06-25T05:58:36Z</time>
      </trkpt>
      <trkpt lat="45.3484" lon="5.88043">
        <ele>1716.03</ele>
        <time>2017-06-25T05:58:56Z</time>
      </trkpt>
      <trkpt lat="45.34857" lon="5.88051">
        <ele>1712.67</ele>
        <time>2017-06-25T05:59:15Z</time>
      </trkpt>
      <trkpt lat="45.34876" lon="5.88059">
        <ele>1712.03</ele>
        <time>2017-06-25T05:59:38Z</time>
      </trkpt>
      <trkpt lat="45.34892" lon="5.88073">
        <ele>1709.99</ele>
        <time>2017-06-25T06:00:00Z</time>
      </trkpt>
      <trkpt lat="45.34908" lon="5.88084">
        <ele>1708.88</ele>
        <time>2017-06-25T06:00:25Z</time>
      </trkpt>
      <trkpt lat="45.34926" lon="5.88088">
        <ele>1711.04</ele>
        <time>2017-06-25T06:00:43Z</time>
      </trkpt>
      <trkpt lat="45.34944" lon="5.88083">
        <ele>1709.17</ele>
        <time>2017-06-25T06:00:58Z</time>
      </trkpt>
      <trkpt lat="45.34962" lon="5.8808">
        <ele>1710.18</ele>
        <time>2017-06-25T06:01:20Z</time>
      </trkpt>
      <trkpt lat="45.3498" lon="5.88089">
        <ele>1709.36</ele>
        <time>2017-06-25T06:02:03Z</time>
      </trkpt>
      <trkpt lat="45.34999" lon="5.88089">
        <ele>1711.11</ele>
        <time>2017-06-25T06:02:19Z</time>
      </trkpt>
      <trkpt lat="45.35015" lon="5.88099">
        <ele>1712.58</ele>
        <time>2017-06-25T06:02:39Z</time>
      </trkpt>
      <trkpt lat="45.35026" lon="5.8812">
        <ele>1713.59</ele>
        <time>2017-06-25T06:03:02Z</time>
      </trkpt>
      <trkpt lat="45.35044" lon="5.88122">
        <ele>1714.55</ele>
        <time>2017-06-25T06:03:27Z</time>
      </trkpt>
      <trkpt lat="45.35052" lon="5.88145">
        <ele>1716.94</ele>
        <time>2017-06-25T06:03:46Z</time>
      </trkpt>
      <trkpt lat="45.35066" lon="5.88163">
        <ele>1715.57</ele>
        <time>2017-06-25T06:04:09Z</time>
      </trkpt>
      <trkpt lat="45.35084" lon="5.88156">
        <ele>1717.79</ele>
        <time>2017-06-25T06:04:39Z</time>
      </trkpt>
      <trkpt lat="45.35091" lon="5.88132">
        <ele>1715.85</ele>
        <time>2017-06-25T06:04:55Z</time>
      </trkpt>
      <trkpt lat="45.35108" lon="5.88121">
        <ele>1712.67</ele>
        <time>2017-06-25T06:05:17Z</time>
      </trkpt>
      <trkpt lat="45.35127" lon="5.88127">
        <ele>1715.49</ele>
        <time>2017-06-25T06:05:38Z</time>
      </trkpt>
      <trkpt lat="45.35142" lon="5.88142">
        <ele>1717.85</ele>
        <time>2017-06-25T06:05:58Z</time>
      </trkpt>
      <trkpt lat="45.35159" lon="5.88152">
        <ele>1719.88</ele>
        <time>2017-06-25T06:06:16Z</time>
      </trkpt>
      <trkpt lat="45.35178" lon="5.88154">
        <ele>1713.96</ele>
        <time>2017-06-25T06:06:36Z</time>
      </trkpt>
      <trkpt lat="45.35197" lon="5.88157">
        <ele>1710.89</ele>
        <time>2017-06-25T06:06:56Z</time>
      </trkpt>
      <trkpt lat="45.35215" lon="5.88159">
        <ele>1709.19</ele>
        <time>2017-06-25T06:07:14Z</time>
      </trkpt>
      <trkpt lat="45.35306" lon="5.88162">
        <ele>1686.88</ele>
        <time>2017-06-25T06:09:03Z</time>
      </trkpt>
      <trkpt lat="45.35319" lon="5.88172">
        <ele>1686.88</ele>
        <time>2017-06-25T06:09:19Z</time>
      </trkpt>
      <trkpt lat="45.35337" lon="5.88181">
        <ele>1690.84</ele>
        <time>2017-06-25T06:09:47Z</time>
      </trkpt>
      <trkpt lat="45.35353" lon="5.88191">
        <ele>1695.79</ele>
        <time>2017-06-25T06:10:04Z</time>
      </trkpt>
      <trkpt lat="45.3537" lon="5.88202">
        <ele>1688.95</ele>
        <time>2017-06-25T06:10:25Z</time>
      </trkpt>
      <trkpt lat="45.35376" lon="5.88227">
        <ele>1696.89</ele>
        <time>2017-06-25T06:10:41Z</time>
      </trkpt>
      <trkpt lat="45.35387" lon="5.88247">
        <ele>1692.21</ele>
        <time>2017-06-25T06:10:58Z</time>
      </trkpt>
      <trkpt lat="45.35404" lon="5.88258">
        <ele>1690.97</ele>
        <time>2017-06-25T06:11:15Z</time>
      </trkpt>
      <trkpt lat="45.35422" lon="5.88266">
        <ele>1688.81</ele>
        <time>2017-06-25T06:11:32Z</time>
      </trkpt>
      <trkpt lat="45.35436" lon="5.88283">
        <ele>1689.24</ele>
        <time>2017-06-25T06:11:51Z</time>
      </trkpt>
      <trkpt lat="45.35452" lon="5.88294">
        <ele>1691.3</ele>
        <time>2017-06-25T06:12:13Z</time>
      </trkpt>
      <trkpt lat="45.35469" lon="5.88305">
        <ele>1691.67</ele>
        <time>2017-06-25T06:12:34Z</time>
      </trkpt>
      <trkpt lat="45.35485" lon="5.88318">
        <ele>1687.16</ele>
        <time>2017-06-25T06:12:52Z</time>
      </trkpt>
      <trkpt lat="45.35499" lon="5.88335">
        <ele>1679.17</ele>
        <time>2017-06-25T06:13:07Z</time>
      </trkpt>
      <trkpt lat="45.35514" lon="5.88352">
        <ele>1673.16</ele>
        <time>2017-06-25T06:13:24Z</time>
      </trkpt>
      <trkpt lat="45.35529" lon="5.88366">
        <ele>1670.96</ele>
        <time>2017-06-25T06:13:40Z</time>
      </trkpt>
      <trkpt lat="45.35546" lon="5.88376">
        <ele>1671.86</ele>
        <time>2017-06-25T06:13:57Z</time>
      </trkpt>
      <trkpt lat="45.35564" lon="5.88385">
        <ele>1667.88</ele>
        <time>2017-06-25T06:15:32Z</time>
      </trkpt>
      <trkpt lat="45.35578" lon="5.88403">
        <ele>1668.84</ele>
        <time>2017-06-25T06:16:04Z</time>
      </trkpt>
      <trkpt lat="45.35595" lon="5.88413">
        <ele>1667.58</ele>
        <time>2017-06-25T06:16:22Z</time>
      </trkpt>
      <trkpt lat="45.3561" lon="5.88429">
        <ele>1665.55</ele>
        <time>2017-06-25T06:16:42Z</time>
      </trkpt>
      <trkpt lat="45.35628" lon="5.88427">
        <ele>1664.47</ele>
        <time>2017-06-25T06:16:58Z</time>
      </trkpt>
      <trkpt lat="45.35645" lon="5.88437">
        <ele>1663.28</ele>
        <time>2017-06-25T06:17:15Z</time>
      </trkpt>
      <trkpt lat="45.35663" lon="5.88442">
        <ele>1668.15</ele>
        <time>2017-06-25T06:17:34Z</time>
      </trkpt>
      <trkpt lat="45.3568" lon="5.88455">
        <ele>1668.88</ele>
        <time>2017-06-25T06:18:01Z</time>
      </trkpt>
      <trkpt lat="45.35698" lon="5.88462">
        <ele>1671.8</ele>
        <time>2017-06-25T06:18:17Z</time>
      </trkpt>
      <trkpt lat="45.35716" lon="5.88464">
        <ele>1667.19</ele>
        <time>2017-06-25T06:18:32Z</time>
      </trkpt>
      <trkpt lat="45.35734" lon="5.88471">
        <ele>1665.94</ele>
        <time>2017-06-25T06:18:48Z</time>
      </trkpt>
      <trkpt lat="45.35753" lon="5.88472">
        <ele>1666.1</ele>
        <time>2017-06-25T06:19:03Z</time>
      </trkpt>
      <trkpt lat="45.35769" lon="5.88459">
        <ele>1657.89</ele>
        <time>2017-06-25T06:19:20Z</time>
      </trkpt>
      <trkpt lat="45.35786" lon="5.88451">
        <ele>1660.6</ele>
        <time>2017-06-25T06:19:34Z</time>
      </trkpt>
      <trkpt lat="45.35804" lon="5.88443">
        <ele>1660.88</ele>
        <time>2017-06-25T06:19:49Z</time>
      </trkpt>
      <trkpt lat="45.35821" lon="5.88434">
        <ele>1653.79</ele>
        <time>2017-06-25T06:20:09Z</time>
      </trkpt>
      <trkpt lat="45.35835" lon="5.88418">
        <ele>1653.27</ele>
        <time>2017-06-25T06:20:25Z</time>
      </trkpt>
      <trkpt lat="45.35852" lon="5.88405">
        <ele>1655.23</ele>
        <time>2017-06-25T06:20:40Z</time>
      </trkpt>
      <trkpt lat="45.35869" lon="5.88396">
        <ele>1656.88</ele>
        <time>2017-06-25T06:21:15Z</time>
      </trkpt>
      <trkpt lat="45.35887" lon="5.88394">
        <ele>1652.83</ele>
        <time>2017-06-25T06:21:31Z</time>
      </trkpt>
      <trkpt lat="45.35906" lon="5.88395">
        <ele>1651.02</ele>
        <time>2017-06-25T06:21:46Z</time>
      </trkpt>
      <trkpt lat="45.35926" lon="5.88398">
        <ele>1648.96</ele>
        <time>2017-06-25T06:22:02Z</time>
      </trkpt>
      <trkpt lat="45.35944" lon="5.88396">
        <ele>1653.4</ele>
        <time>2017-06-25T06:22:16Z</time>
      </trkpt>
      <trkpt lat="45.35962" lon="5.88402">
        <ele>1650.72</ele>
        <time>2017-06-25T06:22:33Z</time>
      </trkpt>
      <trkpt lat="45.3598" lon="5.88403">
        <ele>1650.01</ele>
        <time>2017-06-25T06:22:47Z</time>
      </trkpt>
      <trkpt lat="45.35999" lon="5.88404">
        <ele>1647.87</ele>
        <time>2017-06-25T06:23:04Z</time>
      </trkpt>
      <trkpt lat="45.36017" lon="5.88401">
        <ele>1647.91</ele>
        <time>2017-06-25T06:23:18Z</time>
      </trkpt>
      <trkpt lat="45.36034" lon="5.88413">
        <ele>1639.98</ele>
        <time>2017-06-25T06:23:36Z</time>
      </trkpt>
      <trkpt lat="45.36051" lon="5.88424">
        <ele>1637.88</ele>
        <time>2017-06-25T06:23:54Z</time>
      </trkpt>
      <trkpt lat="45.36068" lon="5.88437">
        <ele>1638.21</ele>
        <time>2017-06-25T06:24:12Z</time>
      </trkpt>
      <trkpt lat="45.36051" lon="5.88423">
        <ele>1628.88</ele>
        <time>2017-06-25T06:26:07Z</time>
      </trkpt>
      <trkpt lat="45.36035" lon="5.8841">
        <ele>1627.59</ele>
        <time>2017-06-25T06:26:24Z</time>
      </trkpt>
      <trkpt lat="45.36017" lon="5.88404">
        <ele>1628.84</ele>
        <time>2017-06-25T06:26:43Z</time>
      </trkpt>
      <trkpt lat="45.35999" lon="5.88398">
        <ele>1632.9</ele>
        <time>2017-06-25T06:26:59Z</time>
      </trkpt>
      <trkpt lat="45.3598" lon="5.88394">
        <ele>1630.7</ele>
        <time>2017-06-25T06:27:17Z</time>
      </trkpt>
      <trkpt lat="45.35962" lon="5.88398">
        <ele>1633.14</ele>
        <time>2017-06-25T06:27:32Z</time>
      </trkpt>
      <trkpt lat="45.35944" lon="5.88397">
        <ele>1634.87</ele>
        <time>2017-06-25T06:27:48Z</time>
      </trkpt>
      <trkpt lat="45.35925" lon="5.88399">
        <ele>1634.78</ele>
        <time>2017-06-25T06:28:05Z</time>
      </trkpt>
      <trkpt lat="45.35907" lon="5.88392">
        <ele>1633.87</ele>
        <time>2017-06-25T06:28:22Z</time>
      </trkpt>
      <trkpt lat="45.35889" lon="5.88389">
        <ele>1636.84</ele>
        <time>2017-06-25T06:28:41Z</time>
      </trkpt>
      <trkpt lat="45.3587" lon="5.8839">
        <ele>1639.91</ele>
        <time>2017-06-25T06:28:58Z</time>
      </trkpt>
      <trkpt lat="45.35854" lon="5.88402">
        <ele>1640.76</ele>
        <time>2017-06-25T06:29:17Z</time>
      </trkpt>
      <trkpt lat="45.35838" lon="5.88416">
        <ele>1641.85</ele>
        <time>2017-06-25T06:29:32Z</time>
      </trkpt>
      <trkpt lat="45.35823" lon="5.88431">
        <ele>1646.83</ele>
        <time>2017-06-25T06:29:49Z</time>
      </trkpt>
      <trkpt lat="45.35806" lon="5.88442">
        <ele>1647.88</ele>
        <time>2017-06-25T06:30:06Z</time>
      </trkpt>
      <trkpt lat="45.35788" lon="5.88448">
        <ele>1650.09</ele>
        <time>2017-06-25T06:30:28Z</time>
      </trkpt>
      <trkpt lat="45.3577" lon="5.88452">
        <ele>1648.93</ele>
        <time>2017-06-25T06:30:45Z</time>
      </trkpt>
      <trkpt lat="45.35754" lon="5.88466">
        <ele>1648.69</ele>
        <time>2017-06-25T06:31:05Z</time>
      </trkpt>
      <trkpt lat="45.35735" lon="5.88466">
        <ele>1651.2</ele>
        <time>2017-06-25T06:31:22Z</time>
      </trkpt>
      <trkpt lat="45.35716" lon="5.88466">
        <ele>1652.9</ele>
        <time>2017-06-25T06:31:37Z</time>
      </trkpt>
      <trkpt lat="45.35698" lon="5.88461">
        <ele>1657.82</ele>
        <time>2017-06-25T06:31:57Z</time>
      </trkpt>
      <trkpt lat="45.35684" lon="5.88479">
        <ele>1654.52</ele>
        <time>2017-06-25T06:32:20Z</time>
      </trkpt>
      <trkpt lat="45.35666" lon="5.88487">
        <ele>1674.57</ele>
        <time>2017-06-25T06:32:59Z</time>
      </trkpt>
      <trkpt lat="45.35661" lon="5.88512">
        <ele>1673.79</ele>
        <time>2017-06-25T06:33:29Z</time>
      </trkpt>
      <trkpt lat="45.35657" lon="5.88537">
        <ele>1679.69</ele>
        <time>2017-06-25T06:34:13Z</time>
      </trkpt>
      <trkpt lat="45.35658" lon="5.88564">
        <ele>1682.02</ele>
        <time>2017-06-25T06:34:39Z</time>
      </trkpt>
      <trkpt lat="45.35657" lon="5.8859">
        <ele>1688.58</ele>
        <time>2017-06-25T06:34:59Z</time>
      </trkpt>
      <trkpt lat="45.35669" lon="5.88571">
        <ele>1682.52</ele>
        <time>2017-06-25T06:41:17Z</time>
      </trkpt>
      <trkpt lat="45.35656" lon="5.8859">
        <ele>1677.96</ele>
        <time>2017-06-25T06:41:56Z</time>
      </trkpt>
      <trkpt lat="45.35656" lon="5.88564">
        <ele>1679.89</ele>
        <time>2017-06-25T06:58:50Z</time>
      </trkpt>
      <trkpt lat="45.35654" lon="5.88538">
        <ele>1677.48</ele>
        <time>2017-06-25T06:59:23Z</time>
      </trkpt>
      <trkpt lat="45.35655" lon="5.88512">
        <ele>1678.65</ele>
        <time>2017-06-25T06:59:47Z</time>
      </trkpt>
      <trkpt lat="45.35669" lon="5.88493">
        <ele>1661.78</ele>
        <time>2017-06-25T07:00:33Z</time>
      </trkpt>
      <trkpt lat="45.35683" lon="5.88476">
        <ele>1658.31</ele>
        <time>2017-06-25T07:00:54Z</time>
      </trkpt>
      <trkpt lat="45.35698" lon="5.88463">
        <ele>1651.82</ele>
        <time>2017-06-25T07:01:09Z</time>
      </trkpt>
      <trkpt lat="45.35718" lon="5.88464">
        <ele>1650.99</ele>
        <time>2017-06-25T07:01:25Z</time>
      </trkpt>
      <trkpt lat="45.35736" lon="5.88462">
        <ele>1644.97</ele>
        <time>2017-06-25T07:01:41Z</time>
      </trkpt>
      <trkpt lat="45.35755" lon="5.88463">
        <ele>1644.02</ele>
        <time>2017-06-25T07:01:57Z</time>
      </trkpt>
      <trkpt lat="45.35771" lon="5.88452">
        <ele>1645.97</ele>
        <time>2017-06-25T07:02:13Z</time>
      </trkpt>
      <trkpt lat="45.35789" lon="5.88446">
        <ele>1641.06</ele>
        <time>2017-06-25T07:02:32Z</time>
      </trkpt>
      <trkpt lat="45.35806" lon="5.88438">
        <ele>1643.88</ele>
        <time>2017-06-25T07:02:49Z</time>
      </trkpt>
      <trkpt lat="45.35823" lon="5.88429">
        <ele>1638.72</ele>
        <time>2017-06-25T07:03:02Z</time>
      </trkpt>
      <trkpt lat="45.35838" lon="5.88414">
        <ele>1639.05</ele>
        <time>2017-06-25T07:03:18Z</time>
      </trkpt>
      <trkpt lat="45.35853" lon="5.88397">
        <ele>1633.3</ele>
        <time>2017-06-25T07:03:34Z</time>
      </trkpt>
      <trkpt lat="45.35871" lon="5.8839">
        <ele>1632.88</ele>
        <time>2017-06-25T07:03:52Z</time>
      </trkpt>
      <trkpt lat="45.3589" lon="5.88387">
        <ele>1629.94</ele>
        <time>2017-06-25T07:04:07Z</time>
      </trkpt>
      <trkpt lat="45.35908" lon="5.88393">
        <ele>1628.56</ele>
        <time>2017-06-25T07:04:22Z</time>
      </trkpt>
      <trkpt lat="45.35926" lon="5.88395">
        <ele>1631.09</ele>
        <time>2017-06-25T07:04:37Z</time>
      </trkpt>
      <trkpt lat="45.35944" lon="5.88395">
        <ele>1626.56</ele>
        <time>2017-06-25T07:04:51Z</time>
      </trkpt>
      <trkpt lat="45.35963" lon="5.88399">
        <ele>1630.04</ele>
        <time>2017-06-25T07:05:06Z</time>
      </trkpt>
      <trkpt lat="45.35982" lon="5.88396">
        <ele>1625.37</ele>
        <time>2017-06-25T07:05:21Z</time>
      </trkpt>
      <trkpt lat="45.36" lon="5.884">
        <ele>1625.62</ele>
        <time>2017-06-25T07:05:36Z</time>
      </trkpt>
      <trkpt lat="45.36019" lon="5.88405">
        <ele>1625.08</ele>
        <time>2017-06-25T07:05:54Z</time>
      </trkpt>
      <trkpt lat="45.36036" lon="5.88412">
        <ele>1621.88</ele>
        <time>2017-06-25T07:06:10Z</time>
      </trkpt>
      <trkpt lat="45.36053" lon="5.88424">
        <ele>1619.85</ele>
        <time>2017-06-25T07:06:25Z</time>
      </trkpt>
      <trkpt lat="45.36071" lon="5.88429">
        <ele>1618.67</ele>
        <time>2017-06-25T07:06:40Z</time>
      </trkpt>
      <trkpt lat="45.3609" lon="5.88435">
        <ele>1621.57</ele>
        <time>2017-06-25T07:06:56Z</time>
      </trkpt>
      <trkpt lat="45.36107" lon="5.88445">
        <ele>1623.51</ele>
        <time>2017-06-25T07:07:13Z</time>
      </trkpt>
      <trkpt lat="45.36122" lon="5.88461">
        <ele>1624.09</ele>
        <time>2017-06-25T07:07:27Z</time>
      </trkpt>
      <trkpt lat="45.36138" lon="5.88474">
        <ele>1626.59</ele>
        <time>2017-06-25T07:07:43Z</time>
      </trkpt>
      <trkpt lat="45.36156" lon="5.88481">
        <ele>1625.86</ele>
        <time>2017-06-25T07:07:59Z</time>
      </trkpt>
      <trkpt lat="45.36172" lon="5.88494">
        <ele>1630.07</ele>
        <time>2017-06-25T07:08:18Z</time>
      </trkpt>
      <trkpt lat="45.36189" lon="5.88502">
        <ele>1624.48</ele>
        <time>2017-06-25T07:08:34Z</time>
      </trkpt>
      <trkpt lat="45.36207" lon="5.88501">
        <ele>1621.06</ele>
        <time>2017-06-25T07:08:53Z</time>
      </trkpt>
      <trkpt lat="45.36226" lon="5.88496">
        <ele>1614.83</ele>
        <time>2017-06-25T07:09:12Z</time>
      </trkpt>
      <trkpt lat="45.36244" lon="5.88502">
        <ele>1617.15</ele>
        <time>2017-06-25T07:09:27Z</time>
      </trkpt>
      <trkpt lat="45.36263" lon="5.88505">
        <ele>1614.57</ele>
        <time>2017-06-25T07:09:43Z</time>
      </trkpt>
      <trkpt lat="45.3628" lon="5.88514">
        <ele>1617.14</ele>
        <time>2017-06-25T07:09:58Z</time>
      </trkpt>
      <trkpt lat="45.36297" lon="5.88502">
        <ele>1617.67</ele>
        <time>2017-06-25T07:10:17Z</time>
      </trkpt>
      <trkpt lat="45.36315" lon="5.88496">
        <ele>1616.97</ele>
        <time>2017-06-25T07:10:38Z</time>
      </trkpt>
      <trkpt lat="45.36333" lon="5.88494">
        <ele>1613.52</ele>
        <time>2017-06-25T07:10:56Z</time>
      </trkpt>
      <trkpt lat="45.36351" lon="5.88494">
        <ele>1608.38</ele>
        <time>2017-06-25T07:11:13Z</time>
      </trkpt>
      <trkpt lat="45.36369" lon="5.885">
        <ele>1605.95</ele>
        <time>2017-06-25T07:11:30Z</time>
      </trkpt>
      <trkpt lat="45.36388" lon="5.88506">
        <ele>1609.18</ele>
        <time>2017-06-25T07:11:49Z</time>
      </trkpt>
      <trkpt lat="45.36406" lon="5.88515">
        <ele>1607.61</ele>
        <time>2017-06-25T07:12:07Z</time>
      </trkpt>
      <trkpt lat="45.36423" lon="5.88524">
        <ele>1606.48</ele>
        <time>2017-06-25T07:12:25Z</time>
      </trkpt>
      <trkpt lat="45.36442" lon="5.88529">
        <ele>1603.88</ele>
        <time>2017-06-25T07:12:42Z</time>
      </trkpt>
      <trkpt lat="45.3646" lon="5.88535">
        <ele>1603.51</ele>
        <time>2017-06-25T07:12:59Z</time>
      </trkpt>
      <trkpt lat="45.36478" lon="5.88541">
        <ele>1599.7</ele>
        <time>2017-06-25T07:13:15Z</time>
      </trkpt>
      <trkpt lat="45.36495" lon="5.88546">
        <ele>1601.85</ele>
        <time>2017-06-25T07:13:32Z</time>
      </trkpt>
      <trkpt lat="45.36513" lon="5.88555">
        <ele>1599.17</ele>
        <time>2017-06-25T07:14:23Z</time>
      </trkpt>
      <trkpt lat="45.36531" lon="5.88552">
        <ele>1594.07</ele>
        <time>2017-06-25T07:14:37Z</time>
      </trkpt>
      <trkpt lat="45.3655" lon="5.88557">
        <ele>1591.67</ele>
        <time>2017-06-25T07:14:51Z</time>
      </trkpt>
      <trkpt lat="45.36567" lon="5.88567">
        <ele>1595.61</ele>
        <time>2017-06-25T07:15:05Z</time>
      </trkpt>
      <trkpt lat="45.36585" lon="5.88575">
        <ele>1595.9</ele>
        <time>2017-06-25T07:15:20Z</time>
      </trkpt>
      <trkpt lat="45.36603" lon="5.88584">
        <ele>1596.61</ele>
        <time>2017-06-25T07:15:34Z</time>
      </trkpt>
      <trkpt lat="45.3662" lon="5.88593">
        <ele>1597.83</ele>
        <time>2017-06-25T07:15:49Z</time>
      </trkpt>
      <trkpt lat="45.36638" lon="5.886">
        <ele>1594.82</ele>
        <time>2017-06-25T07:16:04Z</time>
      </trkpt>
      <trkpt lat="45.36655" lon="5.88614">
        <ele>1595.85</ele>
        <time>2017-06-25T07:16:18Z</time>
      </trkpt>
      <trkpt lat="45.36672" lon="5.88624">
        <ele>1597.78</ele>
        <time>2017-06-25T07:16:32Z</time>
      </trkpt>
      <trkpt lat="45.36688" lon="5.88634">
        <ele>1600.57</ele>
        <time>2017-06-25T07:16:46Z</time>
      </trkpt>
      <trkpt lat="45.36707" lon="5.88639">
        <ele>1600.06</ele>
        <time>2017-06-25T07:17:02Z</time>
      </trkpt>
      <trkpt lat="45.36722" lon="5.88652">
        <ele>1605.41</ele>
        <time>2017-06-25T07:17:18Z</time>
      </trkpt>
      <trkpt lat="45.36739" lon="5.88662">
        <ele>1600.16</ele>
        <time>2017-06-25T07:17:33Z</time>
      </trkpt>
      <trkpt lat="45.36757" lon="5.88675">
        <ele>1596.17</ele>
        <time>2017-06-25T07:17:48Z</time>
      </trkpt>
      <trkpt lat="45.36775" lon="5.8868">
        <ele>1600.96</ele>
        <time>2017-06-25T07:18:03Z</time>
      </trkpt>
      <trkpt lat="45.36787" lon="5.88699">
        <ele>1602.88</ele>
        <time>2017-06-25T07:18:26Z</time>
      </trkpt>
      <trkpt lat="45.36802" lon="5.88715">
        <ele>1592.91</ele>
        <time>2017-06-25T07:18:43Z</time>
      </trkpt>
      <trkpt lat="45.3682" lon="5.88723">
        <ele>1592.21</ele>
        <time>2017-06-25T07:18:59Z</time>
      </trkpt>
      <trkpt lat="45.36837" lon="5.88732">
        <ele>1592.39</ele>
        <time>2017-06-25T07:19:14Z</time>
      </trkpt>
      <trkpt lat="45.36856" lon="5.88736">
        <ele>1590.22</ele>
        <time>2017-06-25T07:19:28Z</time>
      </trkpt>
      <trkpt lat="45.36869" lon="5.88755">
        <ele>1589.58</ele>
        <time>2017-06-25T07:19:46Z</time>
      </trkpt>
      <trkpt lat="45.36879" lon="5.88777">
        <ele>1590.02</ele>
        <time>2017-06-25T07:20:03Z</time>
      </trkpt>
      <trkpt lat="45.3689" lon="5.88799">
        <ele>1592.8</ele>
        <time>2017-06-25T07:20:17Z</time>
      </trkpt>
      <trkpt lat="45.36907" lon="5.88809">
        <ele>1589.94</ele>
        <time>2017-06-25T07:20:32Z</time>
      </trkpt>
      <trkpt lat="45.3692" lon="5.88828">
        <ele>1587.46</ele>
        <time>2017-06-25T07:20:48Z</time>
      </trkpt>
      <trkpt lat="45.36933" lon="5.88847">
        <ele>1584.48</ele>
        <time>2017-06-25T07:21:17Z</time>
      </trkpt>
      <trkpt lat="45.36952" lon="5.88851">
        <ele>1582.16</ele>
        <time>2017-06-25T07:21:33Z</time>
      </trkpt>
      <trkpt lat="45.3697" lon="5.88858">
        <ele>1578.19</ele>
        <time>2017-06-25T07:21:49Z</time>
      </trkpt>
      <trkpt lat="45.36989" lon="5.88861">
        <ele>1575.45</ele>
        <time>2017-06-25T07:22:04Z</time>
      </trkpt>
      <trkpt lat="45.37007" lon="5.88859">
        <ele>1575.09</ele>
        <time>2017-06-25T07:22:18Z</time>
      </trkpt>
      <trkpt lat="45.37025" lon="5.88864">
        <ele>1574.69</ele>
        <time>2017-06-25T07:22:33Z</time>
      </trkpt>
      <trkpt lat="45.37043" lon="5.88867">
        <ele>1572</ele>
        <time>2017-06-25T07:22:50Z</time>
      </trkpt>
      <trkpt lat="45.37052" lon="5.88891">
        <ele>1578.15</ele>
        <time>2017-06-25T07:23:06Z</time>
      </trkpt>
      <trkpt lat="45.37067" lon="5.88905">
        <ele>1577.6</ele>
        <time>2017-06-25T07:23:22Z</time>
      </trkpt>
      <trkpt lat="45.37084" lon="5.88918">
        <ele>1574.1</ele>
        <time>2017-06-25T07:23:39Z</time>
      </trkpt>
      <trkpt lat="45.37101" lon="5.88927">
        <ele>1573.14</ele>
        <time>2017-06-25T07:23:57Z</time>
      </trkpt>
      <trkpt lat="45.3712" lon="5.88922">
        <ele>1565.49</ele>
        <time>2017-06-25T07:24:12Z</time>
      </trkpt>
      <trkpt lat="45.37135" lon="5.88937">
        <ele>1559.16</ele>
        <time>2017-06-25T07:24:30Z</time>
      </trkpt>
      <trkpt lat="45.3715" lon="5.88953">
        <ele>1567.79</ele>
        <time>2017-06-25T07:24:43Z</time>
      </trkpt>
      <trkpt lat="45.37163" lon="5.8897">
        <ele>1568.24</ele>
        <time>2017-06-25T07:24:59Z</time>
      </trkpt>
      <trkpt lat="45.3718" lon="5.88982">
        <ele>1562.5</ele>
        <time>2017-06-25T07:25:15Z</time>
      </trkpt>
      <trkpt lat="45.37196" lon="5.88998">
        <ele>1565.7</ele>
        <time>2017-06-25T07:25:30Z</time>
      </trkpt>
      <trkpt lat="45.3721" lon="5.89016">
        <ele>1566.77</ele>
        <time>2017-06-25T07:25:46Z</time>
      </trkpt>
      <trkpt lat="45.37226" lon="5.89027">
        <ele>1564.69</ele>
        <time>2017-06-25T07:26:00Z</time>
      </trkpt>
      <trkpt lat="45.37243" lon="5.89038">
        <ele>1560.76</ele>
        <time>2017-06-25T07:26:13Z</time>
      </trkpt>
      <trkpt lat="45.37256" lon="5.89058">
        <ele>1563.79</ele>
        <time>2017-06-25T07:26:28Z</time>
      </trkpt>
      <trkpt lat="45.37274" lon="5.8906">
        <ele>1557.96</ele>
        <time>2017-06-25T07:26:44Z</time>
      </trkpt>
      <trkpt lat="45.37286" lon="5.89078">
        <ele>1550.83</ele>
        <time>2017-06-25T07:27:05Z</time>
      </trkpt>
      <trkpt lat="45.37304" lon="5.89087">
        <ele>1546.78</ele>
        <time>2017-06-25T07:27:33Z</time>
      </trkpt>
      <trkpt lat="45.3732" lon="5.89099">
        <ele>1551.16</ele>
        <time>2017-06-25T07:27:51Z</time>
      </trkpt>
      <trkpt lat="45.37333" lon="5.89118">
        <ele>1548.18</ele>
        <time>2017-06-25T07:28:12Z</time>
      </trkpt>
      <trkpt lat="45.37347" lon="5.89135">
        <ele>1544.94</ele>
        <time>2017-06-25T07:28:32Z</time>
      </trkpt>
      <trkpt lat="45.37365" lon="5.89143">
        <ele>1535.57</ele>
        <time>2017-06-25T07:28:51Z</time>
      </trkpt>
      <trkpt lat="45.3738" lon="5.89157">
        <ele>1541.74</ele>
        <time>2017-06-25T07:29:10Z</time>
      </trkpt>
      <trkpt lat="45.37394" lon="5.89174">
        <ele>1544.19</ele>
        <time>2017-06-25T07:29:25Z</time>
      </trkpt>
      <trkpt lat="45.37413" lon="5.89169">
        <ele>1535.29</ele>
        <time>2017-06-25T07:29:47Z</time>
      </trkpt>
      <trkpt lat="45.3743" lon="5.89158">
        <ele>1523.88</ele>
        <time>2017-06-25T07:29:58Z</time>
      </trkpt>
      <trkpt lat="45.37448" lon="5.89161">
        <ele>1523.16</ele>
        <time>2017-06-25T07:30:08Z</time>
      </trkpt>
      <trkpt lat="45.37464" lon="5.89173">
        <ele>1526.88</ele>
        <time>2017-06-25T07:30:36Z</time>
      </trkpt>
      <trkpt lat="45.37483" lon="5.89178">
        <ele>1532.37</ele>
        <time>2017-06-25T07:30:55Z</time>
      </trkpt>
      <trkpt lat="45.37501" lon="5.89177">
        <ele>1531.72</ele>
        <time>2017-06-25T07:31:16Z</time>
      </trkpt>
      <trkpt lat="45.37518" lon="5.89187">
        <ele>1535.87</ele>
        <time>2017-06-25T07:31:33Z</time>
      </trkpt>
      <trkpt lat="45.37536" lon="5.89193">
        <ele>1525.62</ele>
        <time>2017-06-25T07:31:51Z</time>
      </trkpt>
      <trkpt lat="45.37549" lon="5.89211">
        <ele>1533.61</ele>
        <time>2017-06-25T07:32:07Z</time>
      </trkpt>
      <trkpt lat="45.37566" lon="5.89219">
        <ele>1521.63</ele>
        <time>2017-06-25T07:32:25Z</time>
      </trkpt>
      <trkpt lat="45.37582" lon="5.89233">
        <ele>1526.49</ele>
        <time>2017-06-25T07:32:46Z</time>
      </trkpt>
      <trkpt lat="45.37598" lon="5.89245">
        <ele>1521.22</ele>
        <time>2017-06-25T07:33:00Z</time>
      </trkpt>
      <trkpt lat="45.37613" lon="5.8926">
        <ele>1523.72</ele>
        <time>2017-06-25T07:33:24Z</time>
      </trkpt>
      <trkpt lat="45.37631" lon="5.89268">
        <ele>1520.16</ele>
        <time>2017-06-25T07:33:40Z</time>
      </trkpt>
      <trkpt lat="45.37649" lon="5.89279">
        <ele>1526.72</ele>
        <time>2017-06-25T07:33:53Z</time>
      </trkpt>
      <trkpt lat="45.37668" lon="5.89284">
        <ele>1524.04</ele>
        <time>2017-06-25T07:34:15Z</time>
      </trkpt>
      <trkpt lat="45.37686" lon="5.89292">
        <ele>1528.16</ele>
        <time>2017-06-25T07:34:37Z</time>
      </trkpt>
      <trkpt lat="45.37705" lon="5.89299">
        <ele>1520.73</ele>
        <time>2017-06-25T07:34:52Z</time>
      </trkpt>
      <trkpt lat="45.37723" lon="5.89294">
        <ele>1519.24</ele>
        <time>2017-06-25T07:35:02Z</time>
      </trkpt>
      <trkpt lat="45.37741" lon="5.89299">
        <ele>1507.99</ele>
        <time>2017-06-25T07:35:28Z</time>
      </trkpt>
      <trkpt lat="45.37758" lon="5.89312">
        <ele>1512.17</ele>
        <time>2017-06-25T07:35:42Z</time>
      </trkpt>
      <trkpt lat="45.37776" lon="5.89315">
        <ele>1513.82</ele>
        <time>2017-06-25T07:36:00Z</time>
      </trkpt>
      <trkpt lat="45.37791" lon="5.89329">
        <ele>1505.84</ele>
        <time>2017-06-25T07:36:16Z</time>
      </trkpt>
      <trkpt lat="45.3781" lon="5.89334">
        <ele>1508.96</ele>
        <time>2017-06-25T07:36:33Z</time>
      </trkpt>
      <trkpt lat="45.37828" lon="5.89333">
        <ele>1504.91</ele>
        <time>2017-06-25T07:36:45Z</time>
      </trkpt>
      <trkpt lat="45.37847" lon="5.89333">
        <ele>1510.73</ele>
        <time>2017-06-25T07:37:01Z</time>
      </trkpt>
      <trkpt lat="45.37864" lon="5.89343">
        <ele>1510.19</ele>
        <time>2017-06-25T07:37:17Z</time>
      </trkpt>
      <trkpt lat="45.3788" lon="5.89329">
        <ele>1496.98</ele>
        <time>2017-06-25T07:37:31Z</time>
      </trkpt>
      <trkpt lat="45.37898" lon="5.89324">
        <ele>1499.64</ele>
        <time>2017-06-25T07:37:50Z</time>
      </trkpt>
      <trkpt lat="45.37911" lon="5.89344">
        <ele>1500.93</ele>
        <time>2017-06-25T07:38:05Z</time>
      </trkpt>
      <trkpt lat="45.37929" lon="5.8935">
        <ele>1502.44</ele>
        <time>2017-06-25T07:38:20Z</time>
      </trkpt>
      <trkpt lat="45.37946" lon="5.8936">
        <ele>1504.86</ele>
        <time>2017-06-25T07:38:41Z</time>
      </trkpt>
      <trkpt lat="45.37964" lon="5.89358">
        <ele>1498.47</ele>
        <time>2017-06-25T07:38:58Z</time>
      </trkpt>
      <trkpt lat="45.37983" lon="5.89356">
        <ele>1492.58</ele>
        <time>2017-06-25T07:39:13Z</time>
      </trkpt>
      <trkpt lat="45.38001" lon="5.89355">
        <ele>1492.27</ele>
        <time>2017-06-25T07:39:26Z</time>
      </trkpt>
      <trkpt lat="45.3802" lon="5.89358">
        <ele>1494.25</ele>
        <time>2017-06-25T07:39:42Z</time>
      </trkpt>
      <trkpt lat="45.38038" lon="5.89361">
        <ele>1486.93</ele>
        <time>2017-06-25T07:39:59Z</time>
      </trkpt>
      <trkpt lat="45.3805" lon="5.89381">
        <ele>1496.47</ele>
        <time>2017-06-25T07:40:13Z</time>
      </trkpt>
      <trkpt lat="45.38068" lon="5.89392">
        <ele>1492.89</ele>
        <time>2017-06-25T07:40:29Z</time>
      </trkpt>
      <trkpt lat="45.38086" lon="5.89392">
        <ele>1489.2</ele>
        <time>2017-06-25T07:40:44Z</time>
      </trkpt>
      <trkpt lat="45.38103" lon="5.89401">
        <ele>1488.98</ele>
        <time>2017-06-25T07:40:59Z</time>
      </trkpt>
      <trkpt lat="45.38121" lon="5.89407">
        <ele>1489.79</ele>
        <time>2017-06-25T07:41:16Z</time>
      </trkpt>
      <trkpt lat="45.3814" lon="5.89417">
        <ele>1484.84</ele>
        <time>2017-06-25T07:41:29Z</time>
      </trkpt>
      <trkpt lat="45.38158" lon="5.89423">
        <ele>1489.52</ele>
        <time>2017-06-25T07:41:44Z</time>
      </trkpt>
      <trkpt lat="45.38176" lon="5.89419">
        <ele>1483.22</ele>
        <time>2017-06-25T07:41:55Z</time>
      </trkpt>
      <trkpt lat="45.38185" lon="5.89442">
        <ele>1495.49</ele>
        <time>2017-06-25T07:42:09Z</time>
      </trkpt>
      <trkpt lat="45.38202" lon="5.89454">
        <ele>1498.13</ele>
        <time>2017-06-25T07:42:30Z</time>
      </trkpt>
      <trkpt lat="45.3822" lon="5.89448">
        <ele>1490.64</ele>
        <time>2017-06-25T07:42:40Z</time>
      </trkpt>
      <trkpt lat="45.38238" lon="5.89455">
        <ele>1480.57</ele>
        <time>2017-06-25T07:42:56Z</time>
      </trkpt>
      <trkpt lat="45.38257" lon="5.89459">
        <ele>1478.97</ele>
        <time>2017-06-25T07:43:12Z</time>
      </trkpt>
      <trkpt lat="45.38276" lon="5.89463">
        <ele>1481.84</ele>
        <time>2017-06-25T07:43:30Z</time>
      </trkpt>
      <trkpt lat="45.38294" lon="5.89471">
        <ele>1480.37</ele>
        <time>2017-06-25T07:43:49Z</time>
      </trkpt>
      <trkpt lat="45.38312" lon="5.89474">
        <ele>1489.72</ele>
        <time>2017-06-25T07:44:06Z</time>
      </trkpt>
      <trkpt lat="45.3833" lon="5.89483">
        <ele>1492.11</ele>
        <time>2017-06-25T07:44:21Z</time>
      </trkpt>
      <trkpt lat="45.38343" lon="5.895">
        <ele>1491.84</ele>
        <time>2017-06-25T07:44:36Z</time>
      </trkpt>
      <trkpt lat="45.38355" lon="5.89519">
        <ele>1491.39</ele>
        <time>2017-06-25T07:44:54Z</time>
      </trkpt>
      <trkpt lat="45.38374" lon="5.89519">
        <ele>1487.03</ele>
        <time>2017-06-25T07:45:10Z</time>
      </trkpt>
      <trkpt lat="45.38392" lon="5.89529">
        <ele>1489.39</ele>
        <time>2017-06-25T07:45:30Z</time>
      </trkpt>
      <trkpt lat="45.3841" lon="5.89536">
        <ele>1489.02</ele>
        <time>2017-06-25T07:45:46Z</time>
      </trkpt>
      <trkpt lat="45.38429" lon="5.89538">
        <ele>1478.97</ele>
        <time>2017-06-25T07:46:01Z</time>
      </trkpt>
      <trkpt lat="45.38439" lon="5.8956">
        <ele>1487.68</ele>
        <time>2017-06-25T07:46:15Z</time>
      </trkpt>
      <trkpt lat="45.38457" lon="5.89566">
        <ele>1486.16</ele>
        <time>2017-06-25T07:46:34Z</time>
      </trkpt>
      <trkpt lat="45.38472" lon="5.89579">
        <ele>1485.81</ele>
        <time>2017-06-25T07:46:49Z</time>
      </trkpt>
      <trkpt lat="45.38491" lon="5.89583">
        <ele>1479.33</ele>
        <time>2017-06-25T07:47:06Z</time>
      </trkpt>
      <trkpt lat="45.38509" lon="5.89585">
        <ele>1483.08</ele>
        <time>2017-06-25T07:47:33Z</time>
      </trkpt>
      <trkpt lat="45.38523" lon="5.89603">
        <ele>1478.02</ele>
        <time>2017-06-25T07:48:00Z</time>
      </trkpt>
      <trkpt lat="45.38539" lon="5.89618">
        <ele>1477.51</ele>
        <time>2017-06-25T07:48:14Z</time>
      </trkpt>
      <trkpt lat="45.38553" lon="5.89633">
        <ele>1480.87</ele>
        <time>2017-06-25T07:48:34Z</time>
      </trkpt>
      <trkpt lat="45.38571" lon="5.89637">
        <ele>1478.46</ele>
        <time>2017-06-25T07:48:56Z</time>
      </trkpt>
      <trkpt lat="45.3859" lon="5.89638">
        <ele>1480.89</ele>
        <time>2017-06-25T07:49:24Z</time>
      </trkpt>
      <trkpt lat="45.38608" lon="5.89639">
        <ele>1476.15</ele>
        <time>2017-06-25T07:49:38Z</time>
      </trkpt>
      <trkpt lat="45.38624" lon="5.89653">
        <ele>1474.88</ele>
        <time>2017-06-25T07:49:59Z</time>
      </trkpt>
      <trkpt lat="45.38636" lon="5.89672">
        <ele>1475.57</ele>
        <time>2017-06-25T07:50:19Z</time>
      </trkpt>
      <trkpt lat="45.38654" lon="5.89676">
        <ele>1478.85</ele>
        <time>2017-06-25T07:50:48Z</time>
      </trkpt>
      <trkpt lat="45.38668" lon="5.89692">
        <ele>1480.48</ele>
        <time>2017-06-25T07:54:11Z</time>
      </trkpt>
      <trkpt lat="45.38681" lon="5.89711">
        <ele>1486.51</ele>
        <time>2017-06-25T07:54:55Z</time>
      </trkpt>
      <trkpt lat="45.38698" lon="5.89721">
        <ele>1483.9</ele>
        <time>2017-06-25T07:55:23Z</time>
      </trkpt>
      <trkpt lat="45.38715" lon="5.89731">
        <ele>1489.64</ele>
        <time>2017-06-25T07:55:41Z</time>
      </trkpt>
      <trkpt lat="45.38732" lon="5.89742">
        <ele>1489.18</ele>
        <time>2017-06-25T07:56:19Z</time>
      </trkpt>
      <trkpt lat="45.38747" lon="5.89756">
        <ele>1492.56</ele>
        <time>2017-06-25T07:56:52Z</time>
      </trkpt>
      <trkpt lat="45.38761" lon="5.89773">
        <ele>1496.85</ele>
        <time>2017-06-25T07:57:12Z</time>
      </trkpt>
      <trkpt lat="45.38776" lon="5.89787">
        <ele>1495.37</ele>
        <time>2017-06-25T07:57:33Z</time>
      </trkpt>
      <trkpt lat="45.3879" lon="5.89805">
        <ele>1494.15</ele>
        <time>2017-06-25T07:57:53Z</time>
      </trkpt>
      <trkpt lat="45.38802" lon="5.89824">
        <ele>1500.88</ele>
        <time>2017-06-25T07:58:15Z</time>
      </trkpt>
      <trkpt lat="45.38818" lon="5.89838">
        <ele>1501.23</ele>
        <time>2017-06-25T07:59:08Z</time>
      </trkpt>
      <trkpt lat="45.38834" lon="5.8985">
        <ele>1506.59</ele>
        <time>2017-06-25T07:59:32Z</time>
      </trkpt>
      <trkpt lat="45.38848" lon="5.89867">
        <ele>1506.61</ele>
        <time>2017-06-25T07:59:49Z</time>
      </trkpt>
      <trkpt lat="45.38863" lon="5.89883">
        <ele>1505.29</ele>
        <time>2017-06-25T08:00:16Z</time>
      </trkpt>
      <trkpt lat="45.38881" lon="5.89892">
        <ele>1503.78</ele>
        <time>2017-06-25T08:00:30Z</time>
      </trkpt>
      <trkpt lat="45.38898" lon="5.899">
        <ele>1500.86</ele>
        <time>2017-06-25T08:00:53Z</time>
      </trkpt>
      <trkpt lat="45.38917" lon="5.89904">
        <ele>1503.06</ele>
        <time>2017-06-25T08:01:17Z</time>
      </trkpt>
      <trkpt lat="45.38934" lon="5.89913">
        <ele>1501.3</ele>
        <time>2017-06-25T08:01:35Z</time>
      </trkpt>
      <trkpt lat="45.38948" lon="5.89928">
        <ele>1500.9</ele>
        <time>2017-06-25T08:01:56Z</time>
      </trkpt>
      <trkpt lat="45.38963" lon="5.89945">
        <ele>1509.17</ele>
        <time>2017-06-25T08:02:21Z</time>
      </trkpt>
      <trkpt lat="45.38975" lon="5.89963">
        <ele>1510.55</ele>
        <time>2017-06-25T08:02:43Z</time>
      </trkpt>
      <trkpt lat="45.38989" lon="5.8998">
        <ele>1510.82</ele>
        <time>2017-06-25T08:03:07Z</time>
      </trkpt>
      <trkpt lat="45.39008" lon="5.89977">
        <ele>1510.5</ele>
        <time>2017-06-25T08:03:31Z</time>
      </trkpt>
      <trkpt lat="45.39026" lon="5.89973">
        <ele>1510.94</ele>
        <time>2017-06-25T08:03:51Z</time>
      </trkpt>
      <trkpt lat="45.39043" lon="5.89963">
        <ele>1509.81</ele>
        <time>2017-06-25T08:04:08Z</time>
      </trkpt>
      <trkpt lat="45.39062" lon="5.89965">
        <ele>1509.8</ele>
        <time>2017-06-25T08:04:26Z</time>
      </trkpt>
      <trkpt lat="45.3908" lon="5.89956">
        <ele>1509.85</ele>
        <time>2017-06-25T08:04:44Z</time>
      </trkpt>
      <trkpt lat="45.39076" lon="5.89983">
        <ele>1510.21</ele>
        <time>2017-06-25T08:05:17Z</time>
      </trkpt>
      <trkpt lat="45.39063" lon="5.90002">
        <ele>1516.83</ele>
        <time>2017-06-25T08:05:40Z</time>
      </trkpt>
      <trkpt lat="45.39049" lon="5.90018">
        <ele>1527.15</ele>
        <time>2017-06-25T08:06:17Z</time>
      </trkpt>
      <trkpt lat="45.39067" lon="5.90021">
        <ele>1534.42</ele>
        <time>2017-06-25T08:07:04Z</time>
      </trkpt>
      <trkpt lat="45.39085" lon="5.90023">
        <ele>1537.97</ele>
        <time>2017-06-25T08:07:49Z</time>
      </trkpt>
      <trkpt lat="45.39102" lon="5.90013">
        <ele>1535.72</ele>
        <time>2017-06-25T08:08:21Z</time>
      </trkpt>
      <trkpt lat="45.3912" lon="5.90006">
        <ele>1534.98</ele>
        <time>2017-06-25T08:08:39Z</time>
      </trkpt>
      <trkpt lat="45.39137" lon="5.89996">
        <ele>1536.58</ele>
        <time>2017-06-25T08:08:58Z</time>
      </trkpt>
      <trkpt lat="45.39155" lon="5.89985">
        <ele>1537.67</ele>
        <time>2017-06-25T08:09:17Z</time>
      </trkpt>
      <trkpt lat="45.39173" lon="5.89988">
        <ele>1543.79</ele>
        <time>2017-06-25T08:09:39Z</time>
      </trkpt>
      <trkpt lat="45.39188" lon="5.89974">
        <ele>1544.89</ele>
        <time>2017-06-25T08:09:53Z</time>
      </trkpt>
      <trkpt lat="45.39206" lon="5.89969">
        <ele>1545.56</ele>
        <time>2017-06-25T08:10:10Z</time>
      </trkpt>
      <trkpt lat="45.39224" lon="5.89972">
        <ele>1550.26</ele>
        <time>2017-06-25T08:10:29Z</time>
      </trkpt>
      <trkpt lat="45.39242" lon="5.89974">
        <ele>1545.91</ele>
        <time>2017-06-25T08:10:48Z</time>
      </trkpt>
      <trkpt lat="45.39261" lon="5.89977">
        <ele>1550.55</ele>
        <time>2017-06-25T08:11:08Z</time>
      </trkpt>
      <trkpt lat="45.39278" lon="5.89988">
        <ele>1551.81</ele>
        <time>2017-06-25T08:11:27Z</time>
      </trkpt>
      <trkpt lat="45.39294" lon="5.89999">
        <ele>1553.88</ele>
        <time>2017-06-25T08:11:44Z</time>
      </trkpt>
      <trkpt lat="45.39298" lon="5.90025">
        <ele>1552.9</ele>
        <time>2017-06-25T08:12:05Z</time>
      </trkpt>
      <trkpt lat="45.39291" lon="5.90049">
        <ele>1553.55</ele>
        <time>2017-06-25T08:12:21Z</time>
      </trkpt>
      <trkpt lat="45.39289" lon="5.90075">
        <ele>1556.17</ele>
        <time>2017-06-25T08:12:38Z</time>
      </trkpt>
      <trkpt lat="45.39284" lon="5.901">
        <ele>1560.02</ele>
        <time>2017-06-25T08:12:58Z</time>
      </trkpt>
      <trkpt lat="45.3929" lon="5.90124">
        <ele>1556.88</ele>
        <time>2017-06-25T08:14:50Z</time>
      </trkpt>
      <trkpt lat="45.39298" lon="5.90148">
        <ele>1558.88</ele>
        <time>2017-06-25T08:21:21Z</time>
      </trkpt>
      <trkpt lat="45.39304" lon="5.90173">
        <ele>1559.19</ele>
        <time>2017-06-25T08:21:40Z</time>
      </trkpt>
      <trkpt lat="45.39305" lon="5.90199">
        <ele>1548.26</ele>
        <time>2017-06-25T08:22:12Z</time>
      </trkpt>
      <trkpt lat="45.3931" lon="5.90224">
        <ele>1543.18</ele>
        <time>2017-06-25T08:22:37Z</time>
      </trkpt>
      <trkpt lat="45.39315" lon="5.9025">
        <ele>1538.64</ele>
        <time>2017-06-25T08:23:07Z</time>
      </trkpt>
      <trkpt lat="45.39326" lon="5.90271">
        <ele>1543.04</ele>
        <time>2017-06-25T08:23:27Z</time>
      </trkpt>
      <trkpt lat="45.39331" lon="5.90296">
        <ele>1542.57</ele>
        <time>2017-06-25T08:23:45Z</time>
      </trkpt>
      <trkpt lat="45.39335" lon="5.90322">
        <ele>1538.25</ele>
        <time>2017-06-25T08:24:02Z</time>
      </trkpt>
      <trkpt lat="45.39345" lon="5.90344">
        <ele>1544.28</ele>
        <time>2017-06-25T08:24:16Z</time>
      </trkpt>
      <trkpt lat="45.39356" lon="5.90366">
        <ele>1551.47</ele>
        <time>2017-06-25T08:24:40Z</time>
      </trkpt>
      <trkpt lat="45.3937" lon="5.90383">
        <ele>1551.17</ele>
        <time>2017-06-25T08:25:02Z</time>
      </trkpt>
      <trkpt lat="45.39387" lon="5.90392">
        <ele>1550.19</ele>
        <time>2017-06-25T08:25:26Z</time>
      </trkpt>
      <trkpt lat="45.39405" lon="5.90403">
        <ele>1548.18</ele>
        <time>2017-06-25T08:25:51Z</time>
      </trkpt>
      <trkpt lat="45.39423" lon="5.90409">
        <ele>1548.18</ele>
        <time>2017-06-25T08:26:09Z</time>
      </trkpt>
      <trkpt lat="45.39435" lon="5.90428">
        <ele>1542.18</ele>
        <time>2017-06-25T08:26:30Z</time>
      </trkpt>
      <trkpt lat="45.39447" lon="5.90449">
        <ele>1550.89</ele>
        <time>2017-06-25T08:26:47Z</time>
      </trkpt>
      <trkpt lat="45.39452" lon="5.90474">
        <ele>1550.3</ele>
        <time>2017-06-25T08:27:08Z</time>
      </trkpt>
      <trkpt lat="45.39463" lon="5.90496">
        <ele>1551.6</ele>
        <time>2017-06-25T08:27:23Z</time>
      </trkpt>
      <trkpt lat="45.39478" lon="5.90511">
        <ele>1548.88</ele>
        <time>2017-06-25T08:27:42Z</time>
      </trkpt>
      <trkpt lat="45.39489" lon="5.90531">
        <ele>1547.84</ele>
        <time>2017-06-25T08:27:59Z</time>
      </trkpt>
      <trkpt lat="45.39495" lon="5.90558">
        <ele>1543.59</ele>
        <time>2017-06-25T08:28:16Z</time>
      </trkpt>
      <trkpt lat="45.39505" lon="5.90579">
        <ele>1552.82</ele>
        <time>2017-06-25T08:28:37Z</time>
      </trkpt>
      <trkpt lat="45.3952" lon="5.90594">
        <ele>1553.82</ele>
        <time>2017-06-25T08:28:55Z</time>
      </trkpt>
      <trkpt lat="45.39533" lon="5.90614">
        <ele>1554.18</ele>
        <time>2017-06-25T08:29:13Z</time>
      </trkpt>
      <trkpt lat="45.39546" lon="5.90633">
        <ele>1549.79</ele>
        <time>2017-06-25T08:29:30Z</time>
      </trkpt>
      <trkpt lat="45.39554" lon="5.90657">
        <ele>1553.51</ele>
        <time>2017-06-25T08:29:47Z</time>
      </trkpt>
      <trkpt lat="45.39567" lon="5.90676">
        <ele>1553.27</ele>
        <time>2017-06-25T08:30:04Z</time>
      </trkpt>
      <trkpt lat="45.39579" lon="5.90695">
        <ele>1553.94</ele>
        <time>2017-06-25T08:30:24Z</time>
      </trkpt>
      <trkpt lat="45.39594" lon="5.90713">
        <ele>1561.43</ele>
        <time>2017-06-25T08:30:39Z</time>
      </trkpt>
      <trkpt lat="45.3961" lon="5.90726">
        <ele>1567.26</ele>
        <time>2017-06-25T08:30:52Z</time>
      </trkpt>
      <trkpt lat="45.39627" lon="5.90738">
        <ele>1558.99</ele>
        <time>2017-06-25T08:31:13Z</time>
      </trkpt>
      <trkpt lat="45.39646" lon="5.90741">
        <ele>1553.18</ele>
        <time>2017-06-25T08:31:30Z</time>
      </trkpt>
      <trkpt lat="45.39664" lon="5.90739">
        <ele>1555.18</ele>
        <time>2017-06-25T08:31:47Z</time>
      </trkpt>
      <trkpt lat="45.39681" lon="5.90731">
        <ele>1552.17</ele>
        <time>2017-06-25T08:32:03Z</time>
      </trkpt>
      <trkpt lat="45.397" lon="5.90727">
        <ele>1549.78</ele>
        <time>2017-06-25T08:32:18Z</time>
      </trkpt>
      <trkpt lat="45.39719" lon="5.9073">
        <ele>1545.81</ele>
        <time>2017-06-25T08:32:37Z</time>
      </trkpt>
      <trkpt lat="45.39736" lon="5.90734">
        <ele>1537.95</ele>
        <time>2017-06-25T08:32:56Z</time>
      </trkpt>
      <trkpt lat="45.39755" lon="5.90734">
        <ele>1540.58</ele>
        <time>2017-06-25T08:33:15Z</time>
      </trkpt>
      <trkpt lat="45.39774" lon="5.90736">
        <ele>1539.18</ele>
        <time>2017-06-25T08:33:28Z</time>
      </trkpt>
      <trkpt lat="45.39792" lon="5.90738">
        <ele>1536.11</ele>
        <time>2017-06-25T08:33:44Z</time>
      </trkpt>
      <trkpt lat="45.3981" lon="5.90742">
        <ele>1534.14</ele>
        <time>2017-06-25T08:33:56Z</time>
      </trkpt>
      <trkpt lat="45.39828" lon="5.90732">
        <ele>1533.64</ele>
        <time>2017-06-25T08:34:15Z</time>
      </trkpt>
      <trkpt lat="45.39846" lon="5.90732">
        <ele>1529.32</ele>
        <time>2017-06-25T08:34:32Z</time>
      </trkpt>
      <trkpt lat="45.39861" lon="5.90746">
        <ele>1524.88</ele>
        <time>2017-06-25T08:34:47Z</time>
      </trkpt>
      <trkpt lat="45.3988" lon="5.90746">
        <ele>1528.24</ele>
        <time>2017-06-25T08:35:08Z</time>
      </trkpt>
      <trkpt lat="45.39899" lon="5.90742">
        <ele>1528.84</ele>
        <time>2017-06-25T08:35:23Z</time>
      </trkpt>
      <trkpt lat="45.39917" lon="5.9075">
        <ele>1530.94</ele>
        <time>2017-06-25T08:35:44Z</time>
      </trkpt>
      <trkpt lat="45.39936" lon="5.90753">
        <ele>1527.67</ele>
        <time>2017-06-25T08:35:58Z</time>
      </trkpt>
      <trkpt lat="45.39954" lon="5.90754">
        <ele>1528.77</ele>
        <time>2017-06-25T08:36:16Z</time>
      </trkpt>
      <trkpt lat="45.39972" lon="5.90754">
        <ele>1525.91</ele>
        <time>2017-06-25T08:36:37Z</time>
      </trkpt>
      <trkpt lat="45.3999" lon="5.90758">
        <ele>1522.65</ele>
        <time>2017-06-25T08:36:52Z</time>
      </trkpt>
      <trkpt lat="45.40008" lon="5.90766">
        <ele>1518.59</ele>
        <time>2017-06-25T08:37:20Z</time>
      </trkpt>
      <trkpt lat="45.40026" lon="5.90772">
        <ele>1518.43</ele>
        <time>2017-06-25T08:37:37Z</time>
      </trkpt>
      <trkpt lat="45.40045" lon="5.90775">
        <ele>1515.82</ele>
        <time>2017-06-25T08:37:53Z</time>
      </trkpt>
      <trkpt lat="45.40063" lon="5.90779">
        <ele>1515.86</ele>
        <time>2017-06-25T08:38:08Z</time>
      </trkpt>
      <trkpt lat="45.40081" lon="5.90784">
        <ele>1503.61</ele>
        <time>2017-06-25T08:38:25Z</time>
      </trkpt>
      <trkpt lat="45.40094" lon="5.90804">
        <ele>1500.68</ele>
        <time>2017-06-25T08:38:46Z</time>
      </trkpt>
      <trkpt lat="45.4011" lon="5.90819">
        <ele>1502.75</ele>
        <time>2017-06-25T08:39:00Z</time>
      </trkpt>
      <trkpt lat="45.40127" lon="5.90829">
        <ele>1495.97</ele>
        <time>2017-06-25T08:39:15Z</time>
      </trkpt>
      <trkpt lat="45.40146" lon="5.90834">
        <ele>1501.59</ele>
        <time>2017-06-25T08:39:28Z</time>
      </trkpt>
      <trkpt lat="45.40163" lon="5.90845">
        <ele>1498.39</ele>
        <time>2017-06-25T08:39:45Z</time>
      </trkpt>
      <trkpt lat="45.40181" lon="5.9085">
        <ele>1488.23</ele>
        <time>2017-06-25T08:40:01Z</time>
      </trkpt>
      <trkpt lat="45.40198" lon="5.90861">
        <ele>1487.58</ele>
        <time>2017-06-25T08:40:13Z</time>
      </trkpt>
      <trkpt lat="45.40215" lon="5.90872">
        <ele>1489.39</ele>
        <time>2017-06-25T08:40:32Z</time>
      </trkpt>
      <trkpt lat="45.40233" lon="5.90883">
        <ele>1488.88</ele>
        <time>2017-06-25T08:40:43Z</time>
      </trkpt>
      <trkpt lat="45.40249" lon="5.90896">
        <ele>1493.34</ele>
        <time>2017-06-25T08:40:59Z</time>
      </trkpt>
      <trkpt lat="45.40264" lon="5.90909">
        <ele>1488.5</ele>
        <time>2017-06-25T08:41:14Z</time>
      </trkpt>
      <trkpt lat="45.4028" lon="5.90924">
        <ele>1491.27</ele>
        <time>2017-06-25T08:41:32Z</time>
      </trkpt>
      <trkpt lat="45.40296" lon="5.90937">
        <ele>1495.39</ele>
        <time>2017-06-25T08:41:45Z</time>
      </trkpt>
      <trkpt lat="45.40313" lon="5.90949">
        <ele>1490.88</ele>
        <time>2017-06-25T08:42:02Z</time>
      </trkpt>
      <trkpt lat="45.40329" lon="5.9096">
        <ele>1493.87</ele>
        <time>2017-06-25T08:42:16Z</time>
      </trkpt>
      <trkpt lat="45.40347" lon="5.90968">
        <ele>1499.97</ele>
        <time>2017-06-25T08:42:28Z</time>
      </trkpt>
      <trkpt lat="45.40363" lon="5.90983">
        <ele>1492.85</ele>
        <time>2017-06-25T08:42:48Z</time>
      </trkpt>
      <trkpt lat="45.40379" lon="5.90996">
        <ele>1484.97</ele>
        <time>2017-06-25T08:43:06Z</time>
      </trkpt>
      <trkpt lat="45.40395" lon="5.91009">
        <ele>1488.48</ele>
        <time>2017-06-25T08:43:29Z</time>
      </trkpt>
      <trkpt lat="45.40414" lon="5.91012">
        <ele>1490.85</ele>
        <time>2017-06-25T08:43:48Z</time>
      </trkpt>
      <trkpt lat="45.40432" lon="5.91016">
        <ele>1485.74</ele>
        <time>2017-06-25T08:44:06Z</time>
      </trkpt>
      <trkpt lat="45.40448" lon="5.91004">
        <ele>1480.91</ele>
        <time>2017-06-25T08:44:35Z</time>
      </trkpt>
      <trkpt lat="45.40465" lon="5.90993">
        <ele>1469.18</ele>
        <time>2017-06-25T08:44:55Z</time>
      </trkpt>
      <trkpt lat="45.40481" lon="5.90982">
        <ele>1458.85</ele>
        <time>2017-06-25T08:45:24Z</time>
      </trkpt>
      <trkpt lat="45.40494" lon="5.90961">
        <ele>1450.21</ele>
        <time>2017-06-25T08:45:42Z</time>
      </trkpt>
      <trkpt lat="45.40508" lon="5.90945">
        <ele>1443.8</ele>
        <time>2017-06-25T08:46:09Z</time>
      </trkpt>
      <trkpt lat="45.40524" lon="5.9096">
        <ele>1449.03</ele>
        <time>2017-06-25T08:48:37Z</time>
      </trkpt>
      <trkpt lat="45.40537" lon="5.90978">
        <ele>1451.86</ele>
        <time>2017-06-25T08:48:54Z</time>
      </trkpt>
      <trkpt lat="45.40551" lon="5.90993">
        <ele>1457.19</ele>
        <time>2017-06-25T08:49:13Z</time>
      </trkpt>
      <trkpt lat="45.40567" lon="5.91009">
        <ele>1453.8</ele>
        <time>2017-06-25T08:49:32Z</time>
      </trkpt>
      <trkpt lat="45.40583" lon="5.9102">
        <ele>1452.75</ele>
        <time>2017-06-25T08:49:43Z</time>
      </trkpt>
      <trkpt lat="45.40599" lon="5.91035">
        <ele>1458.72</ele>
        <time>2017-06-25T08:50:08Z</time>
      </trkpt>
      <trkpt lat="45.40613" lon="5.91053">
        <ele>1460.91</ele>
        <time>2017-06-25T08:50:34Z</time>
      </trkpt>
      <trkpt lat="45.40623" lon="5.91075">
        <ele>1463.18</ele>
        <time>2017-06-25T08:50:52Z</time>
      </trkpt>
      <trkpt lat="45.4064" lon="5.91086">
        <ele>1466.17</ele>
        <time>2017-06-25T08:51:13Z</time>
      </trkpt>
      <trkpt lat="45.40651" lon="5.91106">
        <ele>1481.48</ele>
        <time>2017-06-25T08:52:07Z</time>
      </trkpt>
      <trkpt lat="45.40658" lon="5.91131">
        <ele>1483.35</ele>
        <time>2017-06-25T08:52:33Z</time>
      </trkpt>
      <trkpt lat="45.40668" lon="5.91152">
        <ele>1487.51</ele>
        <time>2017-06-25T08:52:48Z</time>
      </trkpt>
      <trkpt lat="45.4068" lon="5.91173">
        <ele>1492.79</ele>
        <time>2017-06-25T08:53:05Z</time>
      </trkpt>
      <trkpt lat="45.40694" lon="5.91191">
        <ele>1501.46</ele>
        <time>2017-06-25T08:53:29Z</time>
      </trkpt>
      <trkpt lat="45.40708" lon="5.91208">
        <ele>1502.07</ele>
        <time>2017-06-25T08:53:47Z</time>
      </trkpt>
      <trkpt lat="45.40717" lon="5.91231">
        <ele>1505.05</ele>
        <time>2017-06-25T08:54:06Z</time>
      </trkpt>
      <trkpt lat="45.40723" lon="5.91255">
        <ele>1504.88</ele>
        <time>2017-06-25T08:54:35Z</time>
      </trkpt>
      <trkpt lat="45.4074" lon="5.91265">
        <ele>1515.13</ele>
        <time>2017-06-25T08:55:18Z</time>
      </trkpt>
      <trkpt lat="45.40751" lon="5.91288">
        <ele>1527.09</ele>
        <time>2017-06-25T08:55:43Z</time>
      </trkpt>
      <trkpt lat="45.4077" lon="5.91294">
        <ele>1528.58</ele>
        <time>2017-06-25T08:56:26Z</time>
      </trkpt>
      <trkpt lat="45.40789" lon="5.91295">
        <ele>1521.07</ele>
        <time>2017-06-25T08:56:35Z</time>
      </trkpt>
      <trkpt lat="45.40809" lon="5.91301">
        <ele>1518.89</ele>
        <time>2017-06-25T08:57:39Z</time>
      </trkpt>
      <trkpt lat="45.40823" lon="5.91318">
        <ele>1516.53</ele>
        <time>2017-06-25T08:57:51Z</time>
      </trkpt>
      <trkpt lat="45.40837" lon="5.91302">
        <ele>1513.94</ele>
        <time>2017-06-25T08:58:12Z</time>
      </trkpt>
      <trkpt lat="45.40846" lon="5.91278">
        <ele>1516.45</ele>
        <time>2017-06-25T08:58:31Z</time>
      </trkpt>
      <trkpt lat="45.40844" lon="5.91252">
        <ele>1521.26</ele>
        <time>2017-06-25T08:58:47Z</time>
      </trkpt>
      <trkpt lat="45.40844" lon="5.91225">
        <ele>1533.39</ele>
        <time>2017-06-25T08:59:34Z</time>
      </trkpt>
      <trkpt lat="45.40836" lon="5.91201">
        <ele>1535.03</ele>
        <time>2017-06-25T08:59:53Z</time>
      </trkpt>
      <trkpt lat="45.40841" lon="5.91176">
        <ele>1538.27</ele>
        <time>2017-06-25T09:00:19Z</time>
      </trkpt>
      <trkpt lat="45.40859" lon="5.91173">
        <ele>1541.99</ele>
        <time>2017-06-25T09:00:58Z</time>
      </trkpt>
      <trkpt lat="45.40877" lon="5.91178">
        <ele>1538.83</ele>
        <time>2017-06-25T09:02:09Z</time>
      </trkpt>
      <trkpt lat="45.40895" lon="5.91185">
        <ele>1533.88</ele>
        <time>2017-06-25T09:03:24Z</time>
      </trkpt>
      <trkpt lat="45.40912" lon="5.91193">
        <ele>1531.97</ele>
        <time>2017-06-25T09:03:50Z</time>
      </trkpt>
      <trkpt lat="45.40928" lon="5.91205">
        <ele>1522.48</ele>
        <time>2017-06-25T09:04:20Z</time>
      </trkpt>
      <trkpt lat="45.40946" lon="5.91216">
        <ele>1512.66</ele>
        <time>2017-06-25T09:04:33Z</time>
      </trkpt>
      <trkpt lat="45.40958" lon="5.91235">
        <ele>1506.08</ele>
        <time>2017-06-25T09:04:58Z</time>
      </trkpt>
      <trkpt lat="45.40974" lon="5.9125">
        <ele>1507.57</ele>
        <time>2017-06-25T09:05:30Z</time>
      </trkpt>
      <trkpt lat="45.40975" lon="5.91224">
        <ele>1599.1</ele>
        <time>2017-06-25T09:06:27Z</time>
      </trkpt>
      <trkpt lat="45.4099" lon="5.91208">
        <ele>1614.35</ele>
        <time>2017-06-25T09:07:45Z</time>
      </trkpt>
      <trkpt lat="45.41003" lon="5.9119">
        <ele>1629.75</ele>
        <time>2017-06-25T09:08:37Z</time>
      </trkpt>
      <trkpt lat="45.41017" lon="5.91174">
        <ele>1637.61</ele>
        <time>2017-06-25T09:09:08Z</time>
      </trkpt>
      <trkpt lat="45.41031" lon="5.91192">
        <ele>1648.94</ele>
        <time>2017-06-25T09:13:55Z</time>
      </trkpt>
      <trkpt lat="45.41045" lon="5.91211">
        <ele>1647.55</ele>
        <time>2017-06-25T09:14:15Z</time>
      </trkpt>
      <trkpt lat="45.41057" lon="5.91229">
        <ele>1650.87</ele>
        <time>2017-06-25T09:14:32Z</time>
      </trkpt>
      <trkpt lat="45.41065" lon="5.91253">
        <ele>1650.49</ele>
        <time>2017-06-25T09:14:49Z</time>
      </trkpt>
      <trkpt lat="45.41076" lon="5.91274">
        <ele>1651.25</ele>
        <time>2017-06-25T09:15:06Z</time>
      </trkpt>
      <trkpt lat="45.41094" lon="5.91281">
        <ele>1653.89</ele>
        <time>2017-06-25T09:15:28Z</time>
      </trkpt>
      <trkpt lat="45.41113" lon="5.91281">
        <ele>1654.88</ele>
        <time>2017-06-25T09:15:45Z</time>
      </trkpt>
      <trkpt lat="45.4113" lon="5.91291">
        <ele>1655.88</ele>
        <time>2017-06-25T09:16:03Z</time>
      </trkpt>
      <trkpt lat="45.41147" lon="5.91301">
        <ele>1653.2</ele>
        <time>2017-06-25T09:16:21Z</time>
      </trkpt>
      <trkpt lat="45.41157" lon="5.91323">
        <ele>1650.26</ele>
        <time>2017-06-25T09:16:37Z</time>
      </trkpt>
      <trkpt lat="45.41165" lon="5.91348">
        <ele>1649.91</ele>
        <time>2017-06-25T09:16:54Z</time>
      </trkpt>
      <trkpt lat="45.41182" lon="5.9136">
        <ele>1650.99</ele>
        <time>2017-06-25T09:17:11Z</time>
      </trkpt>
      <trkpt lat="45.41199" lon="5.91348">
        <ele>1655.13</ele>
        <time>2017-06-25T09:17:48Z</time>
      </trkpt>
      <trkpt lat="45.41217" lon="5.91347">
        <ele>1655.82</ele>
        <time>2017-06-25T09:18:11Z</time>
      </trkpt>
      <trkpt lat="45.41235" lon="5.91352">
        <ele>1657.88</ele>
        <time>2017-06-25T09:18:58Z</time>
      </trkpt>
      <trkpt lat="45.41249" lon="5.91368">
        <ele>1659.97</ele>
        <time>2017-06-25T09:19:22Z</time>
      </trkpt>
      <trkpt lat="45.41262" lon="5.91386">
        <ele>1661.85</ele>
        <time>2017-06-25T09:20:06Z</time>
      </trkpt>
      <trkpt lat="45.4128" lon="5.91391">
        <ele>1660.88</ele>
        <time>2017-06-25T09:20:37Z</time>
      </trkpt>
      <trkpt lat="45.41299" lon="5.91384">
        <ele>1660.9</ele>
        <time>2017-06-25T09:21:56Z</time>
      </trkpt>
      <trkpt lat="45.41316" lon="5.91375">
        <ele>1661.88</ele>
        <time>2017-06-25T09:22:11Z</time>
      </trkpt>
      <trkpt lat="45.41333" lon="5.91363">
        <ele>1661.3</ele>
        <time>2017-06-25T09:22:31Z</time>
      </trkpt>
      <trkpt lat="45.41349" lon="5.91348">
        <ele>1661.95</ele>
        <time>2017-06-25T09:25:00Z</time>
      </trkpt>
      <trkpt lat="45.41365" lon="5.91359">
        <ele>1656.96</ele>
        <time>2017-06-25T09:25:23Z</time>
      </trkpt>
      <trkpt lat="45.41381" lon="5.91374">
        <ele>1656.99</ele>
        <time>2017-06-25T09:25:49Z</time>
      </trkpt>
      <trkpt lat="45.41396" lon="5.91387">
        <ele>1655.24</ele>
        <time>2017-06-25T09:26:11Z</time>
      </trkpt>
      <trkpt lat="45.41402" lon="5.91412">
        <ele>1656.27</ele>
        <time>2017-06-25T09:26:32Z</time>
      </trkpt>
      <trkpt lat="45.41409" lon="5.91436">
        <ele>1660.81</ele>
        <time>2017-06-25T09:26:57Z</time>
      </trkpt>
      <trkpt lat="45.4142" lon="5.91456">
        <ele>1662.86</ele>
        <time>2017-06-25T09:27:23Z</time>
      </trkpt>
      <trkpt lat="45.41436" lon="5.9147">
        <ele>1665.67</ele>
        <time>2017-06-25T09:27:48Z</time>
      </trkpt>
      <trkpt lat="45.4145" lon="5.91486">
        <ele>1661.88</ele>
        <time>2017-06-25T09:28:08Z</time>
      </trkpt>
      <trkpt lat="45.41465" lon="5.91501">
        <ele>1666.88</ele>
        <time>2017-06-25T09:28:48Z</time>
      </trkpt>
      <trkpt lat="45.41483" lon="5.91495">
        <ele>1663.87</ele>
        <time>2017-06-25T09:29:06Z</time>
      </trkpt>
      <trkpt lat="45.41493" lon="5.91473">
        <ele>1662.88</ele>
        <time>2017-06-25T09:29:25Z</time>
      </trkpt>
      <trkpt lat="45.41511" lon="5.91463">
        <ele>1668.85</ele>
        <time>2017-06-25T09:29:44Z</time>
      </trkpt>
      <trkpt lat="45.41523" lon="5.91442">
        <ele>1666.79</ele>
        <time>2017-06-25T09:30:06Z</time>
      </trkpt>
      <trkpt lat="45.4154" lon="5.91435">
        <ele>1668.65</ele>
        <time>2017-06-25T09:30:34Z</time>
      </trkpt>
      <trkpt lat="45.41558" lon="5.91442">
        <ele>1670.09</ele>
        <time>2017-06-25T09:30:52Z</time>
      </trkpt>
      <trkpt lat="45.41575" lon="5.9145">
        <ele>1675.43</ele>
        <time>2017-06-25T09:31:09Z</time>
      </trkpt>
      <trkpt lat="45.41594" lon="5.91453">
        <ele>1676.89</ele>
        <time>2017-06-25T09:31:26Z</time>
      </trkpt>
      <trkpt lat="45.41612" lon="5.91448">
        <ele>1670.94</ele>
        <time>2017-06-25T09:31:42Z</time>
      </trkpt>
      <trkpt lat="45.41627" lon="5.91463">
        <ele>1671.21</ele>
        <time>2017-06-25T09:31:58Z</time>
      </trkpt>
      <trkpt lat="45.41643" lon="5.91477">
        <ele>1674.1</ele>
        <time>2017-06-25T09:32:14Z</time>
      </trkpt>
      <trkpt lat="45.4166" lon="5.91485">
        <ele>1672.55</ele>
        <time>2017-06-25T09:32:32Z</time>
      </trkpt>
      <trkpt lat="45.41678" lon="5.9149">
        <ele>1667.8</ele>
        <time>2017-06-25T09:32:51Z</time>
      </trkpt>
      <trkpt lat="45.41696" lon="5.91499">
        <ele>1670.88</ele>
        <time>2017-06-25T09:33:06Z</time>
      </trkpt>
      <trkpt lat="45.41715" lon="5.915">
        <ele>1671.04</ele>
        <time>2017-06-25T09:33:22Z</time>
      </trkpt>
      <trkpt lat="45.41732" lon="5.91509">
        <ele>1667.62</ele>
        <time>2017-06-25T09:33:37Z</time>
      </trkpt>
      <trkpt lat="45.4175" lon="5.91511">
        <ele>1666.81</ele>
        <time>2017-06-25T09:33:56Z</time>
      </trkpt>
      <trkpt lat="45.41769" lon="5.9151">
        <ele>1661.91</ele>
        <time>2017-06-25T09:34:10Z</time>
      </trkpt>
      <trkpt lat="45.41787" lon="5.91519">
        <ele>1661.16</ele>
        <time>2017-06-25T09:34:25Z</time>
      </trkpt>
      <trkpt lat="45.41805" lon="5.91524">
        <ele>1662.96</ele>
        <time>2017-06-25T09:34:54Z</time>
      </trkpt>
      <trkpt lat="45.41822" lon="5.91535">
        <ele>1664.88</ele>
        <time>2017-06-25T09:35:13Z</time>
      </trkpt>
      <trkpt lat="45.41839" lon="5.91545">
        <ele>1665.76</ele>
        <time>2017-06-25T09:35:38Z</time>
      </trkpt>
      <trkpt lat="45.41857" lon="5.91549">
        <ele>1662.94</ele>
        <time>2017-06-25T09:36:05Z</time>
      </trkpt>
      <trkpt lat="45.41876" lon="5.91549">
        <ele>1659.33</ele>
        <time>2017-06-25T09:36:31Z</time>
      </trkpt>
      <trkpt lat="45.41892" lon="5.9156">
        <ele>1660.82</ele>
        <time>2017-06-25T09:36:48Z</time>
      </trkpt>
      <trkpt lat="45.41908" lon="5.91576">
        <ele>1659.96</ele>
        <time>2017-06-25T09:37:05Z</time>
      </trkpt>
      <trkpt lat="45.41926" lon="5.91584">
        <ele>1659.89</ele>
        <time>2017-06-25T09:37:20Z</time>
      </trkpt>
      <trkpt lat="45.41943" lon="5.91594">
        <ele>1658.57</ele>
        <time>2017-06-25T09:37:36Z</time>
      </trkpt>
      <trkpt lat="45.41961" lon="5.916">
        <ele>1659.55</ele>
        <time>2017-06-25T09:37:52Z</time>
      </trkpt>
      <trkpt lat="45.41979" lon="5.91606">
        <ele>1656.23</ele>
        <time>2017-06-25T09:38:06Z</time>
      </trkpt>
      <trkpt lat="45.41996" lon="5.91612">
        <ele>1658.52</ele>
        <time>2017-06-25T09:38:20Z</time>
      </trkpt>
      <trkpt lat="45.42015" lon="5.91619">
        <ele>1655.91</ele>
        <time>2017-06-25T09:38:36Z</time>
      </trkpt>
      <trkpt lat="45.42033" lon="5.91622">
        <ele>1656.87</ele>
        <time>2017-06-25T09:38:53Z</time>
      </trkpt>
      <trkpt lat="45.42052" lon="5.91627">
        <ele>1656.28</ele>
        <time>2017-06-25T09:39:09Z</time>
      </trkpt>
      <trkpt lat="45.42068" lon="5.91639">
        <ele>1657.79</ele>
        <time>2017-06-25T09:39:23Z</time>
      </trkpt>
      <trkpt lat="45.42084" lon="5.91653">
        <ele>1655.85</ele>
        <time>2017-06-25T09:39:39Z</time>
      </trkpt>
      <trkpt lat="45.42099" lon="5.91669">
        <ele>1656.57</ele>
        <time>2017-06-25T09:39:54Z</time>
      </trkpt>
      <trkpt lat="45.42115" lon="5.91681">
        <ele>1656.18</ele>
        <time>2017-06-25T09:40:09Z</time>
      </trkpt>
      <trkpt lat="45.42133" lon="5.91689">
        <ele>1651.98</ele>
        <time>2017-06-25T09:40:27Z</time>
      </trkpt>
      <trkpt lat="45.42145" lon="5.91711">
        <ele>1651.6</ele>
        <time>2017-06-25T09:40:44Z</time>
      </trkpt>
      <trkpt lat="45.4216" lon="5.91726">
        <ele>1654.69</ele>
        <time>2017-06-25T09:40:59Z</time>
      </trkpt>
      <trkpt lat="45.42178" lon="5.91718">
        <ele>1653.3</ele>
        <time>2017-06-25T09:41:16Z</time>
      </trkpt>
      <trkpt lat="45.42196" lon="5.91723">
        <ele>1648.91</ele>
        <time>2017-06-25T09:41:31Z</time>
      </trkpt>
      <trkpt lat="45.42215" lon="5.91718">
        <ele>1644.88</ele>
        <time>2017-06-25T09:41:49Z</time>
      </trkpt>
      <trkpt lat="45.42233" lon="5.91715">
        <ele>1643.89</ele>
        <time>2017-06-25T09:42:04Z</time>
      </trkpt>
      <trkpt lat="45.42252" lon="5.91715">
        <ele>1640.9</ele>
        <time>2017-06-25T09:42:20Z</time>
      </trkpt>
      <trkpt lat="45.4227" lon="5.91719">
        <ele>1646.49</ele>
        <time>2017-06-25T09:42:33Z</time>
      </trkpt>
      <trkpt lat="45.42288" lon="5.91727">
        <ele>1643.26</ele>
        <time>2017-06-25T09:42:50Z</time>
      </trkpt>
      <trkpt lat="45.42307" lon="5.91725">
        <ele>1644.38</ele>
        <time>2017-06-25T09:43:05Z</time>
      </trkpt>
      <trkpt lat="45.42321" lon="5.91743">
        <ele>1641.86</ele>
        <time>2017-06-25T09:43:26Z</time>
      </trkpt>
      <trkpt lat="45.42338" lon="5.91756">
        <ele>1640.52</ele>
        <time>2017-06-25T09:43:40Z</time>
      </trkpt>
      <trkpt lat="45.42348" lon="5.91777">
        <ele>1639.2</ele>
        <time>2017-06-25T09:43:55Z</time>
      </trkpt>
      <trkpt lat="45.42364" lon="5.91794">
        <ele>1638.08</ele>
        <time>2017-06-25T09:44:18Z</time>
      </trkpt>
      <trkpt lat="45.42382" lon="5.91798">
        <ele>1636.88</ele>
        <time>2017-06-25T09:44:31Z</time>
      </trkpt>
      <trkpt lat="45.42396" lon="5.91814">
        <ele>1636.96</ele>
        <time>2017-06-25T09:44:44Z</time>
      </trkpt>
      <trkpt lat="45.42414" lon="5.9182">
        <ele>1635.95</ele>
        <time>2017-06-25T09:45:05Z</time>
      </trkpt>
      <trkpt lat="45.42427" lon="5.91839">
        <ele>1628.03</ele>
        <time>2017-06-25T09:45:19Z</time>
      </trkpt>
      <trkpt lat="45.42445" lon="5.91846">
        <ele>1630.91</ele>
        <time>2017-06-25T09:45:34Z</time>
      </trkpt>
      <trkpt lat="45.42464" lon="5.91847">
        <ele>1629.87</ele>
        <time>2017-06-25T09:45:49Z</time>
      </trkpt>
      <trkpt lat="45.4248" lon="5.91861">
        <ele>1627.21</ele>
        <time>2017-06-25T09:46:09Z</time>
      </trkpt>
      <trkpt lat="45.42491" lon="5.91881">
        <ele>1622.52</ele>
        <time>2017-06-25T09:46:25Z</time>
      </trkpt>
      <trkpt lat="45.42501" lon="5.91904">
        <ele>1625.58</ele>
        <time>2017-06-25T09:46:38Z</time>
      </trkpt>
      <trkpt lat="45.42518" lon="5.9191">
        <ele>1623.78</ele>
        <time>2017-06-25T09:46:54Z</time>
      </trkpt>
      <trkpt lat="45.42532" lon="5.91927">
        <ele>1619.18</ele>
        <time>2017-06-25T09:47:15Z</time>
      </trkpt>
      <trkpt lat="45.42541" lon="5.9195">
        <ele>1619.94</ele>
        <time>2017-06-25T09:47:32Z</time>
      </trkpt>
      <trkpt lat="45.42559" lon="5.91955">
        <ele>1618.18</ele>
        <time>2017-06-25T09:47:49Z</time>
      </trkpt>
      <trkpt lat="45.42576" lon="5.91967">
        <ele>1614.68</ele>
        <time>2017-06-25T09:48:07Z</time>
      </trkpt>
      <trkpt lat="45.42593" lon="5.91974">
        <ele>1610.28</ele>
        <time>2017-06-25T09:48:26Z</time>
      </trkpt>
      <trkpt lat="45.42607" lon="5.91993">
        <ele>1607.88</ele>
        <time>2017-06-25T09:48:43Z</time>
      </trkpt>
      <trkpt lat="45.42626" lon="5.91999">
        <ele>1606.87</ele>
        <time>2017-06-25T09:48:55Z</time>
      </trkpt>
      <trkpt lat="45.42644" lon="5.9201">
        <ele>1606.69</ele>
        <time>2017-06-25T09:49:07Z</time>
      </trkpt>
      <trkpt lat="45.4266" lon="5.92021">
        <ele>1602.27</ele>
        <time>2017-06-25T09:49:21Z</time>
      </trkpt>
      <trkpt lat="45.42678" lon="5.92026">
        <ele>1599.99</ele>
        <time>2017-06-25T09:49:36Z</time>
      </trkpt>
      <trkpt lat="45.42696" lon="5.92029">
        <ele>1596.88</ele>
        <time>2017-06-25T09:49:48Z</time>
      </trkpt>
      <trkpt lat="45.42714" lon="5.92037">
        <ele>1594.18</ele>
        <time>2017-06-25T09:50:03Z</time>
      </trkpt>
      <trkpt lat="45.42733" lon="5.92046">
        <ele>1592.86</ele>
        <time>2017-06-25T09:50:18Z</time>
      </trkpt>
      <trkpt lat="45.4275" lon="5.92058">
        <ele>1593.9</ele>
        <time>2017-06-25T09:50:32Z</time>
      </trkpt>
      <trkpt lat="45.42768" lon="5.92061">
        <ele>1590.9</ele>
        <time>2017-06-25T09:50:47Z</time>
      </trkpt>
      <trkpt lat="45.42787" lon="5.92065">
        <ele>1590.97</ele>
        <time>2017-06-25T09:51:02Z</time>
      </trkpt>
      <trkpt lat="45.42805" lon="5.92076">
        <ele>1593.88</ele>
        <time>2017-06-25T09:51:16Z</time>
      </trkpt>
      <trkpt lat="45.42823" lon="5.92082">
        <ele>1595.55</ele>
        <time>2017-06-25T09:51:30Z</time>
      </trkpt>
      <trkpt lat="45.42839" lon="5.92094">
        <ele>1601.79</ele>
        <time>2017-06-25T09:51:50Z</time>
      </trkpt>
      <trkpt lat="45.42857" lon="5.92102">
        <ele>1602.96</ele>
        <time>2017-06-25T09:52:05Z</time>
      </trkpt>
      <trkpt lat="45.42875" lon="5.92096">
        <ele>1601.59</ele>
        <time>2017-06-25T09:54:57Z</time>
      </trkpt>
      <trkpt lat="45.42893" lon="5.92092">
        <ele>1595.48</ele>
        <time>2017-06-25T09:55:29Z</time>
      </trkpt>
      <trkpt lat="45.42906" lon="5.92112">
        <ele>1591.97</ele>
        <time>2017-06-25T09:55:47Z</time>
      </trkpt>
      <trkpt lat="45.42916" lon="5.92134">
        <ele>1589.17</ele>
        <time>2017-06-25T09:56:08Z</time>
      </trkpt>
      <trkpt lat="45.42932" lon="5.92147">
        <ele>1594.74</ele>
        <time>2017-06-25T09:56:28Z</time>
      </trkpt>
      <trkpt lat="45.42951" lon="5.92149">
        <ele>1592.7</ele>
        <time>2017-06-25T09:56:46Z</time>
      </trkpt>
      <trkpt lat="45.42969" lon="5.92157">
        <ele>1595.59</ele>
        <time>2017-06-25T09:57:03Z</time>
      </trkpt>
      <trkpt lat="45.42986" lon="5.92167">
        <ele>1594.14</ele>
        <time>2017-06-25T09:57:20Z</time>
      </trkpt>
      <trkpt lat="45.43005" lon="5.92166">
        <ele>1588.67</ele>
        <time>2017-06-25T09:57:40Z</time>
      </trkpt>
      <trkpt lat="45.43024" lon="5.92165">
        <ele>1586.51</ele>
        <time>2017-06-25T09:58:03Z</time>
      </trkpt>
      <trkpt lat="45.43041" lon="5.92173">
        <ele>1582.94</ele>
        <time>2017-06-25T09:58:21Z</time>
      </trkpt>
      <trkpt lat="45.43058" lon="5.92184">
        <ele>1584.75</ele>
        <time>2017-06-25T09:58:31Z</time>
      </trkpt>
      <trkpt lat="45.43076" lon="5.92193">
        <ele>1580.39</ele>
        <time>2017-06-25T09:58:59Z</time>
      </trkpt>
      <trkpt lat="45.43094" lon="5.92199">
        <ele>1571.47</ele>
        <time>2017-06-25T09:59:13Z</time>
      </trkpt>
      <trkpt lat="45.43113" lon="5.92199">
        <ele>1573.08</ele>
        <time>2017-06-25T09:59:37Z</time>
      </trkpt>
      <trkpt lat="45.43132" lon="5.92199">
        <ele>1577.93</ele>
        <time>2017-06-25T09:59:49Z</time>
      </trkpt>
      <trkpt lat="45.43149" lon="5.92207">
        <ele>1578.92</ele>
        <time>2017-06-25T10:00:05Z</time>
      </trkpt>
      <trkpt lat="45.43167" lon="5.92202">
        <ele>1578.73</ele>
        <time>2017-06-25T10:00:22Z</time>
      </trkpt>
      <trkpt lat="45.43185" lon="5.92199">
        <ele>1579.82</ele>
        <time>2017-06-25T10:00:45Z</time>
      </trkpt>
      <trkpt lat="45.43203" lon="5.92191">
        <ele>1577.85</ele>
        <time>2017-06-25T10:00:56Z</time>
      </trkpt>
      <trkpt lat="45.4322" lon="5.92181">
        <ele>1573.99</ele>
        <time>2017-06-25T10:01:09Z</time>
      </trkpt>
      <trkpt lat="45.43235" lon="5.92164">
        <ele>1567.51</ele>
        <time>2017-06-25T10:01:23Z</time>
      </trkpt>
      <trkpt lat="45.4325" lon="5.92149">
        <ele>1566.73</ele>
        <time>2017-06-25T10:01:40Z</time>
      </trkpt>
      <trkpt lat="45.43267" lon="5.92137">
        <ele>1564.97</ele>
        <time>2017-06-25T10:02:05Z</time>
      </trkpt>
      <trkpt lat="45.43285" lon="5.92139">
        <ele>1564.77</ele>
        <time>2017-06-25T10:02:25Z</time>
      </trkpt>
      <trkpt lat="45.43301" lon="5.92155">
        <ele>1569.8</ele>
        <time>2017-06-25T10:02:47Z</time>
      </trkpt>
      <trkpt lat="45.4331" lon="5.92177">
        <ele>1570.99</ele>
        <time>2017-06-25T10:03:11Z</time>
      </trkpt>
      <trkpt lat="45.4332" lon="5.922">
        <ele>1575.75</ele>
        <time>2017-06-25T10:03:27Z</time>
      </trkpt>
      <trkpt lat="45.43337" lon="5.92212">
        <ele>1572.7</ele>
        <time>2017-06-25T10:03:40Z</time>
      </trkpt>
      <trkpt lat="45.43354" lon="5.92222">
        <ele>1574.97</ele>
        <time>2017-06-25T10:04:08Z</time>
      </trkpt>
      <trkpt lat="45.43369" lon="5.92236">
        <ele>1570.9</ele>
        <time>2017-06-25T10:04:23Z</time>
      </trkpt>
      <trkpt lat="45.4338" lon="5.92258">
        <ele>1561.57</ele>
        <time>2017-06-25T10:04:43Z</time>
      </trkpt>
      <trkpt lat="45.43397" lon="5.92267">
        <ele>1560.08</ele>
        <time>2017-06-25T10:05:05Z</time>
      </trkpt>
      <trkpt lat="45.43408" lon="5.92289">
        <ele>1561.25</ele>
        <time>2017-06-25T10:05:30Z</time>
      </trkpt>
      <trkpt lat="45.43418" lon="5.9231">
        <ele>1555.79</ele>
        <time>2017-06-25T10:05:46Z</time>
      </trkpt>
      <trkpt lat="45.43427" lon="5.92333">
        <ele>1555.68</ele>
        <time>2017-06-25T10:06:06Z</time>
      </trkpt>
      <trkpt lat="45.43438" lon="5.92354">
        <ele>1558.6</ele>
        <time>2017-06-25T10:06:20Z</time>
      </trkpt>
      <trkpt lat="45.4345" lon="5.92374">
        <ele>1553.02</ele>
        <time>2017-06-25T10:06:36Z</time>
      </trkpt>
      <trkpt lat="45.43466" lon="5.92387">
        <ele>1545.53</ele>
        <time>2017-06-25T10:06:52Z</time>
      </trkpt>
      <trkpt lat="45.43483" lon="5.92396">
        <ele>1546.55</ele>
        <time>2017-06-25T10:07:10Z</time>
      </trkpt>
      <trkpt lat="45.43493" lon="5.92417">
        <ele>1548.62</ele>
        <time>2017-06-25T10:07:25Z</time>
      </trkpt>
      <trkpt lat="45.43508" lon="5.92434">
        <ele>1552.57</ele>
        <time>2017-06-25T10:07:43Z</time>
      </trkpt>
      <trkpt lat="45.43517" lon="5.92457">
        <ele>1549.2</ele>
        <time>2017-06-25T10:08:05Z</time>
      </trkpt>
      <trkpt lat="45.4353" lon="5.92477">
        <ele>1550.67</ele>
        <time>2017-06-25T10:08:23Z</time>
      </trkpt>
      <trkpt lat="45.43541" lon="5.92496">
        <ele>1551.18</ele>
        <time>2017-06-25T10:08:40Z</time>
      </trkpt>
      <trkpt lat="45.43557" lon="5.9251">
        <ele>1549.86</ele>
        <time>2017-06-25T10:08:57Z</time>
      </trkpt>
      <trkpt lat="45.43573" lon="5.92525">
        <ele>1551.86</ele>
        <time>2017-06-25T10:09:15Z</time>
      </trkpt>
      <trkpt lat="45.43586" lon="5.92544">
        <ele>1549.15</ele>
        <time>2017-06-25T10:09:31Z</time>
      </trkpt>
      <trkpt lat="45.43604" lon="5.92552">
        <ele>1544.81</ele>
        <time>2017-06-25T10:09:48Z</time>
      </trkpt>
      <trkpt lat="45.43618" lon="5.9257">
        <ele>1544.95</ele>
        <time>2017-06-25T10:10:03Z</time>
      </trkpt>
      <trkpt lat="45.43633" lon="5.92584">
        <ele>1543.88</ele>
        <time>2017-06-25T10:10:18Z</time>
      </trkpt>
      <trkpt lat="45.43649" lon="5.92598">
        <ele>1540.89</ele>
        <time>2017-06-25T10:10:55Z</time>
      </trkpt>
      <trkpt lat="45.43668" lon="5.92591">
        <ele>1541.65</ele>
        <time>2017-06-25T10:11:09Z</time>
      </trkpt>
      <trkpt lat="45.43686" lon="5.92585">
        <ele>1543.51</ele>
        <time>2017-06-25T10:11:22Z</time>
      </trkpt>
      <trkpt lat="45.43703" lon="5.9259">
        <ele>1545.99</ele>
        <time>2017-06-25T10:11:38Z</time>
      </trkpt>
      <trkpt lat="45.43722" lon="5.92593">
        <ele>1552.17</ele>
        <time>2017-06-25T10:12:01Z</time>
      </trkpt>
      <trkpt lat="45.4374" lon="5.92595">
        <ele>1555.8</ele>
        <time>2017-06-25T10:12:19Z</time>
      </trkpt>
      <trkpt lat="45.43753" lon="5.92577">
        <ele>1541.88</ele>
        <time>2017-06-25T10:12:29Z</time>
      </trkpt>
      <trkpt lat="45.43769" lon="5.92562">
        <ele>1538.88</ele>
        <time>2017-06-25T10:12:43Z</time>
      </trkpt>
      <trkpt lat="45.43786" lon="5.9255">
        <ele>1541.78</ele>
        <time>2017-06-25T10:13:06Z</time>
      </trkpt>
      <trkpt lat="45.43803" lon="5.92562">
        <ele>1537.06</ele>
        <time>2017-06-25T10:13:24Z</time>
      </trkpt>
      <trkpt lat="45.43817" lon="5.92546">
        <ele>1532.78</ele>
        <time>2017-06-25T10:13:35Z</time>
      </trkpt>
      <trkpt lat="45.43829" lon="5.92527">
        <ele>1527</ele>
        <time>2017-06-25T10:14:07Z</time>
      </trkpt>
      <trkpt lat="45.43843" lon="5.92509">
        <ele>1526.28</ele>
        <time>2017-06-25T10:14:24Z</time>
      </trkpt>
      <trkpt lat="45.43857" lon="5.92494">
        <ele>1525.94</ele>
        <time>2017-06-25T10:14:38Z</time>
      </trkpt>
      <trkpt lat="45.43865" lon="5.92469">
        <ele>1525.88</ele>
        <time>2017-06-25T10:14:54Z</time>
      </trkpt>
      <trkpt lat="45.43872" lon="5.92445">
        <ele>1526.88</ele>
        <time>2017-06-25T10:15:10Z</time>
      </trkpt>
      <trkpt lat="45.43873" lon="5.92419">
        <ele>1522.18</ele>
        <time>2017-06-25T10:15:26Z</time>
      </trkpt>
      <trkpt lat="45.43883" lon="5.92397">
        <ele>1516.89</ele>
        <time>2017-06-25T10:15:43Z</time>
      </trkpt>
      <trkpt lat="45.43893" lon="5.92374">
        <ele>1516.31</ele>
        <time>2017-06-25T10:16:12Z</time>
      </trkpt>
      <trkpt lat="45.43911" lon="5.92365">
        <ele>1518.11</ele>
        <time>2017-06-25T10:16:25Z</time>
      </trkpt>
      <trkpt lat="45.43929" lon="5.92361">
        <ele>1513.88</ele>
        <time>2017-06-25T10:16:42Z</time>
      </trkpt>
      <trkpt lat="45.43945" lon="5.92347">
        <ele>1513.25</ele>
        <time>2017-06-25T10:16:58Z</time>
      </trkpt>
      <trkpt lat="45.43962" lon="5.92337">
        <ele>1515.67</ele>
        <time>2017-06-25T10:17:12Z</time>
      </trkpt>
      <trkpt lat="45.43977" lon="5.92321">
        <ele>1512.7</ele>
        <time>2017-06-25T10:17:26Z</time>
      </trkpt>
      <trkpt lat="45.43984" lon="5.92297">
        <ele>1516.51</ele>
        <time>2017-06-25T10:17:39Z</time>
      </trkpt>
      <trkpt lat="45.43996" lon="5.92277">
        <ele>1511.79</ele>
        <time>2017-06-25T10:17:54Z</time>
      </trkpt>
      <trkpt lat="45.44013" lon="5.92264">
        <ele>1512.15</ele>
        <time>2017-06-25T10:18:10Z</time>
      </trkpt>
      <trkpt lat="45.44029" lon="5.92275">
        <ele>1510.57</ele>
        <time>2017-06-25T10:18:26Z</time>
      </trkpt>
      <trkpt lat="45.44047" lon="5.92279">
        <ele>1505.48</ele>
        <time>2017-06-25T10:18:43Z</time>
      </trkpt>
      <trkpt lat="45.44065" lon="5.92273">
        <ele>1501.99</ele>
        <time>2017-06-25T10:18:59Z</time>
      </trkpt>
      <trkpt lat="45.44082" lon="5.92263">
        <ele>1505.79</ele>
        <time>2017-06-25T10:23:50Z</time>
      </trkpt>
      <trkpt lat="45.44077" lon="5.92238">
        <ele>1507.9</ele>
        <time>2017-06-25T11:04:02Z</time>
      </trkpt>
      <trkpt lat="45.44076" lon="5.92212">
        <ele>1511.27</ele>
        <time>2017-06-25T11:04:26Z</time>
      </trkpt>
      <trkpt lat="45.44071" lon="5.92186">
        <ele>1516.63</ele>
        <time>2017-06-25T11:04:50Z</time>
      </trkpt>
      <trkpt lat="45.4407" lon="5.9216">
        <ele>1516.2</ele>
        <time>2017-06-25T11:05:14Z</time>
      </trkpt>
      <trkpt lat="45.44053" lon="5.9215">
        <ele>1517.55</ele>
        <time>2017-06-25T11:05:38Z</time>
      </trkpt>
      <trkpt lat="45.4407" lon="5.92143">
        <ele>1516.91</ele>
        <time>2017-06-25T11:37:25Z</time>
      </trkpt>
      <trkpt lat="45.44076" lon="5.92117">
        <ele>1517.11</ele>
        <time>2017-06-25T11:37:47Z</time>
      </trkpt>
      <trkpt lat="45.44085" lon="5.92095">
        <ele>1519.46</ele>
        <time>2017-06-25T11:38:06Z</time>
      </trkpt>
      <trkpt lat="45.44097" lon="5.92074">
        <ele>1520.85</ele>
        <time>2017-06-25T11:38:24Z</time>
      </trkpt>
      <trkpt lat="45.44108" lon="5.92052">
        <ele>1520.91</ele>
        <time>2017-06-25T11:38:42Z</time>
      </trkpt>
      <trkpt lat="45.44119" lon="5.92032">
        <ele>1523.87</ele>
        <time>2017-06-25T11:39:00Z</time>
      </trkpt>
      <trkpt lat="45.44132" lon="5.92013">
        <ele>1522.18</ele>
        <time>2017-06-25T11:39:19Z</time>
      </trkpt>
      <trkpt lat="45.44142" lon="5.9199">
        <ele>1523.52</ele>
        <time>2017-06-25T11:39:36Z</time>
      </trkpt>
      <trkpt lat="45.44148" lon="5.91965">
        <ele>1523.65</ele>
        <time>2017-06-25T11:39:52Z</time>
      </trkpt>
      <trkpt lat="45.44157" lon="5.91941">
        <ele>1526.11</ele>
        <time>2017-06-25T11:40:10Z</time>
      </trkpt>
      <trkpt lat="45.44165" lon="5.91918">
        <ele>1528.57</ele>
        <time>2017-06-25T11:40:30Z</time>
      </trkpt>
      <trkpt lat="45.44175" lon="5.91896">
        <ele>1531.09</ele>
        <time>2017-06-25T11:40:51Z</time>
      </trkpt>
      <trkpt lat="45.44177" lon="5.91922">
        <ele>1535.19</ele>
        <time>2017-06-25T11:42:20Z</time>
      </trkpt>
      <trkpt lat="45.44176" lon="5.9195">
        <ele>1535.67</ele>
        <time>2017-06-25T11:42:38Z</time>
      </trkpt>
      <trkpt lat="45.44181" lon="5.91975">
        <ele>1534.64</ele>
        <time>2017-06-25T11:42:56Z</time>
      </trkpt>
      <trkpt lat="45.4418" lon="5.92002">
        <ele>1537.6</ele>
        <time>2017-06-25T11:43:15Z</time>
      </trkpt>
      <trkpt lat="45.44182" lon="5.92028">
        <ele>1538.87</ele>
        <time>2017-06-25T11:43:35Z</time>
      </trkpt>
      <trkpt lat="45.44177" lon="5.92053">
        <ele>1544.74</ele>
        <time>2017-06-25T11:43:50Z</time>
      </trkpt>
      <trkpt lat="45.44183" lon="5.92077">
        <ele>1544.58</ele>
        <time>2017-06-25T11:44:09Z</time>
      </trkpt>
      <trkpt lat="45.44177" lon="5.92101">
        <ele>1547.17</ele>
        <time>2017-06-25T11:44:25Z</time>
      </trkpt>
      <trkpt lat="45.44182" lon="5.92126">
        <ele>1546.87</ele>
        <time>2017-06-25T11:44:40Z</time>
      </trkpt>
      <trkpt lat="45.44185" lon="5.92151">
        <ele>1546.88</ele>
        <time>2017-06-25T11:44:56Z</time>
      </trkpt>
      <trkpt lat="45.44199" lon="5.92169">
        <ele>1545.85</ele>
        <time>2017-06-25T11:45:14Z</time>
      </trkpt>
      <trkpt lat="45.44207" lon="5.92193">
        <ele>1546.09</ele>
        <time>2017-06-25T11:45:32Z</time>
      </trkpt>
      <trkpt lat="45.44205" lon="5.92219">
        <ele>1545.88</ele>
        <time>2017-06-25T11:45:55Z</time>
      </trkpt>
      <trkpt lat="45.44206" lon="5.92244">
        <ele>1541.91</ele>
        <time>2017-06-25T11:46:17Z</time>
      </trkpt>
      <trkpt lat="45.44211" lon="5.9227">
        <ele>1536.29</ele>
        <time>2017-06-25T11:46:33Z</time>
      </trkpt>
      <trkpt lat="45.44223" lon="5.92291">
        <ele>1533.97</ele>
        <time>2017-06-25T11:46:48Z</time>
      </trkpt>
      <trkpt lat="45.44232" lon="5.92314">
        <ele>1539.58</ele>
        <time>2017-06-25T11:47:05Z</time>
      </trkpt>
      <trkpt lat="45.44237" lon="5.92339">
        <ele>1542.24</ele>
        <time>2017-06-25T11:47:26Z</time>
      </trkpt>
      <trkpt lat="45.44248" lon="5.92361">
        <ele>1540.67</ele>
        <time>2017-06-25T11:47:44Z</time>
      </trkpt>
      <trkpt lat="45.44257" lon="5.92383">
        <ele>1541.97</ele>
        <time>2017-06-25T11:48:00Z</time>
      </trkpt>
      <trkpt lat="45.44274" lon="5.92393">
        <ele>1544.18</ele>
        <time>2017-06-25T11:48:23Z</time>
      </trkpt>
      <trkpt lat="45.44282" lon="5.92417">
        <ele>1543.17</ele>
        <time>2017-06-25T11:48:44Z</time>
      </trkpt>
      <trkpt lat="45.4429" lon="5.9244">
        <ele>1540.09</ele>
        <time>2017-06-25T11:49:01Z</time>
      </trkpt>
      <trkpt lat="45.44302" lon="5.92459">
        <ele>1540.87</ele>
        <time>2017-06-25T11:49:18Z</time>
      </trkpt>
      <trkpt lat="45.44315" lon="5.9248">
        <ele>1541.91</ele>
        <time>2017-06-25T11:49:35Z</time>
      </trkpt>
      <trkpt lat="45.44327" lon="5.925">
        <ele>1542.88</ele>
        <time>2017-06-25T11:49:51Z</time>
      </trkpt>
      <trkpt lat="45.44333" lon="5.92524">
        <ele>1542.87</ele>
        <time>2017-06-25T11:50:07Z</time>
      </trkpt>
      <trkpt lat="45.44345" lon="5.92545">
        <ele>1541.6</ele>
        <time>2017-06-25T11:50:24Z</time>
      </trkpt>
      <trkpt lat="45.44355" lon="5.92567">
        <ele>1542.58</ele>
        <time>2017-06-25T11:50:40Z</time>
      </trkpt>
      <trkpt lat="45.44365" lon="5.92589">
        <ele>1543.88</ele>
        <time>2017-06-25T11:50:57Z</time>
      </trkpt>
      <trkpt lat="45.44376" lon="5.92609">
        <ele>1544.49</ele>
        <time>2017-06-25T11:51:13Z</time>
      </trkpt>
      <trkpt lat="45.44385" lon="5.92632">
        <ele>1541.88</ele>
        <time>2017-06-25T11:51:29Z</time>
      </trkpt>
      <trkpt lat="45.44398" lon="5.92651">
        <ele>1540.85</ele>
        <time>2017-06-25T11:51:46Z</time>
      </trkpt>
      <trkpt lat="45.44409" lon="5.92672">
        <ele>1540.94</ele>
        <time>2017-06-25T11:52:04Z</time>
      </trkpt>
      <trkpt lat="45.4442" lon="5.92694">
        <ele>1542.59</ele>
        <time>2017-06-25T11:52:21Z</time>
      </trkpt>
      <trkpt lat="45.44432" lon="5.92714">
        <ele>1540.48</ele>
        <time>2017-06-25T11:52:39Z</time>
      </trkpt>
      <trkpt lat="45.44444" lon="5.92735">
        <ele>1543.85</ele>
        <time>2017-06-25T11:52:55Z</time>
      </trkpt>
      <trkpt lat="45.44454" lon="5.92757">
        <ele>1545.85</ele>
        <time>2017-06-25T11:53:12Z</time>
      </trkpt>
      <trkpt lat="45.44468" lon="5.92775">
        <ele>1543.98</ele>
        <time>2017-06-25T11:53:30Z</time>
      </trkpt>
      <trkpt lat="45.44482" lon="5.92793">
        <ele>1543.87</ele>
        <time>2017-06-25T11:53:48Z</time>
      </trkpt>
      <trkpt lat="45.44489" lon="5.92818">
        <ele>1545.58</ele>
        <time>2017-06-25T11:54:04Z</time>
      </trkpt>
      <trkpt lat="45.44506" lon="5.92808">
        <ele>1549.57</ele>
        <time>2017-06-25T11:54:39Z</time>
      </trkpt>
      <trkpt lat="45.44521" lon="5.92796">
        <ele>1552.67</ele>
        <time>2017-06-25T11:55:02Z</time>
      </trkpt>
      <trkpt lat="45.44537" lon="5.92808">
        <ele>1552.2</ele>
        <time>2017-06-25T11:55:24Z</time>
      </trkpt>
      <trkpt lat="45.44555" lon="5.92817">
        <ele>1553.66</ele>
        <time>2017-06-25T11:55:51Z</time>
      </trkpt>
      <trkpt lat="45.44572" lon="5.92825">
        <ele>1559.88</ele>
        <time>2017-06-25T11:56:19Z</time>
      </trkpt>
      <trkpt lat="45.44591" lon="5.92829">
        <ele>1560.81</ele>
        <time>2017-06-25T11:56:44Z</time>
      </trkpt>
      <trkpt lat="45.44608" lon="5.92838">
        <ele>1561.49</ele>
        <time>2017-06-25T11:57:03Z</time>
      </trkpt>
      <trkpt lat="45.44624" lon="5.9285">
        <ele>1572.84</ele>
        <time>2017-06-25T11:57:32Z</time>
      </trkpt>
      <trkpt lat="45.44642" lon="5.92858">
        <ele>1573.1</ele>
        <time>2017-06-25T11:58:07Z</time>
      </trkpt>
      <trkpt lat="45.4466" lon="5.92861">
        <ele>1568.3</ele>
        <time>2017-06-25T11:58:29Z</time>
      </trkpt>
      <trkpt lat="45.44676" lon="5.92873">
        <ele>1574.81</ele>
        <time>2017-06-25T11:59:00Z</time>
      </trkpt>
      <trkpt lat="45.44693" lon="5.92884">
        <ele>1581.65</ele>
        <time>2017-06-25T11:59:30Z</time>
      </trkpt>
      <trkpt lat="45.44705" lon="5.92904">
        <ele>1581.88</ele>
        <time>2017-06-25T11:59:49Z</time>
      </trkpt>
      <trkpt lat="45.44719" lon="5.92922">
        <ele>1584.88</ele>
        <time>2017-06-25T12:00:07Z</time>
      </trkpt>
      <trkpt lat="45.44733" lon="5.92937">
        <ele>1585.82</ele>
        <time>2017-06-25T12:00:24Z</time>
      </trkpt>
      <trkpt lat="45.44747" lon="5.92954">
        <ele>1583</ele>
        <time>2017-06-25T12:00:42Z</time>
      </trkpt>
      <trkpt lat="45.44762" lon="5.92968">
        <ele>1580.59</ele>
        <time>2017-06-25T12:01:02Z</time>
      </trkpt>
      <trkpt lat="45.44771" lon="5.92991">
        <ele>1581.31</ele>
        <time>2017-06-25T12:01:21Z</time>
      </trkpt>
      <trkpt lat="45.44782" lon="5.93012">
        <ele>1582.91</ele>
        <time>2017-06-25T12:01:39Z</time>
      </trkpt>
      <trkpt lat="45.44792" lon="5.93035">
        <ele>1582.97</ele>
        <time>2017-06-25T12:01:58Z</time>
      </trkpt>
      <trkpt lat="45.4481" lon="5.93031">
        <ele>1588.09</ele>
        <time>2017-06-25T12:07:14Z</time>
      </trkpt>
      <trkpt lat="45.44825" lon="5.93046">
        <ele>1589.06</ele>
        <time>2017-06-25T12:07:46Z</time>
      </trkpt>
      <trkpt lat="45.44837" lon="5.93025">
        <ele>1603.27</ele>
        <time>2017-06-25T12:09:38Z</time>
      </trkpt>
      <trkpt lat="45.44851" lon="5.93042">
        <ele>1617.64</ele>
        <time>2017-06-25T12:11:07Z</time>
      </trkpt>
      <trkpt lat="45.44863" lon="5.93062">
        <ele>1613.98</ele>
        <time>2017-06-25T12:11:29Z</time>
      </trkpt>
      <trkpt lat="45.44877" lon="5.93077">
        <ele>1610.11</ele>
        <time>2017-06-25T12:11:47Z</time>
      </trkpt>
      <trkpt lat="45.44882" lon="5.93103">
        <ele>1614.54</ele>
        <time>2017-06-25T12:12:06Z</time>
      </trkpt>
      <trkpt lat="45.44886" lon="5.93129">
        <ele>1616.56</ele>
        <time>2017-06-25T12:12:23Z</time>
      </trkpt>
      <trkpt lat="45.449" lon="5.93147">
        <ele>1619.06</ele>
        <time>2017-06-25T12:12:47Z</time>
      </trkpt>
      <trkpt lat="45.44913" lon="5.93165">
        <ele>1613.85</ele>
        <time>2017-06-25T12:13:15Z</time>
      </trkpt>
      <trkpt lat="45.44919" lon="5.9319">
        <ele>1613.18</ele>
        <time>2017-06-25T12:13:32Z</time>
      </trkpt>
      <trkpt lat="45.44933" lon="5.93207">
        <ele>1614.9</ele>
        <time>2017-06-25T12:14:18Z</time>
      </trkpt>
      <trkpt lat="45.44952" lon="5.93209">
        <ele>1618.82</ele>
        <time>2017-06-25T12:16:03Z</time>
      </trkpt>
      <trkpt lat="45.44961" lon="5.93233">
        <ele>1645.72</ele>
        <time>2017-06-25T12:19:57Z</time>
      </trkpt>
      <trkpt lat="45.44975" lon="5.9325">
        <ele>1650.59</ele>
        <time>2017-06-25T12:20:30Z</time>
      </trkpt>
      <trkpt lat="45.4498" lon="5.93225">
        <ele>1664.81</ele>
        <time>2017-06-25T12:22:39Z</time>
      </trkpt>
      <trkpt lat="45.44983" lon="5.93199">
        <ele>1676.48</ele>
        <time>2017-06-25T12:24:07Z</time>
      </trkpt>
      <trkpt lat="45.45" lon="5.93206">
        <ele>1688.79</ele>
        <time>2017-06-25T12:25:45Z</time>
      </trkpt>
      <trkpt lat="45.44992" lon="5.93183">
        <ele>1692.79</ele>
        <time>2017-06-25T12:26:15Z</time>
      </trkpt>
      <trkpt lat="45.44984" lon="5.93159">
        <ele>1690.47</ele>
        <time>2017-06-25T12:29:32Z</time>
      </trkpt>
      <trkpt lat="45.44975" lon="5.93136">
        <ele>1702.67</ele>
        <time>2017-06-25T12:30:01Z</time>
      </trkpt>
      <trkpt lat="45.44959" lon="5.93121">
        <ele>1706.86</ele>
        <time>2017-06-25T12:30:31Z</time>
      </trkpt>
      <trkpt lat="45.44943" lon="5.93108">
        <ele>1701.89</ele>
        <time>2017-06-25T12:30:57Z</time>
      </trkpt>
      <trkpt lat="45.4493" lon="5.9309">
        <ele>1712.54</ele>
        <time>2017-06-25T12:31:39Z</time>
      </trkpt>
      <trkpt lat="45.44943" lon="5.93072">
        <ele>1720.88</ele>
        <time>2017-06-25T12:32:48Z</time>
      </trkpt>
      <trkpt lat="45.44951" lon="5.93048">
        <ele>1737.64</ele>
        <time>2017-06-25T12:34:10Z</time>
      </trkpt>
      <trkpt lat="45.44946" lon="5.93024">
        <ele>1746.78</ele>
        <time>2017-06-25T12:35:04Z</time>
      </trkpt>
      <trkpt lat="45.44939" lon="5.93">
        <ele>1753.88</ele>
        <time>2017-06-25T12:37:12Z</time>
      </trkpt>
      <trkpt lat="45.4493" lon="5.92977">
        <ele>1761.16</ele>
        <time>2017-06-25T12:38:46Z</time>
      </trkpt>
      <trkpt lat="45.44947" lon="5.92969">
        <ele>1768.18</ele>
        <time>2017-06-25T12:40:21Z</time>
      </trkpt>
      <trkpt lat="45.44966" lon="5.92969">
        <ele>1770.74</ele>
        <time>2017-06-25T12:41:10Z</time>
      </trkpt>
      <trkpt lat="45.44984" lon="5.92968">
        <ele>1773.88</ele>
        <time>2017-06-25T12:41:38Z</time>
      </trkpt>
      <trkpt lat="45.45002" lon="5.92965">
        <ele>1771.88</ele>
        <time>2017-06-25T12:42:06Z</time>
      </trkpt>
      <trkpt lat="45.4502" lon="5.92969">
        <ele>1776.88</ele>
        <time>2017-06-25T12:42:43Z</time>
      </trkpt>
      <trkpt lat="45.45038" lon="5.92978">
        <ele>1777.55</ele>
        <time>2017-06-25T12:43:17Z</time>
      </trkpt>
      <trkpt lat="45.45056" lon="5.92978">
        <ele>1776.58</ele>
        <time>2017-06-25T12:43:39Z</time>
      </trkpt>
      <trkpt lat="45.45075" lon="5.92973">
        <ele>1775.88</ele>
        <time>2017-06-25T12:44:01Z</time>
      </trkpt>
      <trkpt lat="45.45091" lon="5.92961">
        <ele>1774.85</ele>
        <time>2017-06-25T12:44:29Z</time>
      </trkpt>
      <trkpt lat="45.45104" lon="5.92942">
        <ele>1774.88</ele>
        <time>2017-06-25T12:44:48Z</time>
      </trkpt>
      <trkpt lat="45.4512" lon="5.92929">
        <ele>1774.57</ele>
        <time>2017-06-25T12:45:16Z</time>
      </trkpt>
      <trkpt lat="45.45131" lon="5.92908">
        <ele>1775.68</ele>
        <time>2017-06-25T12:45:43Z</time>
      </trkpt>
      <trkpt lat="45.45147" lon="5.92893">
        <ele>1777.93</ele>
        <time>2017-06-25T12:46:06Z</time>
      </trkpt>
      <trkpt lat="45.45159" lon="5.92874">
        <ele>1771.79</ele>
        <time>2017-06-25T12:46:26Z</time>
      </trkpt>
      <trkpt lat="45.45172" lon="5.92854">
        <ele>1775.58</ele>
        <time>2017-06-25T12:46:53Z</time>
      </trkpt>
      <trkpt lat="45.45184" lon="5.92834">
        <ele>1776.91</ele>
        <time>2017-06-25T12:47:09Z</time>
      </trkpt>
      <trkpt lat="45.45181" lon="5.92809">
        <ele>1777.88</ele>
        <time>2017-06-25T12:47:28Z</time>
      </trkpt>
      <trkpt lat="45.45176" lon="5.92784">
        <ele>1776.79</ele>
        <time>2017-06-25T12:47:51Z</time>
      </trkpt>
      <trkpt lat="45.45171" lon="5.92758">
        <ele>1782.46</ele>
        <time>2017-06-25T12:48:21Z</time>
      </trkpt>
      <trkpt lat="45.45169" lon="5.92733">
        <ele>1782.88</ele>
        <time>2017-06-25T12:48:43Z</time>
      </trkpt>
      <trkpt lat="45.45167" lon="5.92707">
        <ele>1786.87</ele>
        <time>2017-06-25T12:49:07Z</time>
      </trkpt>
      <trkpt lat="45.45156" lon="5.92687">
        <ele>1788.87</ele>
        <time>2017-06-25T12:49:37Z</time>
      </trkpt>
      <trkpt lat="45.45155" lon="5.92661">
        <ele>1789.97</ele>
        <time>2017-06-25T12:50:17Z</time>
      </trkpt>
      <trkpt lat="45.45144" lon="5.92639">
        <ele>1793.87</ele>
        <time>2017-06-25T12:50:42Z</time>
      </trkpt>
      <trkpt lat="45.45155" lon="5.92619">
        <ele>1796.88</ele>
        <time>2017-06-25T12:51:01Z</time>
      </trkpt>
      <trkpt lat="45.45161" lon="5.92594">
        <ele>1796.81</ele>
        <time>2017-06-25T12:51:19Z</time>
      </trkpt>
      <trkpt lat="45.4516" lon="5.92567">
        <ele>1799.87</ele>
        <time>2017-06-25T12:51:40Z</time>
      </trkpt>
      <trkpt lat="45.45158" lon="5.92542">
        <ele>1798</ele>
        <time>2017-06-25T12:52:06Z</time>
      </trkpt>
      <trkpt lat="45.45162" lon="5.92516">
        <ele>1803.64</ele>
        <time>2017-06-25T12:52:31Z</time>
      </trkpt>
      <trkpt lat="45.45169" lon="5.92492">
        <ele>1806.09</ele>
        <time>2017-06-25T12:53:01Z</time>
      </trkpt>
      <trkpt lat="45.45176" lon="5.92467">
        <ele>1810.23</ele>
        <time>2017-06-25T12:53:31Z</time>
      </trkpt>
      <trkpt lat="45.45186" lon="5.92446">
        <ele>1810.47</ele>
        <time>2017-06-25T12:53:57Z</time>
      </trkpt>
      <trkpt lat="45.45203" lon="5.92434">
        <ele>1811.53</ele>
        <time>2017-06-25T12:54:30Z</time>
      </trkpt>
      <trkpt lat="45.45219" lon="5.9242">
        <ele>1807.59</ele>
        <time>2017-06-25T12:54:58Z</time>
      </trkpt>
      <trkpt lat="45.45236" lon="5.92411">
        <ele>1809.67</ele>
        <time>2017-06-25T12:55:21Z</time>
      </trkpt>
      <trkpt lat="45.45252" lon="5.92398">
        <ele>1810.9</ele>
        <time>2017-06-25T12:55:48Z</time>
      </trkpt>
      <trkpt lat="45.4527" lon="5.92391">
        <ele>1811.79</ele>
        <time>2017-06-25T12:56:17Z</time>
      </trkpt>
      <trkpt lat="45.45286" lon="5.9238">
        <ele>1812.58</ele>
        <time>2017-06-25T12:56:45Z</time>
      </trkpt>
      <trkpt lat="45.45304" lon="5.9237">
        <ele>1818.78</ele>
        <time>2017-06-25T12:57:25Z</time>
      </trkpt>
      <trkpt lat="45.45322" lon="5.92369">
        <ele>1822.58</ele>
        <time>2017-06-25T12:57:55Z</time>
      </trkpt>
      <trkpt lat="45.4534" lon="5.92366">
        <ele>1818.86</ele>
        <time>2017-06-25T12:59:10Z</time>
      </trkpt>
      <trkpt lat="45.45359" lon="5.92368">
        <ele>1817.61</ele>
        <time>2017-06-25T12:59:36Z</time>
      </trkpt>
      <trkpt lat="45.45377" lon="5.92371">
        <ele>1820.85</ele>
        <time>2017-06-25T13:00:02Z</time>
      </trkpt>
      <trkpt lat="45.45395" lon="5.92367">
        <ele>1815.88</ele>
        <time>2017-06-25T13:06:03Z</time>
      </trkpt>
      <trkpt lat="45.45413" lon="5.9236">
        <ele>1819.88</ele>
        <time>2017-06-25T13:06:24Z</time>
      </trkpt>
      <trkpt lat="45.45428" lon="5.92345">
        <ele>1823.57</ele>
        <time>2017-06-25T13:06:48Z</time>
      </trkpt>
      <trkpt lat="45.45443" lon="5.9233">
        <ele>1828.88</ele>
        <time>2017-06-25T13:07:12Z</time>
      </trkpt>
      <trkpt lat="45.45458" lon="5.92314">
        <ele>1833.96</ele>
        <time>2017-06-25T13:07:48Z</time>
      </trkpt>
      <trkpt lat="45.45476" lon="5.92312">
        <ele>1837.88</ele>
        <time>2017-06-25T13:08:14Z</time>
      </trkpt>
      <trkpt lat="45.45494" lon="5.92316">
        <ele>1838.91</ele>
        <time>2017-06-25T13:08:52Z</time>
      </trkpt>
      <trkpt lat="45.45508" lon="5.92333">
        <ele>1839.8</ele>
        <time>2017-06-25T13:09:22Z</time>
      </trkpt>
      <trkpt lat="45.45525" lon="5.92344">
        <ele>1840.88</ele>
        <time>2017-06-25T13:09:46Z</time>
      </trkpt>
      <trkpt lat="45.45542" lon="5.92353">
        <ele>1840.88</ele>
        <time>2017-06-25T13:10:07Z</time>
      </trkpt>
      <trkpt lat="45.4556" lon="5.92362">
        <ele>1840.88</ele>
        <time>2017-06-25T13:10:32Z</time>
      </trkpt>
      <trkpt lat="45.45577" lon="5.92374">
        <ele>1840.79</ele>
        <time>2017-06-25T13:10:55Z</time>
      </trkpt>
      <trkpt lat="45.45595" lon="5.92371">
        <ele>1846.58</ele>
        <time>2017-06-25T13:11:28Z</time>
      </trkpt>
      <trkpt lat="45.45614" lon="5.92375">
        <ele>1848.88</ele>
        <time>2017-06-25T13:11:59Z</time>
      </trkpt>
      <trkpt lat="45.45631" lon="5.92384">
        <ele>1852.88</ele>
        <time>2017-06-25T13:12:34Z</time>
      </trkpt>
      <trkpt lat="45.4565" lon="5.92386">
        <ele>1853.88</ele>
        <time>2017-06-25T13:12:54Z</time>
      </trkpt>
      <trkpt lat="45.45668" lon="5.92386">
        <ele>1854.88</ele>
        <time>2017-06-25T13:13:16Z</time>
      </trkpt>
      <trkpt lat="45.45685" lon="5.92376">
        <ele>1860.85</ele>
        <time>2017-06-25T13:13:51Z</time>
      </trkpt>
      <trkpt lat="45.45703" lon="5.92367">
        <ele>1869.58</ele>
        <time>2017-06-25T13:14:21Z</time>
      </trkpt>
      <trkpt lat="45.45719" lon="5.92357">
        <ele>1873.9</ele>
        <time>2017-06-25T13:15:10Z</time>
      </trkpt>
      <trkpt lat="45.45738" lon="5.92358">
        <ele>1878.76</ele>
        <time>2017-06-25T13:15:56Z</time>
      </trkpt>
      <trkpt lat="45.45755" lon="5.92351">
        <ele>1882.88</ele>
        <time>2017-06-25T13:16:36Z</time>
      </trkpt>
      <trkpt lat="45.45773" lon="5.92357">
        <ele>1881.9</ele>
        <time>2017-06-25T13:17:04Z</time>
      </trkpt>
      <trkpt lat="45.45791" lon="5.92358">
        <ele>1880.86</ele>
        <time>2017-06-25T13:17:25Z</time>
      </trkpt>
      <trkpt lat="45.45808" lon="5.92369">
        <ele>1881.88</ele>
        <time>2017-06-25T13:17:46Z</time>
      </trkpt>
      <trkpt lat="45.45821" lon="5.92387">
        <ele>1880.97</ele>
        <time>2017-06-25T13:18:05Z</time>
      </trkpt>
      <trkpt lat="45.45837" lon="5.92402">
        <ele>1879.89</ele>
        <time>2017-06-25T13:18:21Z</time>
      </trkpt>
      <trkpt lat="45.45853" lon="5.92412">
        <ele>1879.58</ele>
        <time>2017-06-25T13:18:37Z</time>
      </trkpt>
      <trkpt lat="45.4587" lon="5.92423">
        <ele>1880.88</ele>
        <time>2017-06-25T13:18:55Z</time>
      </trkpt>
      <trkpt lat="45.45887" lon="5.92433">
        <ele>1885.79</ele>
        <time>2017-06-25T13:19:22Z</time>
      </trkpt>
      <trkpt lat="45.45905" lon="5.92437">
        <ele>1888.93</ele>
        <time>2017-06-25T13:19:53Z</time>
      </trkpt>
      <trkpt lat="45.4592" lon="5.92451">
        <ele>1890.58</ele>
        <time>2017-06-25T13:20:49Z</time>
      </trkpt>
      <trkpt lat="45.45937" lon="5.92461">
        <ele>1895.79</ele>
        <time>2017-06-25T13:21:12Z</time>
      </trkpt>
      <trkpt lat="45.45954" lon="5.92472">
        <ele>1893.18</ele>
        <time>2017-06-25T13:21:35Z</time>
      </trkpt>
      <trkpt lat="45.45973" lon="5.92472">
        <ele>1892.18</ele>
        <time>2017-06-25T13:22:05Z</time>
      </trkpt>
      <trkpt lat="45.45992" lon="5.92472">
        <ele>1892.15</ele>
        <time>2017-06-25T13:22:22Z</time>
      </trkpt>
      <trkpt lat="45.4601" lon="5.92471">
        <ele>1892.18</ele>
        <time>2017-06-25T13:23:05Z</time>
      </trkpt>
      <trkpt lat="45.46029" lon="5.92476">
        <ele>1891.67</ele>
        <time>2017-06-25T13:23:21Z</time>
      </trkpt>
      <trkpt lat="45.46042" lon="5.92496">
        <ele>1892.27</ele>
        <time>2017-06-25T13:23:48Z</time>
      </trkpt>
      <trkpt lat="45.4606" lon="5.92504">
        <ele>1893.09</ele>
        <time>2017-06-25T13:24:09Z</time>
      </trkpt>
      <trkpt lat="45.46077" lon="5.92494">
        <ele>1890.18</ele>
        <time>2017-06-25T13:24:35Z</time>
      </trkpt>
      <trkpt lat="45.46089" lon="5.92473">
        <ele>1887.87</ele>
        <time>2017-06-25T13:24:55Z</time>
      </trkpt>
      <trkpt lat="45.46105" lon="5.92461">
        <ele>1892.79</ele>
        <time>2017-06-25T13:25:15Z</time>
      </trkpt>
      <trkpt lat="45.46123" lon="5.92457">
        <ele>1895.09</ele>
        <time>2017-06-25T13:25:33Z</time>
      </trkpt>
      <trkpt lat="45.4614" lon="5.92463">
        <ele>1898.55</ele>
        <time>2017-06-25T13:25:50Z</time>
      </trkpt>
      <trkpt lat="45.46158" lon="5.92471">
        <ele>1898.87</ele>
        <time>2017-06-25T13:26:08Z</time>
      </trkpt>
      <trkpt lat="45.46176" lon="5.92475">
        <ele>1897.9</ele>
        <time>2017-06-25T13:26:25Z</time>
      </trkpt>
      <trkpt lat="45.46195" lon="5.92476">
        <ele>1895.88</ele>
        <time>2017-06-25T13:26:41Z</time>
      </trkpt>
      <trkpt lat="45.46213" lon="5.92481">
        <ele>1893.8</ele>
        <time>2017-06-25T13:26:57Z</time>
      </trkpt>
      <trkpt lat="45.46231" lon="5.92481">
        <ele>1890.97</ele>
        <time>2017-06-25T13:27:13Z</time>
      </trkpt>
      <trkpt lat="45.4625" lon="5.92485">
        <ele>1894.78</ele>
        <time>2017-06-25T13:27:28Z</time>
      </trkpt>
      <trkpt lat="45.46267" lon="5.92493">
        <ele>1894.81</ele>
        <time>2017-06-25T13:27:42Z</time>
      </trkpt>
      <trkpt lat="45.46285" lon="5.92503">
        <ele>1897.08</ele>
        <time>2017-06-25T13:27:57Z</time>
      </trkpt>
      <trkpt lat="45.46302" lon="5.92513">
        <ele>1897.89</ele>
        <time>2017-06-25T13:28:12Z</time>
      </trkpt>
      <trkpt lat="45.46321" lon="5.92519">
        <ele>1896.55</ele>
        <time>2017-06-25T13:28:27Z</time>
      </trkpt>
      <trkpt lat="45.46338" lon="5.92528">
        <ele>1900.65</ele>
        <time>2017-06-25T13:28:43Z</time>
      </trkpt>
      <trkpt lat="45.46353" lon="5.92544">
        <ele>1902.88</ele>
        <time>2017-06-25T13:29:02Z</time>
      </trkpt>
      <trkpt lat="45.46364" lon="5.92566">
        <ele>1904.95</ele>
        <time>2017-06-25T13:29:20Z</time>
      </trkpt>
      <trkpt lat="45.46382" lon="5.92571">
        <ele>1906.87</ele>
        <time>2017-06-25T13:29:39Z</time>
      </trkpt>
      <trkpt lat="45.464" lon="5.92569">
        <ele>1911.79</ele>
        <time>2017-06-25T13:30:26Z</time>
      </trkpt>
      <trkpt lat="45.4641" lon="5.92547">
        <ele>1920.86</ele>
        <time>2017-06-25T13:31:07Z</time>
      </trkpt>
      <trkpt lat="45.46428" lon="5.92541">
        <ele>1926.58</ele>
        <time>2017-06-25T13:31:35Z</time>
      </trkpt>
      <trkpt lat="45.46445" lon="5.92532">
        <ele>1930.57</ele>
        <time>2017-06-25T13:31:58Z</time>
      </trkpt>
      <trkpt lat="45.46461" lon="5.92518">
        <ele>1932.18</ele>
        <time>2017-06-25T13:32:23Z</time>
      </trkpt>
      <trkpt lat="45.46479" lon="5.92509">
        <ele>1933.89</ele>
        <time>2017-06-25T13:33:24Z</time>
      </trkpt>
      <trkpt lat="45.46497" lon="5.92505">
        <ele>1932.15</ele>
        <time>2017-06-25T13:35:55Z</time>
      </trkpt>
      <trkpt lat="45.46516" lon="5.92505">
        <ele>1925.21</ele>
        <time>2017-06-25T13:36:22Z</time>
      </trkpt>
      <trkpt lat="45.46535" lon="5.92504">
        <ele>1922.88</ele>
        <time>2017-06-25T13:36:51Z</time>
      </trkpt>
      <trkpt lat="45.46553" lon="5.92509">
        <ele>1922.88</ele>
        <time>2017-06-25T13:37:07Z</time>
      </trkpt>
      <trkpt lat="45.46572" lon="5.92509">
        <ele>1919.19</ele>
        <time>2017-06-25T13:37:23Z</time>
      </trkpt>
      <trkpt lat="45.4659" lon="5.92515">
        <ele>1917.87</ele>
        <time>2017-06-25T13:37:43Z</time>
      </trkpt>
      <trkpt lat="45.46608" lon="5.92516">
        <ele>1914.88</ele>
        <time>2017-06-25T13:38:05Z</time>
      </trkpt>
      <trkpt lat="45.46626" lon="5.92515">
        <ele>1912.88</ele>
        <time>2017-06-25T13:38:25Z</time>
      </trkpt>
      <trkpt lat="45.46643" lon="5.92503">
        <ele>1907.15</ele>
        <time>2017-06-25T13:38:52Z</time>
      </trkpt>
      <trkpt lat="45.46662" lon="5.92503">
        <ele>1902.19</ele>
        <time>2017-06-25T13:39:10Z</time>
      </trkpt>
      <trkpt lat="45.4668" lon="5.92504">
        <ele>1903.93</ele>
        <time>2017-06-25T13:39:27Z</time>
      </trkpt>
      <trkpt lat="45.46699" lon="5.925">
        <ele>1903.83</ele>
        <time>2017-06-25T13:39:43Z</time>
      </trkpt>
      <trkpt lat="45.46716" lon="5.9249">
        <ele>1904.18</ele>
        <time>2017-06-25T13:40:00Z</time>
      </trkpt>
      <trkpt lat="45.46733" lon="5.92478">
        <ele>1900.86</ele>
        <time>2017-06-25T13:40:27Z</time>
      </trkpt>
      <trkpt lat="45.46745" lon="5.92457">
        <ele>1898</ele>
        <time>2017-06-25T13:40:46Z</time>
      </trkpt>
      <trkpt lat="45.46734" lon="5.92479">
        <ele>1895.67</ele>
        <time>2017-06-25T13:43:33Z</time>
      </trkpt>
      <trkpt lat="45.46718" lon="5.92489">
        <ele>1899.84</ele>
        <time>2017-06-25T13:43:50Z</time>
      </trkpt>
      <trkpt lat="45.467" lon="5.92496">
        <ele>1901.79</ele>
        <time>2017-06-25T13:44:14Z</time>
      </trkpt>
      <trkpt lat="45.46682" lon="5.92503">
        <ele>1899.81</ele>
        <time>2017-06-25T13:44:32Z</time>
      </trkpt>
      <trkpt lat="45.46663" lon="5.92503">
        <ele>1898.99</ele>
        <time>2017-06-25T13:44:49Z</time>
      </trkpt>
      <trkpt lat="45.46645" lon="5.925">
        <ele>1902.88</ele>
        <time>2017-06-25T13:45:10Z</time>
      </trkpt>
      <trkpt lat="45.4663" lon="5.92513">
        <ele>1909.88</ele>
        <time>2017-06-25T13:45:42Z</time>
      </trkpt>
      <trkpt lat="45.46611" lon="5.92514">
        <ele>1912.78</ele>
        <time>2017-06-25T13:46:04Z</time>
      </trkpt>
      <trkpt lat="45.46593" lon="5.92513">
        <ele>1915.85</ele>
        <time>2017-06-25T13:46:25Z</time>
      </trkpt>
      <trkpt lat="45.46575" lon="5.92511">
        <ele>1916.87</ele>
        <time>2017-06-25T13:46:46Z</time>
      </trkpt>
      <trkpt lat="45.46556" lon="5.9251">
        <ele>1917.91</ele>
        <time>2017-06-25T13:47:05Z</time>
      </trkpt>
      <trkpt lat="45.46537" lon="5.92505">
        <ele>1919.94</ele>
        <time>2017-06-25T13:47:23Z</time>
      </trkpt>
      <trkpt lat="45.46519" lon="5.92506">
        <ele>1924.81</ele>
        <time>2017-06-25T13:47:47Z</time>
      </trkpt>
      <trkpt lat="45.46501" lon="5.92498">
        <ele>1928.55</ele>
        <time>2017-06-25T13:48:13Z</time>
      </trkpt>
      <trkpt lat="45.46484" lon="5.92507">
        <ele>1931.88</ele>
        <time>2017-06-25T13:48:33Z</time>
      </trkpt>
      <trkpt lat="45.46466" lon="5.92507">
        <ele>1933.88</ele>
        <time>2017-06-25T13:49:14Z</time>
      </trkpt>
      <trkpt lat="45.46456" lon="5.92528">
        <ele>1925.21</ele>
        <time>2017-06-25T13:52:07Z</time>
      </trkpt>
      <trkpt lat="45.46437" lon="5.92534">
        <ele>1922.26</ele>
        <time>2017-06-25T13:52:24Z</time>
      </trkpt>
      <trkpt lat="45.4642" lon="5.9254">
        <ele>1920.75</ele>
        <time>2017-06-25T13:52:42Z</time>
      </trkpt>
      <trkpt lat="45.46409" lon="5.92561">
        <ele>1914.86</ele>
        <time>2017-06-25T13:53:07Z</time>
      </trkpt>
      <trkpt lat="45.46392" lon="5.92569">
        <ele>1908.94</ele>
        <time>2017-06-25T13:53:35Z</time>
      </trkpt>
      <trkpt lat="45.46374" lon="5.92572">
        <ele>1902.11</ele>
        <time>2017-06-25T13:54:02Z</time>
      </trkpt>
      <trkpt lat="45.46361" lon="5.92554">
        <ele>1896.93</ele>
        <time>2017-06-25T13:54:19Z</time>
      </trkpt>
      <trkpt lat="45.46346" lon="5.92538">
        <ele>1895.65</ele>
        <time>2017-06-25T13:54:34Z</time>
      </trkpt>
      <trkpt lat="45.46331" lon="5.92524">
        <ele>1893.51</ele>
        <time>2017-06-25T13:54:48Z</time>
      </trkpt>
      <trkpt lat="45.46313" lon="5.92514">
        <ele>1892.88</ele>
        <time>2017-06-25T13:55:03Z</time>
      </trkpt>
      <trkpt lat="45.46295" lon="5.92507">
        <ele>1892.88</ele>
        <time>2017-06-25T13:55:18Z</time>
      </trkpt>
      <trkpt lat="45.46277" lon="5.92497">
        <ele>1892</ele>
        <time>2017-06-25T13:55:33Z</time>
      </trkpt>
      <trkpt lat="45.4626" lon="5.9249">
        <ele>1892.17</ele>
        <time>2017-06-25T13:55:45Z</time>
      </trkpt>
      <trkpt lat="45.46242" lon="5.92484">
        <ele>1890.77</ele>
        <time>2017-06-25T13:56:02Z</time>
      </trkpt>
      <trkpt lat="45.46223" lon="5.92481">
        <ele>1891.09</ele>
        <time>2017-06-25T13:56:15Z</time>
      </trkpt>
      <trkpt lat="45.46205" lon="5.92479">
        <ele>1891.01</ele>
        <time>2017-06-25T13:56:30Z</time>
      </trkpt>
      <trkpt lat="45.46187" lon="5.92474">
        <ele>1892.79</ele>
        <time>2017-06-25T13:56:48Z</time>
      </trkpt>
      <trkpt lat="45.46169" lon="5.92473">
        <ele>1894.19</ele>
        <time>2017-06-25T13:57:03Z</time>
      </trkpt>
      <trkpt lat="45.46151" lon="5.92467">
        <ele>1893.18</ele>
        <time>2017-06-25T13:57:19Z</time>
      </trkpt>
      <trkpt lat="45.46133" lon="5.9246">
        <ele>1891.88</ele>
        <time>2017-06-25T13:57:34Z</time>
      </trkpt>
      <trkpt lat="45.46115" lon="5.92454">
        <ele>1892.46</ele>
        <time>2017-06-25T13:57:50Z</time>
      </trkpt>
      <trkpt lat="45.46097" lon="5.92446">
        <ele>1896.46</ele>
        <time>2017-06-25T13:58:08Z</time>
      </trkpt>
      <trkpt lat="45.4608" lon="5.92437">
        <ele>1896.57</ele>
        <time>2017-06-25T13:58:33Z</time>
      </trkpt>
      <trkpt lat="45.46062" lon="5.92435">
        <ele>1897.88</ele>
        <time>2017-06-25T13:58:58Z</time>
      </trkpt>
      <trkpt lat="45.46043" lon="5.92438">
        <ele>1893.92</ele>
        <time>2017-06-25T13:59:17Z</time>
      </trkpt>
      <trkpt lat="45.46026" lon="5.92444">
        <ele>1892.91</ele>
        <time>2017-06-25T13:59:37Z</time>
      </trkpt>
      <trkpt lat="45.46012" lon="5.92427">
        <ele>1890.3</ele>
        <time>2017-06-25T14:01:07Z</time>
      </trkpt>
      <trkpt lat="45.45994" lon="5.92427">
        <ele>1879.13</ele>
        <time>2017-06-25T14:02:39Z</time>
      </trkpt>
      <trkpt lat="45.45976" lon="5.92435">
        <ele>1878.89</ele>
        <time>2017-06-25T14:02:59Z</time>
      </trkpt>
      <trkpt lat="45.45958" lon="5.92431">
        <ele>1878.72</ele>
        <time>2017-06-25T14:03:19Z</time>
      </trkpt>
      <trkpt lat="45.45939" lon="5.92426">
        <ele>1875</ele>
        <time>2017-06-25T14:03:47Z</time>
      </trkpt>
      <trkpt lat="45.4592" lon="5.92425">
        <ele>1867.54</ele>
        <time>2017-06-25T14:04:40Z</time>
      </trkpt>
      <trkpt lat="45.45905" lon="5.9241">
        <ele>1869.49</ele>
        <time>2017-06-25T14:05:07Z</time>
      </trkpt>
      <trkpt lat="45.45918" lon="5.92427">
        <ele>1864.67</ele>
        <time>2017-06-25T14:06:15Z</time>
      </trkpt>
      <trkpt lat="45.45907" lon="5.92407">
        <ele>1876.26</ele>
        <time>2017-06-25T14:08:54Z</time>
      </trkpt>
      <trkpt lat="45.45898" lon="5.92384">
        <ele>1857.42</ele>
        <time>2017-06-25T14:12:39Z</time>
      </trkpt>
      <trkpt lat="45.45916" lon="5.92388">
        <ele>1835.07</ele>
        <time>2017-06-25T14:13:36Z</time>
      </trkpt>
      <trkpt lat="45.45932" lon="5.92374">
        <ele>1829.26</ele>
        <time>2017-06-25T14:14:35Z</time>
      </trkpt>
      <trkpt lat="45.4595" lon="5.92365">
        <ele>1832.8</ele>
        <time>2017-06-25T14:14:48Z</time>
      </trkpt>
      <trkpt lat="45.45968" lon="5.92363">
        <ele>1824.29</ele>
        <time>2017-06-25T14:15:05Z</time>
      </trkpt>
      <trkpt lat="45.45987" lon="5.92364">
        <ele>1819.19</ele>
        <time>2017-06-25T14:15:57Z</time>
      </trkpt>
      <trkpt lat="45.46" lon="5.92347">
        <ele>1816</ele>
        <time>2017-06-25T14:16:29Z</time>
      </trkpt>
      <trkpt lat="45.46019" lon="5.92346">
        <ele>1803.13</ele>
        <time>2017-06-25T14:16:48Z</time>
      </trkpt>
      <trkpt lat="45.46038" lon="5.92351">
        <ele>1804.17</ele>
        <time>2017-06-25T14:17:14Z</time>
      </trkpt>
      <trkpt lat="45.46056" lon="5.92347">
        <ele>1804.48</ele>
        <time>2017-06-25T14:17:32Z</time>
      </trkpt>
      <trkpt lat="45.46074" lon="5.9235">
        <ele>1797.91</ele>
        <time>2017-06-25T14:17:46Z</time>
      </trkpt>
      <trkpt lat="45.46093" lon="5.92348">
        <ele>1798.78</ele>
        <time>2017-06-25T14:18:27Z</time>
      </trkpt>
      <trkpt lat="45.4611" lon="5.92356">
        <ele>1798.15</ele>
        <time>2017-06-25T14:19:07Z</time>
      </trkpt>
      <trkpt lat="45.46115" lon="5.92331">
        <ele>1775.85</ele>
        <time>2017-06-25T14:21:00Z</time>
      </trkpt>
      <trkpt lat="45.46112" lon="5.92306">
        <ele>1776.58</ele>
        <time>2017-06-25T14:22:12Z</time>
      </trkpt>
      <trkpt lat="45.46121" lon="5.92283">
        <ele>1764.61</ele>
        <time>2017-06-25T14:24:09Z</time>
      </trkpt>
      <trkpt lat="45.46124" lon="5.92258">
        <ele>1737.88</ele>
        <time>2017-06-25T14:26:43Z</time>
      </trkpt>
      <trkpt lat="45.46127" lon="5.92233">
        <ele>1729.83</ele>
        <time>2017-06-25T14:27:46Z</time>
      </trkpt>
      <trkpt lat="45.46121" lon="5.92208">
        <ele>1718.97</ele>
        <time>2017-06-25T14:28:54Z</time>
      </trkpt>
      <trkpt lat="45.46126" lon="5.92183">
        <ele>1707.27</ele>
        <time>2017-06-25T14:30:23Z</time>
      </trkpt>
      <trkpt lat="45.4611" lon="5.9217">
        <ele>1695.21</ele>
        <time>2017-06-25T14:31:01Z</time>
      </trkpt>
      <trkpt lat="45.46095" lon="5.92156">
        <ele>1681.98</ele>
        <time>2017-06-25T14:31:37Z</time>
      </trkpt>
      <trkpt lat="45.46082" lon="5.92137">
        <ele>1671.89</ele>
        <time>2017-06-25T14:32:52Z</time>
      </trkpt>
      <trkpt lat="45.4608" lon="5.92112">
        <ele>1658.19</ele>
        <time>2017-06-25T14:34:25Z</time>
      </trkpt>
      <trkpt lat="45.4607" lon="5.9209">
        <ele>1646.03</ele>
        <time>2017-06-25T14:34:58Z</time>
      </trkpt>
      <trkpt lat="45.46075" lon="5.92065">
        <ele>1637.21</ele>
        <time>2017-06-25T14:35:40Z</time>
      </trkpt>
      <trkpt lat="45.46073" lon="5.92038">
        <ele>1625.21</ele>
        <time>2017-06-25T14:36:26Z</time>
      </trkpt>
      <trkpt lat="45.46073" lon="5.92012">
        <ele>1613.1</ele>
        <time>2017-06-25T14:37:22Z</time>
      </trkpt>
      <trkpt lat="45.46078" lon="5.91987">
        <ele>1601.28</ele>
        <time>2017-06-25T14:38:11Z</time>
      </trkpt>
      <trkpt lat="45.46088" lon="5.91965">
        <ele>1595.81</ele>
        <time>2017-06-25T14:38:44Z</time>
      </trkpt>
      <trkpt lat="45.46105" lon="5.91955">
        <ele>1584.28</ele>
        <time>2017-06-25T14:39:20Z</time>
      </trkpt>
      <trkpt lat="45.46121" lon="5.91941">
        <ele>1583.55</ele>
        <time>2017-06-25T14:39:38Z</time>
      </trkpt>
      <trkpt lat="45.46134" lon="5.91923">
        <ele>1580.77</ele>
        <time>2017-06-25T14:40:14Z</time>
      </trkpt>
      <trkpt lat="45.46132" lon="5.91898">
        <ele>1567.9</ele>
        <time>2017-06-25T14:41:02Z</time>
      </trkpt>
      <trkpt lat="45.46124" lon="5.91874">
        <ele>1557.23</ele>
        <time>2017-06-25T14:41:25Z</time>
      </trkpt>
      <trkpt lat="45.46116" lon="5.9185">
        <ele>1544.88</ele>
        <time>2017-06-25T14:42:05Z</time>
      </trkpt>
      <trkpt lat="45.46117" lon="5.91822">
        <ele>1536.2</ele>
        <time>2017-06-25T14:42:55Z</time>
      </trkpt>
      <trkpt lat="45.4611" lon="5.91797">
        <ele>1521.54</ele>
        <time>2017-06-25T14:43:30Z</time>
      </trkpt>
      <trkpt lat="45.461" lon="5.91776">
        <ele>1510.98</ele>
        <time>2017-06-25T14:44:08Z</time>
      </trkpt>
      <trkpt lat="45.46094" lon="5.9175">
        <ele>1509.1</ele>
        <time>2017-06-25T14:44:47Z</time>
      </trkpt>
      <trkpt lat="45.46088" lon="5.91726">
        <ele>1495.19</ele>
        <time>2017-06-25T14:45:35Z</time>
      </trkpt>
      <trkpt lat="45.46084" lon="5.917">
        <ele>1484.54</ele>
        <time>2017-06-25T14:46:09Z</time>
      </trkpt>
      <trkpt lat="45.46078" lon="5.91675">
        <ele>1476.03</ele>
        <time>2017-06-25T14:46:50Z</time>
      </trkpt>
      <trkpt lat="45.46073" lon="5.9165">
        <ele>1466.63</ele>
        <time>2017-06-25T14:47:24Z</time>
      </trkpt>
      <trkpt lat="45.46066" lon="5.91626">
        <ele>1455.88</ele>
        <time>2017-06-25T14:48:21Z</time>
      </trkpt>
      <trkpt lat="45.46052" lon="5.91609">
        <ele>1448.88</ele>
        <time>2017-06-25T14:48:46Z</time>
      </trkpt>
      <trkpt lat="45.46038" lon="5.91593">
        <ele>1443.89</ele>
        <time>2017-06-25T14:49:05Z</time>
      </trkpt>
      <trkpt lat="45.46023" lon="5.91577">
        <ele>1441.88</ele>
        <time>2017-06-25T14:49:24Z</time>
      </trkpt>
      <trkpt lat="45.4601" lon="5.91559">
        <ele>1432.53</ele>
        <time>2017-06-25T14:49:46Z</time>
      </trkpt>
      <trkpt lat="45.46" lon="5.91536">
        <ele>1425.38</ele>
        <time>2017-06-25T14:50:04Z</time>
      </trkpt>
      <trkpt lat="45.45987" lon="5.91517">
        <ele>1418.89</ele>
        <time>2017-06-25T14:50:22Z</time>
      </trkpt>
      <trkpt lat="45.45977" lon="5.91496">
        <ele>1408.15</ele>
        <time>2017-06-25T14:50:53Z</time>
      </trkpt>
      <trkpt lat="45.45958" lon="5.91496">
        <ele>1403.86</ele>
        <time>2017-06-25T14:51:11Z</time>
      </trkpt>
      <trkpt lat="45.4594" lon="5.91491">
        <ele>1402.18</ele>
        <time>2017-06-25T14:51:31Z</time>
      </trkpt>
      <trkpt lat="45.45925" lon="5.91477">
        <ele>1399.68</ele>
        <time>2017-06-25T14:51:49Z</time>
      </trkpt>
      <trkpt lat="45.45916" lon="5.91453">
        <ele>1395.67</ele>
        <time>2017-06-25T14:52:13Z</time>
      </trkpt>
      <trkpt lat="45.45915" lon="5.91427">
        <ele>1388.99</ele>
        <time>2017-06-25T14:52:42Z</time>
      </trkpt>
      <trkpt lat="45.45915" lon="5.91401">
        <ele>1383.61</ele>
        <time>2017-06-25T14:53:07Z</time>
      </trkpt>
      <trkpt lat="45.45921" lon="5.91377">
        <ele>1376.21</ele>
        <time>2017-06-25T14:53:36Z</time>
      </trkpt>
      <trkpt lat="45.45917" lon="5.91352">
        <ele>1368.9</ele>
        <time>2017-06-25T14:54:01Z</time>
      </trkpt>
      <trkpt lat="45.45909" lon="5.91328">
        <ele>1359.79</ele>
        <time>2017-06-25T14:54:36Z</time>
      </trkpt>
      <trkpt lat="45.45925" lon="5.91315">
        <ele>1353.71</ele>
        <time>2017-06-25T14:55:00Z</time>
      </trkpt>
      <trkpt lat="45.45912" lon="5.91296">
        <ele>1344.88</ele>
        <time>2017-06-25T14:55:34Z</time>
      </trkpt>
      <trkpt lat="45.4592" lon="5.91273">
        <ele>1340.8</ele>
        <time>2017-06-25T14:56:18Z</time>
      </trkpt>
      <trkpt lat="45.45928" lon="5.91249">
        <ele>1331.58</ele>
        <time>2017-06-25T14:56:58Z</time>
      </trkpt>
      <trkpt lat="45.45942" lon="5.91232">
        <ele>1322.18</ele>
        <time>2017-06-25T14:57:25Z</time>
      </trkpt>
      <trkpt lat="45.4593" lon="5.91212">
        <ele>1317.79</ele>
        <time>2017-06-25T14:57:43Z</time>
      </trkpt>
      <trkpt lat="45.45941" lon="5.9119">
        <ele>1307.25</ele>
        <time>2017-06-25T14:58:11Z</time>
      </trkpt>
      <trkpt lat="45.45947" lon="5.91166">
        <ele>1300.33</ele>
        <time>2017-06-25T14:58:36Z</time>
      </trkpt>
      <trkpt lat="45.45948" lon="5.9114">
        <ele>1292.91</ele>
        <time>2017-06-25T14:59:07Z</time>
      </trkpt>
      <trkpt lat="45.45941" lon="5.91116">
        <ele>1291.87</ele>
        <time>2017-06-25T14:59:36Z</time>
      </trkpt>
      <trkpt lat="45.45949" lon="5.91092">
        <ele>1278.87</ele>
        <time>2017-06-25T15:00:04Z</time>
      </trkpt>
      <trkpt lat="45.45942" lon="5.91068">
        <ele>1274.95</ele>
        <time>2017-06-25T15:00:23Z</time>
      </trkpt>
      <trkpt lat="45.45951" lon="5.91045">
        <ele>1269.67</ele>
        <time>2017-06-25T15:00:53Z</time>
      </trkpt>
      <trkpt lat="45.45962" lon="5.91024">
        <ele>1265.91</ele>
        <time>2017-06-25T15:01:16Z</time>
      </trkpt>
      <trkpt lat="45.45951" lon="5.91003">
        <ele>1258.69</ele>
        <time>2017-06-25T15:01:33Z</time>
      </trkpt>
      <trkpt lat="45.45954" lon="5.90977">
        <ele>1253.28</ele>
        <time>2017-06-25T15:01:54Z</time>
      </trkpt>
      <trkpt lat="45.45951" lon="5.9095">
        <ele>1251.79</ele>
        <time>2017-06-25T15:02:14Z</time>
      </trkpt>
      <trkpt lat="45.45952" lon="5.90924">
        <ele>1247.87</ele>
        <time>2017-06-25T15:02:34Z</time>
      </trkpt>
      <trkpt lat="45.45962" lon="5.90902">
        <ele>1243.68</ele>
        <time>2017-06-25T15:02:54Z</time>
      </trkpt>
      <trkpt lat="45.45962" lon="5.90876">
        <ele>1239.22</ele>
        <time>2017-06-25T15:03:15Z</time>
      </trkpt>
      <trkpt lat="45.45954" lon="5.90852">
        <ele>1234.2</ele>
        <time>2017-06-25T15:03:33Z</time>
      </trkpt>
      <trkpt lat="45.45944" lon="5.90831">
        <ele>1224.99</ele>
        <time>2017-06-25T15:03:50Z</time>
      </trkpt>
      <trkpt lat="45.45936" lon="5.90808">
        <ele>1212.41</ele>
        <time>2017-06-25T15:04:21Z</time>
      </trkpt>
      <trkpt lat="45.45937" lon="5.90781">
        <ele>1206</ele>
        <time>2017-06-25T15:04:56Z</time>
      </trkpt>
      <trkpt lat="45.45949" lon="5.90763">
        <ele>1207.03</ele>
        <time>2017-06-25T15:05:26Z</time>
      </trkpt>
      <trkpt lat="45.45946" lon="5.90737">
        <ele>1201.08</ele>
        <time>2017-06-25T15:05:45Z</time>
      </trkpt>
      <trkpt lat="45.45941" lon="5.90712">
        <ele>1201.42</ele>
        <time>2017-06-25T15:05:59Z</time>
      </trkpt>
      <trkpt lat="45.45943" lon="5.90686">
        <ele>1195.91</ele>
        <time>2017-06-25T15:06:22Z</time>
      </trkpt>
      <trkpt lat="45.4595" lon="5.90662">
        <ele>1183.02</ele>
        <time>2017-06-25T15:07:08Z</time>
      </trkpt>
      <trkpt lat="45.45962" lon="5.90642">
        <ele>1179.18</ele>
        <time>2017-06-25T15:07:41Z</time>
      </trkpt>
      <trkpt lat="45.45971" lon="5.9062">
        <ele>1178.36</ele>
        <time>2017-06-25T15:07:58Z</time>
      </trkpt>
      <trkpt lat="45.45968" lon="5.90593">
        <ele>1168.23</ele>
        <time>2017-06-25T15:08:27Z</time>
      </trkpt>
      <trkpt lat="45.45958" lon="5.90572">
        <ele>1167.95</ele>
        <time>2017-06-25T15:08:42Z</time>
      </trkpt>
      <trkpt lat="45.45952" lon="5.90546">
        <ele>1163.42</ele>
        <time>2017-06-25T15:08:57Z</time>
      </trkpt>
      <trkpt lat="45.45968" lon="5.90531">
        <ele>1159.91</ele>
        <time>2017-06-25T15:09:18Z</time>
      </trkpt>
      <trkpt lat="45.45983" lon="5.90516">
        <ele>1153.62</ele>
        <time>2017-06-25T15:09:45Z</time>
      </trkpt>
      <trkpt lat="45.45981" lon="5.90489">
        <ele>1146.01</ele>
        <time>2017-06-25T15:10:05Z</time>
      </trkpt>
      <trkpt lat="45.45979" lon="5.90462">
        <ele>1140.91</ele>
        <time>2017-06-25T15:10:21Z</time>
      </trkpt>
      <trkpt lat="45.45993" lon="5.90443">
        <ele>1139.97</ele>
        <time>2017-06-25T15:10:38Z</time>
      </trkpt>
      <trkpt lat="45.46005" lon="5.90425">
        <ele>1133.82</ele>
        <time>2017-06-25T15:10:54Z</time>
      </trkpt>
      <trkpt lat="45.4602" lon="5.90408">
        <ele>1132.88</ele>
        <time>2017-06-25T15:11:13Z</time>
      </trkpt>
      <trkpt lat="45.46039" lon="5.90409">
        <ele>1130.75</ele>
        <time>2017-06-25T15:12:00Z</time>
      </trkpt>
      <trkpt lat="45.46052" lon="5.90427">
        <ele>1127.88</ele>
        <time>2017-06-25T15:12:15Z</time>
      </trkpt>
      <trkpt lat="45.46069" lon="5.90417">
        <ele>1128.83</ele>
        <time>2017-06-25T15:13:02Z</time>
      </trkpt>
      <trkpt lat="45.46078" lon="5.90395">
        <ele>1123.91</ele>
        <time>2017-06-25T15:13:39Z</time>
      </trkpt>
      <trkpt lat="45.46087" lon="5.90373">
        <ele>1110.8</ele>
        <time>2017-06-25T15:14:23Z</time>
      </trkpt>
      <trkpt lat="45.46101" lon="5.90355">
        <ele>1109.58</ele>
        <time>2017-06-25T15:14:58Z</time>
      </trkpt>
      <trkpt lat="45.46112" lon="5.90335">
        <ele>1100.17</ele>
        <time>2017-06-25T15:15:34Z</time>
      </trkpt>
      <trkpt lat="45.46122" lon="5.90313">
        <ele>1091</ele>
        <time>2017-06-25T15:16:11Z</time>
      </trkpt>
      <trkpt lat="45.46126" lon="5.90288">
        <ele>1090.78</ele>
        <time>2017-06-25T15:16:40Z</time>
      </trkpt>
      <trkpt lat="45.46125" lon="5.9026">
        <ele>1082.94</ele>
        <time>2017-06-25T15:17:08Z</time>
      </trkpt>
      <trkpt lat="45.46135" lon="5.90238">
        <ele>1067.21</ele>
        <time>2017-06-25T15:17:47Z</time>
      </trkpt>
      <trkpt lat="45.46151" lon="5.90226">
        <ele>1058.59</ele>
        <time>2017-06-25T15:18:18Z</time>
      </trkpt>
      <trkpt lat="45.46169" lon="5.90222">
        <ele>1057.8</ele>
        <time>2017-06-25T15:18:40Z</time>
      </trkpt>
      <trkpt lat="45.46187" lon="5.90232">
        <ele>1055.8</ele>
        <time>2017-06-25T15:18:57Z</time>
      </trkpt>
      <trkpt lat="45.46205" lon="5.90229">
        <ele>1057.86</ele>
        <time>2017-06-25T15:21:43Z</time>
      </trkpt>
      <trkpt lat="45.46215" lon="5.90208">
        <ele>1051.33</ele>
        <time>2017-06-25T15:22:06Z</time>
      </trkpt>
      <trkpt lat="45.46232" lon="5.90198">
        <ele>1040.92</ele>
        <time>2017-06-25T15:22:37Z</time>
      </trkpt>
      <trkpt lat="45.4625" lon="5.90194">
        <ele>1035.97</ele>
        <time>2017-06-25T15:22:55Z</time>
      </trkpt>
      <trkpt lat="45.46255" lon="5.90169">
        <ele>1031.89</ele>
        <time>2017-06-25T15:23:22Z</time>
      </trkpt>
      <trkpt lat="45.46262" lon="5.90145">
        <ele>1026.88</ele>
        <time>2017-06-25T15:23:43Z</time>
      </trkpt>
      <trkpt lat="45.46264" lon="5.90119">
        <ele>1022.18</ele>
        <time>2017-06-25T15:24:13Z</time>
      </trkpt>
      <trkpt lat="45.46257" lon="5.90094">
        <ele>1015.56</ele>
        <time>2017-06-25T15:24:29Z</time>
      </trkpt>
      <trkpt lat="45.46257" lon="5.90068">
        <ele>1011.27</ele>
        <time>2017-06-25T15:24:48Z</time>
      </trkpt>
      <trkpt lat="45.46259" lon="5.90041">
        <ele>1009.88</ele>
        <time>2017-06-25T15:25:23Z</time>
      </trkpt>
      <trkpt lat="45.46258" lon="5.90014">
        <ele>1004.57</ele>
        <time>2017-06-25T15:25:37Z</time>
      </trkpt>
      <trkpt lat="45.46272" lon="5.89999">
        <ele>1003.15</ele>
        <time>2017-06-25T15:26:01Z</time>
      </trkpt>
      <trkpt lat="45.46289" lon="5.89987">
        <ele>1005.12</ele>
        <time>2017-06-25T15:26:34Z</time>
      </trkpt>
      <trkpt lat="45.46308" lon="5.89983">
        <ele>1006.94</ele>
        <time>2017-06-25T15:27:21Z</time>
      </trkpt>
      <trkpt lat="45.46323" lon="5.8997">
        <ele>1003.18</ele>
        <time>2017-06-25T15:28:12Z</time>
      </trkpt>
      <trkpt lat="45.46333" lon="5.89992">
        <ele>1002.25</ele>
        <time>2017-06-25T15:31:08Z</time>
      </trkpt>
      <trkpt lat="45.46328" lon="5.89966">
        <ele>987.71</ele>
        <time>2017-06-25T15:32:28Z</time>
      </trkpt>
      <trkpt lat="45.46324" lon="5.89941">
        <ele>990.88</ele>
        <time>2017-06-25T15:32:46Z</time>
      </trkpt>
      <trkpt lat="45.4631" lon="5.89924">
        <ele>989.79</ele>
        <time>2017-06-25T15:33:00Z</time>
      </trkpt>
      <trkpt lat="45.46328" lon="5.89917">
        <ele>988.67</ele>
        <time>2017-06-25T15:33:24Z</time>
      </trkpt>
      <trkpt lat="45.46344" lon="5.89929">
        <ele>992.6</ele>
        <time>2017-06-25T15:33:50Z</time>
      </trkpt>
      <trkpt lat="45.46355" lon="5.89951">
        <ele>988.18</ele>
        <time>2017-06-25T15:34:08Z</time>
      </trkpt>
      <trkpt lat="45.46371" lon="5.89964">
        <ele>987.97</ele>
        <time>2017-06-25T15:34:26Z</time>
      </trkpt>
      <trkpt lat="45.4639" lon="5.89965">
        <ele>990.9</ele>
        <time>2017-06-25T15:34:44Z</time>
      </trkpt>
      <trkpt lat="45.46407" lon="5.89955">
        <ele>992.63</ele>
        <time>2017-06-25T15:35:05Z</time>
      </trkpt>
      <trkpt lat="45.46426" lon="5.8996">
        <ele>993.36</ele>
        <time>2017-06-25T15:35:30Z</time>
      </trkpt>
      <trkpt lat="45.46443" lon="5.89972">
        <ele>990.85</ele>
        <time>2017-06-25T15:35:47Z</time>
      </trkpt>
      <trkpt lat="45.46462" lon="5.89976">
        <ele>990.03</ele>
        <time>2017-06-25T15:36:03Z</time>
      </trkpt>
      <trkpt lat="45.4648" lon="5.89984">
        <ele>996.79</ele>
        <time>2017-06-25T15:36:22Z</time>
      </trkpt>
      <trkpt lat="45.46498" lon="5.89985">
        <ele>1002.97</ele>
        <time>2017-06-25T15:36:51Z</time>
      </trkpt>
      <trkpt lat="45.46517" lon="5.89989">
        <ele>992.69</ele>
        <time>2017-06-25T15:37:08Z</time>
      </trkpt>
      <trkpt lat="45.46531" lon="5.90006">
        <ele>993.04</ele>
        <time>2017-06-25T15:37:25Z</time>
      </trkpt>
      <trkpt lat="45.46545" lon="5.90022">
        <ele>989.7</ele>
        <time>2017-06-25T15:37:50Z</time>
      </trkpt>
      <trkpt lat="45.46562" lon="5.90031">
        <ele>997.47</ele>
        <time>2017-06-25T15:38:07Z</time>
      </trkpt>
      <trkpt lat="45.4658" lon="5.90024">
        <ele>1002</ele>
        <time>2017-06-25T15:38:29Z</time>
      </trkpt>
      <trkpt lat="45.46594" lon="5.90007">
        <ele>1000.81</ele>
        <time>2017-06-25T15:38:40Z</time>
      </trkpt>
      <trkpt lat="45.4661" lon="5.89993">
        <ele>1003.58</ele>
        <time>2017-06-25T15:40:49Z</time>
      </trkpt>
      <trkpt lat="45.46629" lon="5.89989">
        <ele>1004.19</ele>
        <time>2017-06-25T15:41:11Z</time>
      </trkpt>
      <trkpt lat="45.46647" lon="5.89993">
        <ele>1013.88</ele>
        <time>2017-06-25T15:41:28Z</time>
      </trkpt>
      <trkpt lat="45.46664" lon="5.90004">
        <ele>1013.79</ele>
        <time>2017-06-25T15:41:46Z</time>
      </trkpt>
      <trkpt lat="45.4668" lon="5.90014">
        <ele>1017.32</ele>
        <time>2017-06-25T15:42:00Z</time>
      </trkpt>
      <trkpt lat="45.46698" lon="5.90019">
        <ele>1018.19</ele>
        <time>2017-06-25T15:42:16Z</time>
      </trkpt>
      <trkpt lat="45.46715" lon="5.90029">
        <ele>1017.57</ele>
        <time>2017-06-25T15:42:34Z</time>
      </trkpt>
      <trkpt lat="45.46732" lon="5.9004">
        <ele>1014.18</ele>
        <time>2017-06-25T15:42:53Z</time>
      </trkpt>
      <trkpt lat="45.4675" lon="5.9005">
        <ele>1014.6</ele>
        <time>2017-06-25T15:43:08Z</time>
      </trkpt>
      <trkpt lat="45.46762" lon="5.90068">
        <ele>1017.63</ele>
        <time>2017-06-25T15:43:24Z</time>
      </trkpt>
      <trkpt lat="45.46773" lon="5.9009">
        <ele>1019.37</ele>
        <time>2017-06-25T15:43:39Z</time>
      </trkpt>
      <trkpt lat="45.46785" lon="5.90109">
        <ele>1020</ele>
        <time>2017-06-25T15:43:54Z</time>
      </trkpt>
      <trkpt lat="45.46798" lon="5.90126">
        <ele>1025.24</ele>
        <time>2017-06-25T15:44:10Z</time>
      </trkpt>
      <trkpt lat="45.46813" lon="5.90142">
        <ele>1031.96</ele>
        <time>2017-06-25T15:44:26Z</time>
      </trkpt>
      <trkpt lat="45.46826" lon="5.90162">
        <ele>1041.03</ele>
        <time>2017-06-25T15:44:48Z</time>
      </trkpt>
      <trkpt lat="45.46837" lon="5.90182">
        <ele>1040.66</ele>
        <time>2017-06-25T15:46:30Z</time>
      </trkpt>
      <trkpt lat="45.46851" lon="5.90198">
        <ele>1028.88</ele>
        <time>2017-06-25T15:46:58Z</time>
      </trkpt>
      <trkpt lat="45.46869" lon="5.90191">
        <ele>1034.24</ele>
        <time>2017-06-25T15:52:42Z</time>
      </trkpt>
      <trkpt lat="45.46884" lon="5.90206">
        <ele>1034.11</ele>
        <time>2017-06-25T15:52:58Z</time>
      </trkpt>
      <trkpt lat="45.46899" lon="5.90223">
        <ele>1034.3</ele>
        <time>2017-06-25T15:53:14Z</time>
      </trkpt>
      <trkpt lat="45.46916" lon="5.90235">
        <ele>1033.85</ele>
        <time>2017-06-25T15:53:33Z</time>
      </trkpt>
      <trkpt lat="45.4693" lon="5.90253">
        <ele>1037.09</ele>
        <time>2017-06-25T15:53:53Z</time>
      </trkpt>
      <trkpt lat="45.46946" lon="5.90265">
        <ele>1033.9</ele>
        <time>2017-06-25T15:54:10Z</time>
      </trkpt>
      <trkpt lat="45.46962" lon="5.9028">
        <ele>1036.51</ele>
        <time>2017-06-25T15:54:26Z</time>
      </trkpt>
      <trkpt lat="45.46979" lon="5.90288">
        <ele>1041.08</ele>
        <time>2017-06-25T15:54:44Z</time>
      </trkpt>
      <trkpt lat="45.46997" lon="5.90296">
        <ele>1041.15</ele>
        <time>2017-06-25T15:55:02Z</time>
      </trkpt>
      <trkpt lat="45.47016" lon="5.90298">
        <ele>1044.86</ele>
        <time>2017-06-25T15:55:17Z</time>
      </trkpt>
      <trkpt lat="45.47034" lon="5.90301">
        <ele>1043.56</ele>
        <time>2017-06-25T15:55:33Z</time>
      </trkpt>
      <trkpt lat="45.47049" lon="5.90318">
        <ele>1047.87</ele>
        <time>2017-06-25T15:55:51Z</time>
      </trkpt>
      <trkpt lat="45.47056" lon="5.90343">
        <ele>1052.98</ele>
        <time>2017-06-25T15:56:05Z</time>
      </trkpt>
      <trkpt lat="45.47064" lon="5.90366">
        <ele>1048.92</ele>
        <time>2017-06-25T15:56:24Z</time>
      </trkpt>
      <trkpt lat="45.47072" lon="5.9039">
        <ele>1052.3</ele>
        <time>2017-06-25T15:56:45Z</time>
      </trkpt>
      <trkpt lat="45.4708" lon="5.90414">
        <ele>1052.97</ele>
        <time>2017-06-25T15:57:01Z</time>
      </trkpt>
      <trkpt lat="45.47092" lon="5.90435">
        <ele>1051.88</ele>
        <time>2017-06-25T15:57:16Z</time>
      </trkpt>
      <trkpt lat="45.47106" lon="5.90452">
        <ele>1052.85</ele>
        <time>2017-06-25T15:57:32Z</time>
      </trkpt>
      <trkpt lat="45.47121" lon="5.90469">
        <ele>1055.79</ele>
        <time>2017-06-25T15:57:48Z</time>
      </trkpt>
      <trkpt lat="45.47133" lon="5.90489">
        <ele>1052.91</ele>
        <time>2017-06-25T15:58:02Z</time>
      </trkpt>
      <trkpt lat="45.47148" lon="5.90505">
        <ele>1054.58</ele>
        <time>2017-06-25T15:58:17Z</time>
      </trkpt>
      <trkpt lat="45.47163" lon="5.9052">
        <ele>1056.92</ele>
        <time>2017-06-25T15:58:32Z</time>
      </trkpt>
      <trkpt lat="45.47178" lon="5.90535">
        <ele>1058.09</ele>
        <time>2017-06-25T15:58:46Z</time>
      </trkpt>
      <trkpt lat="45.47195" lon="5.90549">
        <ele>1056.97</ele>
        <time>2017-06-25T15:59:03Z</time>
      </trkpt>
      <trkpt lat="45.47202" lon="5.90573">
        <ele>1062.89</ele>
        <time>2017-06-25T15:59:13Z</time>
      </trkpt>
      <trkpt lat="45.4722" lon="5.90576">
        <ele>1057.94</ele>
        <time>2017-06-25T15:59:28Z</time>
      </trkpt>
      <trkpt lat="45.47238" lon="5.9057">
        <ele>1058.9</ele>
        <time>2017-06-25T15:59:39Z</time>
      </trkpt>
      <trkpt lat="45.47256" lon="5.90575">
        <ele>1061.17</ele>
        <time>2017-06-25T15:59:53Z</time>
      </trkpt>
      <trkpt lat="45.47273" lon="5.90587">
        <ele>1057.61</ele>
        <time>2017-06-25T16:00:08Z</time>
      </trkpt>
      <trkpt lat="45.47288" lon="5.90603">
        <ele>1054.82</ele>
        <time>2017-06-25T16:00:32Z</time>
      </trkpt>
      <trkpt lat="45.47298" lon="5.90625">
        <ele>1060.72</ele>
        <time>2017-06-25T16:00:46Z</time>
      </trkpt>
      <trkpt lat="45.47315" lon="5.90637">
        <ele>1062.88</ele>
        <time>2017-06-25T16:01:01Z</time>
      </trkpt>
      <trkpt lat="45.47331" lon="5.90651">
        <ele>1062.67</ele>
        <time>2017-06-25T16:01:15Z</time>
      </trkpt>
      <trkpt lat="45.47348" lon="5.90662">
        <ele>1062.09</ele>
        <time>2017-06-25T16:01:29Z</time>
      </trkpt>
      <trkpt lat="45.47366" lon="5.90672">
        <ele>1061.17</ele>
        <time>2017-06-25T16:01:45Z</time>
      </trkpt>
      <trkpt lat="45.47381" lon="5.90686">
        <ele>1059.86</ele>
        <time>2017-06-25T16:01:59Z</time>
      </trkpt>
      <trkpt lat="45.474" lon="5.90691">
        <ele>1067.14</ele>
        <time>2017-06-25T16:02:15Z</time>
      </trkpt>
      <trkpt lat="45.47416" lon="5.9068">
        <ele>1060.96</ele>
        <time>2017-06-25T16:02:30Z</time>
      </trkpt>
      <trkpt lat="45.47435" lon="5.90676">
        <ele>1061.02</ele>
        <time>2017-06-25T16:02:45Z</time>
      </trkpt>
      <trkpt lat="45.47453" lon="5.90664">
        <ele>1056.91</ele>
        <time>2017-06-25T16:02:57Z</time>
      </trkpt>
      <trkpt lat="45.47466" lon="5.90646">
        <ele>1054.89</ele>
        <time>2017-06-25T16:03:15Z</time>
      </trkpt>
      <trkpt lat="45.47479" lon="5.90626">
        <ele>1058.88</ele>
        <time>2017-06-25T16:03:31Z</time>
      </trkpt>
      <trkpt lat="45.47468" lon="5.90647">
        <ele>1064.98</ele>
        <time>2017-06-25T16:05:37Z</time>
      </trkpt>
      <trkpt lat="45.47451" lon="5.90658">
        <ele>1064.88</ele>
        <time>2017-06-25T16:05:52Z</time>
      </trkpt>
      <trkpt lat="45.47435" lon="5.9067">
        <ele>1061.95</ele>
        <time>2017-06-25T16:06:08Z</time>
      </trkpt>
      <trkpt lat="45.47416" lon="5.90672">
        <ele>1062.58</ele>
        <time>2017-06-25T16:06:23Z</time>
      </trkpt>
      <trkpt lat="45.47397" lon="5.90674">
        <ele>1063.59</ele>
        <time>2017-06-25T16:06:39Z</time>
      </trkpt>
      <trkpt lat="45.47379" lon="5.90669">
        <ele>1064.94</ele>
        <time>2017-06-25T16:06:57Z</time>
      </trkpt>
      <trkpt lat="45.47361" lon="5.90661">
        <ele>1065.17</ele>
        <time>2017-06-25T16:07:12Z</time>
      </trkpt>
      <trkpt lat="45.47345" lon="5.9065">
        <ele>1065.24</ele>
        <time>2017-06-25T16:07:29Z</time>
      </trkpt>
      <trkpt lat="45.47328" lon="5.90639">
        <ele>1065.27</ele>
        <time>2017-06-25T16:07:44Z</time>
      </trkpt>
      <trkpt lat="45.47311" lon="5.90626">
        <ele>1063.6</ele>
        <time>2017-06-25T16:08:00Z</time>
      </trkpt>
      <trkpt lat="45.47296" lon="5.9061">
        <ele>1064.49</ele>
        <time>2017-06-25T16:08:15Z</time>
      </trkpt>
      <trkpt lat="45.47281" lon="5.90595">
        <ele>1066.65</ele>
        <time>2017-06-25T16:08:29Z</time>
      </trkpt>
      <trkpt lat="45.47266" lon="5.90581">
        <ele>1065.18</ele>
        <time>2017-06-25T16:08:44Z</time>
      </trkpt>
      <trkpt lat="45.47248" lon="5.90569">
        <ele>1064.19</ele>
        <time>2017-06-25T16:09:01Z</time>
      </trkpt>
      <trkpt lat="45.4723" lon="5.90562">
        <ele>1061.9</ele>
        <time>2017-06-25T16:09:17Z</time>
      </trkpt>
      <trkpt lat="45.47213" lon="5.90555">
        <ele>1056.18</ele>
        <time>2017-06-25T16:09:29Z</time>
      </trkpt>
      <trkpt lat="45.47196" lon="5.90543">
        <ele>1056.17</ele>
        <time>2017-06-25T16:09:44Z</time>
      </trkpt>
      <trkpt lat="45.47182" lon="5.90525">
        <ele>1056.89</ele>
        <time>2017-06-25T16:10:00Z</time>
      </trkpt>
      <trkpt lat="45.47182" lon="5.90499">
        <ele>1055.87</ele>
        <time>2017-06-25T16:10:18Z</time>
      </trkpt>
      <trkpt lat="45.47181" lon="5.90473">
        <ele>1048.98</ele>
        <time>2017-06-25T16:10:35Z</time>
      </trkpt>
      <trkpt lat="45.47184" lon="5.90447">
        <ele>1047.57</ele>
        <time>2017-06-25T16:10:52Z</time>
      </trkpt>
      <trkpt lat="45.47191" lon="5.90422">
        <ele>1043.81</ele>
        <time>2017-06-25T16:11:10Z</time>
      </trkpt>
      <trkpt lat="45.47197" lon="5.90397">
        <ele>1039.87</ele>
        <time>2017-06-25T16:11:28Z</time>
      </trkpt>
      <trkpt lat="45.47205" lon="5.90373">
        <ele>1025.88</ele>
        <time>2017-06-25T16:12:07Z</time>
      </trkpt>
      <trkpt lat="45.47203" lon="5.90346">
        <ele>1033.55</ele>
        <time>2017-06-25T16:12:21Z</time>
      </trkpt>
      <trkpt lat="45.47197" lon="5.9032">
        <ele>1033.88</ele>
        <time>2017-06-25T16:12:36Z</time>
      </trkpt>
      <trkpt lat="45.4719" lon="5.90295">
        <ele>1032.94</ele>
        <time>2017-06-25T16:12:52Z</time>
      </trkpt>
      <trkpt lat="45.47185" lon="5.9027">
        <ele>1031.6</ele>
        <time>2017-06-25T16:13:09Z</time>
      </trkpt>
      <trkpt lat="45.47176" lon="5.90246">
        <ele>1029.99</ele>
        <time>2017-06-25T16:13:27Z</time>
      </trkpt>
      <trkpt lat="45.47162" lon="5.90229">
        <ele>1029.95</ele>
        <time>2017-06-25T16:13:43Z</time>
      </trkpt>
      <trkpt lat="45.47147" lon="5.90212">
        <ele>1026.59</ele>
        <time>2017-06-25T16:13:59Z</time>
      </trkpt>
      <trkpt lat="45.4713" lon="5.90202">
        <ele>1023.89</ele>
        <time>2017-06-25T16:14:16Z</time>
      </trkpt>
      <trkpt lat="45.47112" lon="5.90194">
        <ele>1017.27</ele>
        <time>2017-06-25T16:14:34Z</time>
      </trkpt>
      <trkpt lat="45.47094" lon="5.90191">
        <ele>1017.85</ele>
        <time>2017-06-25T16:14:51Z</time>
      </trkpt>
      <trkpt lat="45.47079" lon="5.90177">
        <ele>1017.88</ele>
        <time>2017-06-25T16:15:08Z</time>
      </trkpt>
      <trkpt lat="45.47066" lon="5.90159">
        <ele>1016.88</ele>
        <time>2017-06-25T16:15:24Z</time>
      </trkpt>
      <trkpt lat="45.47054" lon="5.90138">
        <ele>1013.89</ele>
        <time>2017-06-25T16:15:42Z</time>
      </trkpt>
      <trkpt lat="45.47047" lon="5.90114">
        <ele>1008.97</ele>
        <time>2017-06-25T16:16:03Z</time>
      </trkpt>
      <trkpt lat="45.4706" lon="5.90095">
        <ele>1005.9</ele>
        <time>2017-06-25T16:16:34Z</time>
      </trkpt>
      <trkpt lat="45.47078" lon="5.90087">
        <ele>1002.27</ele>
        <time>2017-06-25T16:16:50Z</time>
      </trkpt>
      <trkpt lat="45.47097" lon="5.90081">
        <ele>1001.17</ele>
        <time>2017-06-25T16:17:08Z</time>
      </trkpt>
      <trkpt lat="45.47114" lon="5.90074">
        <ele>1001.89</ele>
        <time>2017-06-25T16:17:26Z</time>
      </trkpt>
      <trkpt lat="45.47132" lon="5.90067">
        <ele>999.97</ele>
        <time>2017-06-25T16:17:45Z</time>
      </trkpt>
      <trkpt lat="45.4715" lon="5.9006">
        <ele>1000.79</ele>
        <time>2017-06-25T16:18:04Z</time>
      </trkpt>
      <trkpt lat="45.47167" lon="5.90052">
        <ele>1003.58</ele>
        <time>2017-06-25T16:18:27Z</time>
      </trkpt>
      <trkpt lat="45.47185" lon="5.90045">
        <ele>1003.88</ele>
        <time>2017-06-25T16:18:45Z</time>
      </trkpt>
      <trkpt lat="45.47203" lon="5.90039">
        <ele>1002.88</ele>
        <time>2017-06-25T16:19:15Z</time>
      </trkpt>
      <trkpt lat="45.4722" lon="5.90048">
        <ele>1002.16</ele>
        <time>2017-06-25T16:19:57Z</time>
      </trkpt>
      <trkpt lat="45.47232" lon="5.90027">
        <ele>1003.13</ele>
        <time>2017-06-25T16:31:52Z</time>
      </trkpt>
      <trkpt lat="45.47234" lon="5.90002">
        <ele>1006.88</ele>
        <time>2017-06-25T16:32:39Z</time>
      </trkpt>
      <trkpt lat="45.4724" lon="5.89977">
        <ele>1012.88</ele>
        <time>2017-06-25T16:33:06Z</time>
      </trkpt>
      <trkpt lat="45.47248" lon="5.89953">
        <ele>1015.13</ele>
        <time>2017-06-25T16:33:35Z</time>
      </trkpt>
      <trkpt lat="45.47254" lon="5.89929">
        <ele>1014.95</ele>
        <time>2017-06-25T16:33:47Z</time>
      </trkpt>
      <trkpt lat="45.47266" lon="5.89909">
        <ele>1028.21</ele>
        <time>2017-06-25T16:34:13Z</time>
      </trkpt>
      <trkpt lat="45.47285" lon="5.89903">
        <ele>1027.71</ele>
        <time>2017-06-25T16:36:03Z</time>
      </trkpt>
      <trkpt lat="45.47303" lon="5.89896">
        <ele>1032.05</ele>
        <time>2017-06-25T16:36:22Z</time>
      </trkpt>
      <trkpt lat="45.4732" lon="5.89886">
        <ele>1035.44</ele>
        <time>2017-06-25T16:36:38Z</time>
      </trkpt>
      <trkpt lat="45.47338" lon="5.89882">
        <ele>1031.79</ele>
        <time>2017-06-25T16:36:52Z</time>
      </trkpt>
      <trkpt lat="45.47356" lon="5.89879">
        <ele>1029.81</ele>
        <time>2017-06-25T16:37:15Z</time>
      </trkpt>
      <trkpt lat="45.47369" lon="5.89862">
        <ele>1038.94</ele>
        <time>2017-06-25T16:37:33Z</time>
      </trkpt>
      <trkpt lat="45.47375" lon="5.89837">
        <ele>1043.67</ele>
        <time>2017-06-25T16:37:55Z</time>
      </trkpt>
      <trkpt lat="45.47379" lon="5.89811">
        <ele>1051.94</ele>
        <time>2017-06-25T16:38:21Z</time>
      </trkpt>
      <trkpt lat="45.47385" lon="5.89786">
        <ele>1059.78</ele>
        <time>2017-06-25T16:38:47Z</time>
      </trkpt>
      <trkpt lat="45.47384" lon="5.8976">
        <ele>1062.76</ele>
        <time>2017-06-25T16:39:19Z</time>
      </trkpt>
      <trkpt lat="45.47378" lon="5.89736">
        <ele>1068.15</ele>
        <time>2017-06-25T16:39:53Z</time>
      </trkpt>
      <trkpt lat="45.4738" lon="5.8971">
        <ele>1079.84</ele>
        <time>2017-06-25T16:41:04Z</time>
      </trkpt>
      <trkpt lat="45.47397" lon="5.89695">
        <ele>1080.81</ele>
        <time>2017-06-25T16:41:52Z</time>
      </trkpt>
      <trkpt lat="45.47412" lon="5.8968">
        <ele>1083.5</ele>
        <time>2017-06-25T16:42:03Z</time>
      </trkpt>
      <trkpt lat="45.47431" lon="5.89678">
        <ele>1085.58</ele>
        <time>2017-06-25T16:42:16Z</time>
      </trkpt>
      <trkpt lat="45.47448" lon="5.89688">
        <ele>1082.39</ele>
        <time>2017-06-25T16:42:30Z</time>
      </trkpt>
      <trkpt lat="45.47462" lon="5.89705">
        <ele>1096.97</ele>
        <time>2017-06-25T16:43:24Z</time>
      </trkpt>
      <trkpt lat="45.47479" lon="5.89716">
        <ele>1100.68</ele>
        <time>2017-06-25T16:44:11Z</time>
      </trkpt>
      <trkpt lat="45.47496" lon="5.8973">
        <ele>1097.96</ele>
        <time>2017-06-25T16:44:30Z</time>
      </trkpt>
      <trkpt lat="45.47511" lon="5.89746">
        <ele>1106.51</ele>
        <time>2017-06-25T16:44:53Z</time>
      </trkpt>
      <trkpt lat="45.47528" lon="5.89756">
        <ele>1115.06</ele>
        <time>2017-06-25T16:45:15Z</time>
      </trkpt>
      <trkpt lat="45.47546" lon="5.89759">
        <ele>1114.85</ele>
        <time>2017-06-25T16:45:35Z</time>
      </trkpt>
      <trkpt lat="45.47563" lon="5.89771">
        <ele>1118.58</ele>
        <time>2017-06-25T16:46:00Z</time>
      </trkpt>
      <trkpt lat="45.4758" lon="5.89777">
        <ele>1124.67</ele>
        <time>2017-06-25T16:46:25Z</time>
      </trkpt>
      <trkpt lat="45.47596" lon="5.89794">
        <ele>1122.2</ele>
        <time>2017-06-25T16:46:37Z</time>
      </trkpt>
      <trkpt lat="45.4761" lon="5.89811">
        <ele>1123.38</ele>
        <time>2017-06-25T16:46:48Z</time>
      </trkpt>
      <trkpt lat="45.47622" lon="5.89829">
        <ele>1137.09</ele>
        <time>2017-06-25T16:47:26Z</time>
      </trkpt>
      <trkpt lat="45.47637" lon="5.89845">
        <ele>1136.99</ele>
        <time>2017-06-25T16:47:53Z</time>
      </trkpt>
      <trkpt lat="45.4765" lon="5.89863">
        <ele>1142.52</ele>
        <time>2017-06-25T16:48:18Z</time>
      </trkpt>
      <trkpt lat="45.47661" lon="5.89885">
        <ele>1138.73</ele>
        <time>2017-06-25T16:48:35Z</time>
      </trkpt>
      <trkpt lat="45.47674" lon="5.89902">
        <ele>1145.69</ele>
        <time>2017-06-25T16:48:58Z</time>
      </trkpt>
      <trkpt lat="45.4769" lon="5.89916">
        <ele>1151.74</ele>
        <time>2017-06-25T16:49:48Z</time>
      </trkpt>
      <trkpt lat="45.47707" lon="5.89926">
        <ele>1155.88</ele>
        <time>2017-06-25T16:50:08Z</time>
      </trkpt>
      <trkpt lat="45.47724" lon="5.89935">
        <ele>1165.31</ele>
        <time>2017-06-25T16:50:45Z</time>
      </trkpt>
      <trkpt lat="45.47738" lon="5.89952">
        <ele>1174.97</ele>
        <time>2017-06-25T16:51:02Z</time>
      </trkpt>
      <trkpt lat="45.47754" lon="5.89966">
        <ele>1174.14</ele>
        <time>2017-06-25T16:51:19Z</time>
      </trkpt>
      <trkpt lat="45.47772" lon="5.89971">
        <ele>1177.97</ele>
        <time>2017-06-25T16:51:36Z</time>
      </trkpt>
      <trkpt lat="45.47788" lon="5.89983">
        <ele>1177.65</ele>
        <time>2017-06-25T16:52:00Z</time>
      </trkpt>
      <trkpt lat="45.47807" lon="5.89983">
        <ele>1181.27</ele>
        <time>2017-06-25T16:52:15Z</time>
      </trkpt>
      <trkpt lat="45.47821" lon="5.9">
        <ele>1182.81</ele>
        <time>2017-06-25T16:52:39Z</time>
      </trkpt>
      <trkpt lat="45.47836" lon="5.90018">
        <ele>1180.37</ele>
        <time>2017-06-25T16:52:56Z</time>
      </trkpt>
      <trkpt lat="45.47853" lon="5.90031">
        <ele>1179.86</ele>
        <time>2017-06-25T16:53:15Z</time>
      </trkpt>
      <trkpt lat="45.47869" lon="5.9004">
        <ele>1185.85</ele>
        <time>2017-06-25T16:53:40Z</time>
      </trkpt>
      <trkpt lat="45.47886" lon="5.90051">
        <ele>1191.15</ele>
        <time>2017-06-25T16:54:01Z</time>
      </trkpt>
      <trkpt lat="45.47905" lon="5.90053">
        <ele>1193.61</ele>
        <time>2017-06-25T16:54:19Z</time>
      </trkpt>
      <trkpt lat="45.47924" lon="5.90056">
        <ele>1194.51</ele>
        <time>2017-06-25T16:55:23Z</time>
      </trkpt>
      <trkpt lat="45.47943" lon="5.90048">
        <ele>1197.21</ele>
        <time>2017-06-25T16:55:31Z</time>
      </trkpt>
      <trkpt lat="45.47962" lon="5.90046">
        <ele>1198.89</ele>
        <time>2017-06-25T16:55:42Z</time>
      </trkpt>
      <trkpt lat="45.4798" lon="5.9005">
        <ele>1199.53</ele>
        <time>2017-06-25T16:55:58Z</time>
      </trkpt>
      <trkpt lat="45.47996" lon="5.90038">
        <ele>1193.92</ele>
        <time>2017-06-25T16:56:16Z</time>
      </trkpt>
      <trkpt lat="45.4801" lon="5.90021">
        <ele>1187.09</ele>
        <time>2017-06-25T16:56:33Z</time>
      </trkpt>
      <trkpt lat="45.48028" lon="5.90015">
        <ele>1185.47</ele>
        <time>2017-06-25T16:56:42Z</time>
      </trkpt>
      <trkpt lat="45.48046" lon="5.9001">
        <ele>1188.03</ele>
        <time>2017-06-25T16:56:54Z</time>
      </trkpt>
      <trkpt lat="45.48063" lon="5.90005">
        <ele>1185.78</ele>
        <time>2017-06-25T16:57:10Z</time>
      </trkpt>
      <trkpt lat="45.48081" lon="5.89996">
        <ele>1182.89</ele>
        <time>2017-06-25T16:57:26Z</time>
      </trkpt>
      <trkpt lat="45.48099" lon="5.8999">
        <ele>1178.82</ele>
        <time>2017-06-25T16:57:42Z</time>
      </trkpt>
      <trkpt lat="45.48116" lon="5.89982">
        <ele>1179.88</ele>
        <time>2017-06-25T16:57:57Z</time>
      </trkpt>
      <trkpt lat="45.48133" lon="5.89971">
        <ele>1182.58</ele>
        <time>2017-06-25T16:58:12Z</time>
      </trkpt>
      <trkpt lat="45.48149" lon="5.8996">
        <ele>1181.88</ele>
        <time>2017-06-25T16:58:27Z</time>
      </trkpt>
      <trkpt lat="45.48168" lon="5.89954">
        <ele>1181.85</ele>
        <time>2017-06-25T16:58:43Z</time>
      </trkpt>
      <trkpt lat="45.48186" lon="5.89949">
        <ele>1181.86</ele>
        <time>2017-06-25T16:59:00Z</time>
      </trkpt>
      <trkpt lat="45.48203" lon="5.8994">
        <ele>1180.88</ele>
        <time>2017-06-25T16:59:16Z</time>
      </trkpt>
      <trkpt lat="45.4822" lon="5.89929">
        <ele>1179.95</ele>
        <time>2017-06-25T16:59:32Z</time>
      </trkpt>
      <trkpt lat="45.48237" lon="5.89919">
        <ele>1179.79</ele>
        <time>2017-06-25T16:59:47Z</time>
      </trkpt>
      <trkpt lat="45.48254" lon="5.89911">
        <ele>1181.79</ele>
        <time>2017-06-25T17:00:04Z</time>
      </trkpt>
      <trkpt lat="45.48271" lon="5.899">
        <ele>1180.88</ele>
        <time>2017-06-25T17:00:20Z</time>
      </trkpt>
      <trkpt lat="45.48286" lon="5.89885">
        <ele>1180.88</ele>
        <time>2017-06-25T17:00:37Z</time>
      </trkpt>
      <trkpt lat="45.48303" lon="5.89872">
        <ele>1180.82</ele>
        <time>2017-06-25T17:00:54Z</time>
      </trkpt>
      <trkpt lat="45.48317" lon="5.89854">
        <ele>1184.56</ele>
        <time>2017-06-25T17:01:09Z</time>
      </trkpt>
      <trkpt lat="45.4833" lon="5.89836">
        <ele>1183.96</ele>
        <time>2017-06-25T17:01:25Z</time>
      </trkpt>
      <trkpt lat="45.48344" lon="5.89819">
        <ele>1185.88</ele>
        <time>2017-06-25T17:01:42Z</time>
      </trkpt>
      <trkpt lat="45.48359" lon="5.89804">
        <ele>1184.19</ele>
        <time>2017-06-25T17:02:13Z</time>
      </trkpt>
      <trkpt lat="45.48375" lon="5.89789">
        <ele>1186.88</ele>
        <time>2017-06-25T17:02:31Z</time>
      </trkpt>
      <trkpt lat="45.48393" lon="5.89781">
        <ele>1187.85</ele>
        <time>2017-06-25T17:02:48Z</time>
      </trkpt>
      <trkpt lat="45.48401" lon="5.89756">
        <ele>1190.18</ele>
        <time>2017-06-25T17:03:08Z</time>
      </trkpt>
      <trkpt lat="45.4841" lon="5.89733">
        <ele>1192.67</ele>
        <time>2017-06-25T17:03:23Z</time>
      </trkpt>
      <trkpt lat="45.4842" lon="5.8971">
        <ele>1193.91</ele>
        <time>2017-06-25T17:03:45Z</time>
      </trkpt>
      <trkpt lat="45.48427" lon="5.89686">
        <ele>1196.55</ele>
        <time>2017-06-25T17:04:00Z</time>
      </trkpt>
      <trkpt lat="45.48438" lon="5.89664">
        <ele>1195.64</ele>
        <time>2017-06-25T17:04:17Z</time>
      </trkpt>
      <trkpt lat="45.48454" lon="5.8965">
        <ele>1197.76</ele>
        <time>2017-06-25T17:04:35Z</time>
      </trkpt>
      <trkpt lat="45.48467" lon="5.89632">
        <ele>1194.94</ele>
        <time>2017-06-25T17:04:52Z</time>
      </trkpt>
      <trkpt lat="45.48479" lon="5.89611">
        <ele>1195.15</ele>
        <time>2017-06-25T17:05:12Z</time>
      </trkpt>
      <trkpt lat="45.48489" lon="5.89589">
        <ele>1197.86</ele>
        <time>2017-06-25T17:06:04Z</time>
      </trkpt>
      <trkpt lat="45.48503" lon="5.89574">
        <ele>1207.06</ele>
        <time>2017-06-25T17:06:38Z</time>
      </trkpt>
      <trkpt lat="45.48518" lon="5.89559">
        <ele>1216.98</ele>
        <time>2017-06-25T17:07:06Z</time>
      </trkpt>
      <trkpt lat="45.48535" lon="5.89549">
        <ele>1220.55</ele>
        <time>2017-06-25T17:07:43Z</time>
      </trkpt>
      <trkpt lat="45.48553" lon="5.89544">
        <ele>1229.21</ele>
        <time>2017-06-25T17:08:01Z</time>
      </trkpt>
      <trkpt lat="45.48571" lon="5.89535">
        <ele>1224.68</ele>
        <time>2017-06-25T17:08:20Z</time>
      </trkpt>
      <trkpt lat="45.48588" lon="5.89528">
        <ele>1236.78</ele>
        <time>2017-06-25T17:08:55Z</time>
      </trkpt>
      <trkpt lat="45.48606" lon="5.89521">
        <ele>1241.58</ele>
        <time>2017-06-25T17:09:27Z</time>
      </trkpt>
      <trkpt lat="45.48616" lon="5.89499">
        <ele>1248.35</ele>
        <time>2017-06-25T17:10:04Z</time>
      </trkpt>
      <trkpt lat="45.48632" lon="5.89485">
        <ele>1249.91</ele>
        <time>2017-06-25T17:11:33Z</time>
      </trkpt>
      <trkpt lat="45.48648" lon="5.89471">
        <ele>1260.48</ele>
        <time>2017-06-25T17:12:35Z</time>
      </trkpt>
      <trkpt lat="45.48666" lon="5.89475">
        <ele>1267.52</ele>
        <time>2017-06-25T17:12:56Z</time>
      </trkpt>
      <trkpt lat="45.48684" lon="5.89472">
        <ele>1273.76</ele>
        <time>2017-06-25T17:13:29Z</time>
      </trkpt>
      <trkpt lat="45.48702" lon="5.89471">
        <ele>1286.46</ele>
        <time>2017-06-25T17:14:01Z</time>
      </trkpt>
      <trkpt lat="45.4872" lon="5.89472">
        <ele>1289.15</ele>
        <time>2017-06-25T17:14:33Z</time>
      </trkpt>
      <trkpt lat="45.48738" lon="5.89467">
        <ele>1287.2</ele>
        <time>2017-06-25T17:15:45Z</time>
      </trkpt>
      <trkpt lat="45.48757" lon="5.89472">
        <ele>1290.7</ele>
        <time>2017-06-25T17:16:09Z</time>
      </trkpt>
      <trkpt lat="45.48774" lon="5.89479">
        <ele>1289.57</ele>
        <time>2017-06-25T17:16:25Z</time>
      </trkpt>
      <trkpt lat="45.48792" lon="5.89491">
        <ele>1285.59</ele>
        <time>2017-06-25T17:16:55Z</time>
      </trkpt>
      <trkpt lat="45.4881" lon="5.89503">
        <ele>1284.41</ele>
        <time>2017-06-25T17:17:06Z</time>
      </trkpt>
      <trkpt lat="45.48826" lon="5.89517">
        <ele>1285.92</ele>
        <time>2017-06-25T17:17:25Z</time>
      </trkpt>
      <trkpt lat="45.48841" lon="5.8953">
        <ele>1286.82</ele>
        <time>2017-06-25T17:17:41Z</time>
      </trkpt>
      <trkpt lat="45.4886" lon="5.89531">
        <ele>1294.65</ele>
        <time>2017-06-25T17:18:07Z</time>
      </trkpt>
      <trkpt lat="45.48879" lon="5.89527">
        <ele>1300.51</ele>
        <time>2017-06-25T17:18:27Z</time>
      </trkpt>
      <trkpt lat="45.48896" lon="5.89518">
        <ele>1307.93</ele>
        <time>2017-06-25T17:18:52Z</time>
      </trkpt>
      <trkpt lat="45.48913" lon="5.89509">
        <ele>1311.82</ele>
        <time>2017-06-25T17:19:19Z</time>
      </trkpt>
      <trkpt lat="45.48932" lon="5.89506">
        <ele>1314.89</ele>
        <time>2017-06-25T17:19:41Z</time>
      </trkpt>
      <trkpt lat="45.48949" lon="5.89495">
        <ele>1314.98</ele>
        <time>2017-06-25T17:19:57Z</time>
      </trkpt>
      <trkpt lat="45.48962" lon="5.89476">
        <ele>1319.84</ele>
        <time>2017-06-25T17:20:24Z</time>
      </trkpt>
      <trkpt lat="45.48977" lon="5.89461">
        <ele>1319.21</ele>
        <time>2017-06-25T17:20:36Z</time>
      </trkpt>
      <trkpt lat="45.48995" lon="5.89466">
        <ele>1324.08</ele>
        <time>2017-06-25T17:21:00Z</time>
      </trkpt>
      <trkpt lat="45.49011" lon="5.89454">
        <ele>1327.33</ele>
        <time>2017-06-25T17:21:23Z</time>
      </trkpt>
      <trkpt lat="45.49026" lon="5.89438">
        <ele>1340.46</ele>
        <time>2017-06-25T17:21:50Z</time>
      </trkpt>
      <trkpt lat="45.49044" lon="5.89433">
        <ele>1342.22</ele>
        <time>2017-06-25T17:22:14Z</time>
      </trkpt>
      <trkpt lat="45.49062" lon="5.89427">
        <ele>1343.58</ele>
        <time>2017-06-25T17:22:31Z</time>
      </trkpt>
      <trkpt lat="45.49076" lon="5.89411">
        <ele>1345.63</ele>
        <time>2017-06-25T17:22:55Z</time>
      </trkpt>
      <trkpt lat="45.49095" lon="5.89407">
        <ele>1344.47</ele>
        <time>2017-06-25T17:23:13Z</time>
      </trkpt>
      <trkpt lat="45.49112" lon="5.89412">
        <ele>1336.77</ele>
        <time>2017-06-25T17:23:26Z</time>
      </trkpt>
      <trkpt lat="45.49131" lon="5.89406">
        <ele>1349.55</ele>
        <time>2017-06-25T17:24:16Z</time>
      </trkpt>
      <trkpt lat="45.49149" lon="5.894">
        <ele>1357.51</ele>
        <time>2017-06-25T17:24:29Z</time>
      </trkpt>
      <trkpt lat="45.49166" lon="5.89389">
        <ele>1365.77</ele>
        <time>2017-06-25T17:24:55Z</time>
      </trkpt>
      <trkpt lat="45.49184" lon="5.8939">
        <ele>1367.17</ele>
        <time>2017-06-25T17:25:14Z</time>
      </trkpt>
      <trkpt lat="45.49202" lon="5.89395">
        <ele>1368.88</ele>
        <time>2017-06-25T17:25:33Z</time>
      </trkpt>
      <trkpt lat="45.4922" lon="5.89403">
        <ele>1369.56</ele>
        <time>2017-06-25T17:26:00Z</time>
      </trkpt>
      <trkpt lat="45.49239" lon="5.89413">
        <ele>1373.55</ele>
        <time>2017-06-25T17:26:40Z</time>
      </trkpt>
      <trkpt lat="45.49255" lon="5.89429">
        <ele>1375.65</ele>
        <time>2017-06-25T17:26:48Z</time>
      </trkpt>
      <trkpt lat="45.49272" lon="5.89438">
        <ele>1375.45</ele>
        <time>2017-06-25T17:27:03Z</time>
      </trkpt>
      <trkpt lat="45.4929" lon="5.89446">
        <ele>1377.03</ele>
        <time>2017-06-25T17:27:20Z</time>
      </trkpt>
      <trkpt lat="45.49302" lon="5.89465">
        <ele>1373.67</ele>
        <time>2017-06-25T17:27:45Z</time>
      </trkpt>
      <trkpt lat="45.49319" lon="5.89477">
        <ele>1398.71</ele>
        <time>2017-06-25T17:28:18Z</time>
      </trkpt>
      <trkpt lat="45.49332" lon="5.89496">
        <ele>1393.78</ele>
        <time>2017-06-25T17:29:28Z</time>
      </trkpt>
      <trkpt lat="45.49347" lon="5.89511">
        <ele>1402.26</ele>
        <time>2017-06-25T17:29:38Z</time>
      </trkpt>
      <trkpt lat="45.4936" lon="5.89531">
        <ele>1408.22</ele>
        <time>2017-06-25T17:30:03Z</time>
      </trkpt>
      <trkpt lat="45.49374" lon="5.89548">
        <ele>1413.66</ele>
        <time>2017-06-25T17:31:13Z</time>
      </trkpt>
      <trkpt lat="45.49387" lon="5.89566">
        <ele>1411.39</ele>
        <time>2017-06-25T17:31:22Z</time>
      </trkpt>
      <trkpt lat="45.49401" lon="5.89586">
        <ele>1425.69</ele>
        <time>2017-06-25T17:32:02Z</time>
      </trkpt>
      <trkpt lat="45.49418" lon="5.89602">
        <ele>1424.77</ele>
        <time>2017-06-25T17:32:09Z</time>
      </trkpt>
      <trkpt lat="45.49435" lon="5.89612">
        <ele>1433.82</ele>
        <time>2017-06-25T17:32:36Z</time>
      </trkpt>
      <trkpt lat="45.49451" lon="5.89625">
        <ele>1431.91</ele>
        <time>2017-06-25T17:32:53Z</time>
      </trkpt>
      <trkpt lat="45.49469" lon="5.89631">
        <ele>1434.77</ele>
        <time>2017-06-25T17:33:10Z</time>
      </trkpt>
      <trkpt lat="45.49487" lon="5.89632">
        <ele>1437.06</ele>
        <time>2017-06-25T17:33:34Z</time>
      </trkpt>
      <trkpt lat="45.49506" lon="5.89637">
        <ele>1434.9</ele>
        <time>2017-06-25T17:33:46Z</time>
      </trkpt>
      <trkpt lat="45.49524" lon="5.89642">
        <ele>1438.76</ele>
        <time>2017-06-25T17:34:10Z</time>
      </trkpt>
      <trkpt lat="45.4954" lon="5.89632">
        <ele>1442.81</ele>
        <time>2017-06-25T17:35:11Z</time>
      </trkpt>
      <trkpt lat="45.49558" lon="5.89623">
        <ele>1443.96</ele>
        <time>2017-06-25T17:35:43Z</time>
      </trkpt>
      <trkpt lat="45.4957" lon="5.89603">
        <ele>1446.88</ele>
        <time>2017-06-25T17:36:00Z</time>
      </trkpt>
      <trkpt lat="45.49584" lon="5.89586">
        <ele>1451.39</ele>
        <time>2017-06-25T17:36:23Z</time>
      </trkpt>
      <trkpt lat="45.49595" lon="5.89566">
        <ele>1456.3</ele>
        <time>2017-06-25T17:37:01Z</time>
      </trkpt>
      <trkpt lat="45.49602" lon="5.89541">
        <ele>1459.57</ele>
        <time>2017-06-25T17:37:21Z</time>
      </trkpt>
      <trkpt lat="45.49612" lon="5.8952">
        <ele>1457.87</ele>
        <time>2017-06-25T17:37:46Z</time>
      </trkpt>
      <trkpt lat="45.49613" lon="5.89493">
        <ele>1468.68</ele>
        <time>2017-06-25T17:38:12Z</time>
      </trkpt>
      <trkpt lat="45.49617" lon="5.89468">
        <ele>1470.6</ele>
        <time>2017-06-25T17:38:39Z</time>
      </trkpt>
      <trkpt lat="45.49628" lon="5.89447">
        <ele>1476.89</ele>
        <time>2017-06-25T17:39:08Z</time>
      </trkpt>
      <trkpt lat="45.49636" lon="5.89423">
        <ele>1480.16</ele>
        <time>2017-06-25T17:39:39Z</time>
      </trkpt>
      <trkpt lat="45.49648" lon="5.89404">
        <ele>1481.02</ele>
        <time>2017-06-25T17:40:06Z</time>
      </trkpt>
      <trkpt lat="45.49666" lon="5.89405">
        <ele>1481.88</ele>
        <time>2017-06-25T17:49:20Z</time>
      </trkpt>
      <trkpt lat="45.4968" lon="5.89421">
        <ele>1478.57</ele>
        <time>2017-06-25T17:49:49Z</time>
      </trkpt>
      <trkpt lat="45.49694" lon="5.89438">
        <ele>1473.78</ele>
        <time>2017-06-25T17:50:20Z</time>
      </trkpt>
      <trkpt lat="45.49707" lon="5.89457">
        <ele>1466.97</ele>
        <time>2017-06-25T17:51:03Z</time>
      </trkpt>
      <trkpt lat="45.4972" lon="5.89475">
        <ele>1459.15</ele>
        <time>2017-06-25T17:51:50Z</time>
      </trkpt>
      <trkpt lat="45.49734" lon="5.89491">
        <ele>1455.85</ele>
        <time>2017-06-25T17:52:30Z</time>
      </trkpt>
      <trkpt lat="45.49748" lon="5.89509">
        <ele>1454.75</ele>
        <time>2017-06-25T17:53:09Z</time>
      </trkpt>
      <trkpt lat="45.49759" lon="5.89529">
        <ele>1444.85</ele>
        <time>2017-06-25T17:53:58Z</time>
      </trkpt>
      <trkpt lat="45.4977" lon="5.89549">
        <ele>1437.97</ele>
        <time>2017-06-25T17:55:05Z</time>
      </trkpt>
      <trkpt lat="45.49779" lon="5.89572">
        <ele>1431.7</ele>
        <time>2017-06-25T17:55:41Z</time>
      </trkpt>
      <trkpt lat="45.4979" lon="5.89593">
        <ele>1429.88</ele>
        <time>2017-06-25T17:56:01Z</time>
      </trkpt>
      <trkpt lat="45.49802" lon="5.89614">
        <ele>1429.2</ele>
        <time>2017-06-25T17:56:25Z</time>
      </trkpt>
      <trkpt lat="45.49815" lon="5.89632">
        <ele>1428.08</ele>
        <time>2017-06-25T17:56:50Z</time>
      </trkpt>
      <trkpt lat="45.49826" lon="5.89654">
        <ele>1421.93</ele>
        <time>2017-06-25T17:57:15Z</time>
      </trkpt>
      <trkpt lat="45.49839" lon="5.89671">
        <ele>1416.97</ele>
        <time>2017-06-25T17:57:36Z</time>
      </trkpt>
      <trkpt lat="45.49854" lon="5.89686">
        <ele>1414.49</ele>
        <time>2017-06-25T17:58:02Z</time>
      </trkpt>
      <trkpt lat="45.49863" lon="5.8971">
        <ele>1412.48</ele>
        <time>2017-06-25T17:58:36Z</time>
      </trkpt>
      <trkpt lat="45.49879" lon="5.89721">
        <ele>1402.19</ele>
        <time>2017-06-25T17:59:26Z</time>
      </trkpt>
      <trkpt lat="45.49896" lon="5.89728">
        <ele>1398.88</ele>
        <time>2017-06-25T18:00:12Z</time>
      </trkpt>
      <trkpt lat="45.49914" lon="5.89734">
        <ele>1389.81</ele>
        <time>2017-06-25T18:01:12Z</time>
      </trkpt>
      <trkpt lat="45.49932" lon="5.89736">
        <ele>1372.51</ele>
        <time>2017-06-25T18:01:53Z</time>
      </trkpt>
      <trkpt lat="45.4995" lon="5.89744">
        <ele>1367.17</ele>
        <time>2017-06-25T18:02:16Z</time>
      </trkpt>
      <trkpt lat="45.49968" lon="5.89753">
        <ele>1375.18</ele>
        <time>2017-06-25T18:03:15Z</time>
      </trkpt>
      <trkpt lat="45.49985" lon="5.89759">
        <ele>1367.58</ele>
        <time>2017-06-25T18:03:35Z</time>
      </trkpt>
      <trkpt lat="45.50001" lon="5.89773">
        <ele>1361.15</ele>
        <time>2017-06-25T18:03:55Z</time>
      </trkpt>
      <trkpt lat="45.50016" lon="5.8979">
        <ele>1362.81</ele>
        <time>2017-06-25T18:04:16Z</time>
      </trkpt>
      <trkpt lat="45.50029" lon="5.89808">
        <ele>1364.71</ele>
        <time>2017-06-25T18:04:32Z</time>
      </trkpt>
      <trkpt lat="45.50043" lon="5.89825">
        <ele>1357.79</ele>
        <time>2017-06-25T18:04:57Z</time>
      </trkpt>
      <trkpt lat="45.50058" lon="5.8984">
        <ele>1360.03</ele>
        <time>2017-06-25T18:05:13Z</time>
      </trkpt>
      <trkpt lat="45.50071" lon="5.89859">
        <ele>1360.87</ele>
        <time>2017-06-25T18:05:33Z</time>
      </trkpt>
      <trkpt lat="45.50086" lon="5.89875">
        <ele>1348</ele>
        <time>2017-06-25T18:05:51Z</time>
      </trkpt>
      <trkpt lat="45.50099" lon="5.89893">
        <ele>1355.9</ele>
        <time>2017-06-25T18:06:08Z</time>
      </trkpt>
      <trkpt lat="45.50116" lon="5.89906">
        <ele>1358.4</ele>
        <time>2017-06-25T18:06:25Z</time>
      </trkpt>
      <trkpt lat="45.50131" lon="5.89922">
        <ele>1352.66</ele>
        <time>2017-06-25T18:06:54Z</time>
      </trkpt>
      <trkpt lat="45.50144" lon="5.89941">
        <ele>1348.84</ele>
        <time>2017-06-25T18:07:12Z</time>
      </trkpt>
      <trkpt lat="45.50161" lon="5.8995">
        <ele>1347.7</ele>
        <time>2017-06-25T18:07:32Z</time>
      </trkpt>
      <trkpt lat="45.50177" lon="5.89963">
        <ele>1349.88</ele>
        <time>2017-06-25T18:07:56Z</time>
      </trkpt>
      <trkpt lat="45.50188" lon="5.89983">
        <ele>1348.88</ele>
        <time>2017-06-25T18:09:24Z</time>
      </trkpt>
      <trkpt lat="45.50181" lon="5.90007">
        <ele>1355.49</ele>
        <time>2017-06-25T18:09:57Z</time>
      </trkpt>
      <trkpt lat="45.50173" lon="5.90031">
        <ele>1349.65</ele>
        <time>2017-06-25T18:10:28Z</time>
      </trkpt>
      <trkpt lat="45.50166" lon="5.90055">
        <ele>1343.98</ele>
        <time>2017-06-25T18:10:53Z</time>
      </trkpt>
      <trkpt lat="45.50171" lon="5.90081">
        <ele>1341.19</ele>
        <time>2017-06-25T18:11:15Z</time>
      </trkpt>
      <trkpt lat="45.50174" lon="5.90106">
        <ele>1332</ele>
        <time>2017-06-25T18:11:43Z</time>
      </trkpt>
      <trkpt lat="45.50174" lon="5.90132">
        <ele>1328.15</ele>
        <time>2017-06-25T18:12:12Z</time>
      </trkpt>
      <trkpt lat="45.50174" lon="5.90158">
        <ele>1327.28</ele>
        <time>2017-06-25T18:12:41Z</time>
      </trkpt>
      <trkpt lat="45.50175" lon="5.90184">
        <ele>1319.91</ele>
        <time>2017-06-25T18:13:04Z</time>
      </trkpt>
      <trkpt lat="45.50186" lon="5.90205">
        <ele>1322.98</ele>
        <time>2017-06-25T18:13:23Z</time>
      </trkpt>
      <trkpt lat="45.502" lon="5.90222">
        <ele>1319.91</ele>
        <time>2017-06-25T18:13:54Z</time>
      </trkpt>
      <trkpt lat="45.50217" lon="5.90232">
        <ele>1310.88</ele>
        <time>2017-06-25T18:14:35Z</time>
      </trkpt>
      <trkpt lat="45.50229" lon="5.90252">
        <ele>1307.87</ele>
        <time>2017-06-25T18:15:01Z</time>
      </trkpt>
      <trkpt lat="45.5024" lon="5.90273">
        <ele>1305.91</ele>
        <time>2017-06-25T18:15:23Z</time>
      </trkpt>
      <trkpt lat="45.50247" lon="5.90297">
        <ele>1299.29</ele>
        <time>2017-06-25T18:16:01Z</time>
      </trkpt>
      <trkpt lat="45.50261" lon="5.90314">
        <ele>1301.46</ele>
        <time>2017-06-25T18:16:19Z</time>
      </trkpt>
      <trkpt lat="45.50272" lon="5.90335">
        <ele>1284.88</ele>
        <time>2017-06-25T18:16:43Z</time>
      </trkpt>
      <trkpt lat="45.5028" lon="5.90358">
        <ele>1283.24</ele>
        <time>2017-06-25T18:17:06Z</time>
      </trkpt>
      <trkpt lat="45.50283" lon="5.90384">
        <ele>1276.88</ele>
        <time>2017-06-25T18:17:31Z</time>
      </trkpt>
      <trkpt lat="45.50279" lon="5.90409">
        <ele>1268.87</ele>
        <time>2017-06-25T18:17:55Z</time>
      </trkpt>
      <trkpt lat="45.50277" lon="5.90435">
        <ele>1258.26</ele>
        <time>2017-06-25T18:18:18Z</time>
      </trkpt>
      <trkpt lat="45.50273" lon="5.90461">
        <ele>1253.79</ele>
        <time>2017-06-25T18:18:38Z</time>
      </trkpt>
      <trkpt lat="45.50266" lon="5.90485">
        <ele>1253.56</ele>
        <time>2017-06-25T18:19:02Z</time>
      </trkpt>
      <trkpt lat="45.50253" lon="5.90504">
        <ele>1256.4</ele>
        <time>2017-06-25T18:19:28Z</time>
      </trkpt>
      <trkpt lat="45.50243" lon="5.90526">
        <ele>1249.96</ele>
        <time>2017-06-25T18:19:57Z</time>
      </trkpt>
      <trkpt lat="45.50243" lon="5.90552">
        <ele>1240.51</ele>
        <time>2017-06-25T18:20:20Z</time>
      </trkpt>
      <trkpt lat="45.50241" lon="5.90579">
        <ele>1237.89</ele>
        <time>2017-06-25T18:20:36Z</time>
      </trkpt>
      <trkpt lat="45.50243" lon="5.90604">
        <ele>1238.55</ele>
        <time>2017-06-25T18:20:59Z</time>
      </trkpt>
      <trkpt lat="45.50258" lon="5.90619">
        <ele>1229.97</ele>
        <time>2017-06-25T18:21:22Z</time>
      </trkpt>
      <trkpt lat="45.50258" lon="5.90645">
        <ele>1227.6</ele>
        <time>2017-06-25T18:21:52Z</time>
      </trkpt>
      <trkpt lat="45.50269" lon="5.90666">
        <ele>1220.88</ele>
        <time>2017-06-25T18:22:24Z</time>
      </trkpt>
      <trkpt lat="45.50287" lon="5.90677">
        <ele>1212.05</ele>
        <time>2017-06-25T18:22:42Z</time>
      </trkpt>
      <trkpt lat="45.50299" lon="5.90696">
        <ele>1219.92</ele>
        <time>2017-06-25T18:23:04Z</time>
      </trkpt>
      <trkpt lat="45.50301" lon="5.90722">
        <ele>1208.05</ele>
        <time>2017-06-25T18:23:47Z</time>
      </trkpt>
      <trkpt lat="45.50298" lon="5.90748">
        <ele>1202.93</ele>
        <time>2017-06-25T18:24:08Z</time>
      </trkpt>
      <trkpt lat="45.50304" lon="5.90773">
        <ele>1195.06</ele>
        <time>2017-06-25T18:24:28Z</time>
      </trkpt>
      <trkpt lat="45.50314" lon="5.90796">
        <ele>1185.82</ele>
        <time>2017-06-25T18:24:50Z</time>
      </trkpt>
      <trkpt lat="45.50325" lon="5.90816">
        <ele>1178.79</ele>
        <time>2017-06-25T18:25:14Z</time>
      </trkpt>
      <trkpt lat="45.5033" lon="5.90842">
        <ele>1181.74</ele>
        <time>2017-06-25T18:25:38Z</time>
      </trkpt>
      <trkpt lat="45.50336" lon="5.90866">
        <ele>1183.9</ele>
        <time>2017-06-25T18:25:54Z</time>
      </trkpt>
      <trkpt lat="45.50348" lon="5.90887">
        <ele>1177.94</ele>
        <time>2017-06-25T18:26:26Z</time>
      </trkpt>
      <trkpt lat="45.50356" lon="5.90911">
        <ele>1170.45</ele>
        <time>2017-06-25T18:26:44Z</time>
      </trkpt>
      <trkpt lat="45.50368" lon="5.9093">
        <ele>1160.02</ele>
        <time>2017-06-25T18:27:10Z</time>
      </trkpt>
      <trkpt lat="45.50379" lon="5.9095">
        <ele>1160.52</ele>
        <time>2017-06-25T18:27:33Z</time>
      </trkpt>
      <trkpt lat="45.50396" lon="5.90957">
        <ele>1163</ele>
        <time>2017-06-25T18:29:28Z</time>
      </trkpt>
      <trkpt lat="45.50412" lon="5.90946">
        <ele>1166.85</ele>
        <time>2017-06-25T18:29:53Z</time>
      </trkpt>
      <trkpt lat="45.50426" lon="5.90929">
        <ele>1161.97</ele>
        <time>2017-06-25T18:30:15Z</time>
      </trkpt>
      <trkpt lat="45.50442" lon="5.90915">
        <ele>1151.18</ele>
        <time>2017-06-25T18:30:43Z</time>
      </trkpt>
      <trkpt lat="45.50447" lon="5.90941">
        <ele>1144.03</ele>
        <time>2017-06-25T18:31:39Z</time>
      </trkpt>
      <trkpt lat="45.50448" lon="5.90967">
        <ele>1142.28</ele>
        <time>2017-06-25T18:31:56Z</time>
      </trkpt>
      <trkpt lat="45.50438" lon="5.90989">
        <ele>1135.4</ele>
        <time>2017-06-25T18:32:18Z</time>
      </trkpt>
      <trkpt lat="45.50438" lon="5.91015">
        <ele>1132.81</ele>
        <time>2017-06-25T18:32:39Z</time>
      </trkpt>
      <trkpt lat="45.50428" lon="5.91037">
        <ele>1129.89</ele>
        <time>2017-06-25T18:33:00Z</time>
      </trkpt>
      <trkpt lat="45.50422" lon="5.91061">
        <ele>1124.89</ele>
        <time>2017-06-25T18:33:20Z</time>
      </trkpt>
      <trkpt lat="45.50418" lon="5.91086">
        <ele>1116.45</ele>
        <time>2017-06-25T18:33:43Z</time>
      </trkpt>
      <trkpt lat="45.50409" lon="5.91109">
        <ele>1113.58</ele>
        <time>2017-06-25T18:34:05Z</time>
      </trkpt>
      <trkpt lat="45.50401" lon="5.91133">
        <ele>1109.77</ele>
        <time>2017-06-25T18:34:23Z</time>
      </trkpt>
      <trkpt lat="45.50394" lon="5.91158">
        <ele>1108.81</ele>
        <time>2017-06-25T18:34:40Z</time>
      </trkpt>
      <trkpt lat="45.50391" lon="5.91183">
        <ele>1104.87</ele>
        <time>2017-06-25T18:35:06Z</time>
      </trkpt>
      <trkpt lat="45.50381" lon="5.91205">
        <ele>1095.34</ele>
        <time>2017-06-25T18:35:27Z</time>
      </trkpt>
      <trkpt lat="45.50378" lon="5.9123">
        <ele>1097.57</ele>
        <time>2017-06-25T18:35:44Z</time>
      </trkpt>
      <trkpt lat="45.50365" lon="5.91248">
        <ele>1089.91</ele>
        <time>2017-06-25T18:36:10Z</time>
      </trkpt>
      <trkpt lat="45.50357" lon="5.91272">
        <ele>1087.86</ele>
        <time>2017-06-25T18:36:29Z</time>
      </trkpt>
      <trkpt lat="45.5036" lon="5.91299">
        <ele>1083.25</ele>
        <time>2017-06-25T18:36:55Z</time>
      </trkpt>
      <trkpt lat="45.50367" lon="5.91323">
        <ele>1076.61</ele>
        <time>2017-06-25T18:37:16Z</time>
      </trkpt>
      <trkpt lat="45.50372" lon="5.91349">
        <ele>1068.96</ele>
        <time>2017-06-25T18:37:44Z</time>
      </trkpt>
      <trkpt lat="45.50382" lon="5.91372">
        <ele>1070.75</ele>
        <time>2017-06-25T18:38:02Z</time>
      </trkpt>
      <trkpt lat="45.50392" lon="5.91395">
        <ele>1069.12</ele>
        <time>2017-06-25T18:38:21Z</time>
      </trkpt>
      <trkpt lat="45.50403" lon="5.91415">
        <ele>1067.55</ele>
        <time>2017-06-25T18:38:37Z</time>
      </trkpt>
      <trkpt lat="45.50416" lon="5.91433">
        <ele>1070.05</ele>
        <time>2017-06-25T18:38:55Z</time>
      </trkpt>
      <trkpt lat="45.50433" lon="5.91445">
        <ele>1063.78</ele>
        <time>2017-06-25T18:39:17Z</time>
      </trkpt>
      <trkpt lat="45.50451" lon="5.9145">
        <ele>1066.84</ele>
        <time>2017-06-25T18:39:32Z</time>
      </trkpt>
      <trkpt lat="45.50466" lon="5.91464">
        <ele>1061.97</ele>
        <time>2017-06-25T18:39:47Z</time>
      </trkpt>
      <trkpt lat="45.50485" lon="5.91468">
        <ele>1059.88</ele>
        <time>2017-06-25T18:40:03Z</time>
      </trkpt>
      <trkpt lat="45.50501" lon="5.91481">
        <ele>1060.62</ele>
        <time>2017-06-25T18:40:20Z</time>
      </trkpt>
      <trkpt lat="45.50515" lon="5.91498">
        <ele>1061.58</ele>
        <time>2017-06-25T18:40:38Z</time>
      </trkpt>
      <trkpt lat="45.50532" lon="5.91509">
        <ele>1061.83</ele>
        <time>2017-06-25T18:40:56Z</time>
      </trkpt>
      <trkpt lat="45.50547" lon="5.91524">
        <ele>1058.46</ele>
        <time>2017-06-25T18:41:19Z</time>
      </trkpt>
      <trkpt lat="45.50563" lon="5.91538">
        <ele>1054.85</ele>
        <time>2017-06-25T18:41:33Z</time>
      </trkpt>
      <trkpt lat="45.50576" lon="5.91556">
        <ele>1051.97</ele>
        <time>2017-06-25T18:41:51Z</time>
      </trkpt>
      <trkpt lat="45.50586" lon="5.91578">
        <ele>1045.01</ele>
        <time>2017-06-25T18:42:15Z</time>
      </trkpt>
      <trkpt lat="45.50598" lon="5.91599">
        <ele>1050.45</ele>
        <time>2017-06-25T18:42:30Z</time>
      </trkpt>
      <trkpt lat="45.50613" lon="5.91615">
        <ele>1044.94</ele>
        <time>2017-06-25T18:42:49Z</time>
      </trkpt>
      <trkpt lat="45.50625" lon="5.91635">
        <ele>1049.9</ele>
        <time>2017-06-25T18:43:06Z</time>
      </trkpt>
      <trkpt lat="45.50641" lon="5.91646">
        <ele>1043.99</ele>
        <time>2017-06-25T18:43:24Z</time>
      </trkpt>
      <trkpt lat="45.50659" lon="5.91652">
        <ele>1043.45</ele>
        <time>2017-06-25T18:43:41Z</time>
      </trkpt>
      <trkpt lat="45.50675" lon="5.91664">
        <ele>1041.15</ele>
        <time>2017-06-25T18:44:04Z</time>
      </trkpt>
      <trkpt lat="45.50686" lon="5.91687">
        <ele>1042.79</ele>
        <time>2017-06-25T18:44:21Z</time>
      </trkpt>
      <trkpt lat="45.50688" lon="5.91714">
        <ele>1032.06</ele>
        <time>2017-06-25T18:44:47Z</time>
      </trkpt>
      <trkpt lat="45.50689" lon="5.9174">
        <ele>1033.1</ele>
        <time>2017-06-25T18:45:01Z</time>
      </trkpt>
      <trkpt lat="45.50699" lon="5.91762">
        <ele>1025.88</ele>
        <time>2017-06-25T18:45:20Z</time>
      </trkpt>
      <trkpt lat="45.50713" lon="5.9178">
        <ele>1023.68</ele>
        <time>2017-06-25T18:45:38Z</time>
      </trkpt>
      <trkpt lat="45.50726" lon="5.91799">
        <ele>1020.54</ele>
        <time>2017-06-25T18:45:59Z</time>
      </trkpt>
      <trkpt lat="45.50739" lon="5.91819">
        <ele>1014.9</ele>
        <time>2017-06-25T18:46:18Z</time>
      </trkpt>
      <trkpt lat="45.50748" lon="5.91841">
        <ele>1012.97</ele>
        <time>2017-06-25T18:46:34Z</time>
      </trkpt>
      <trkpt lat="45.50749" lon="5.91867">
        <ele>1012.17</ele>
        <time>2017-06-25T18:47:00Z</time>
      </trkpt>
      <trkpt lat="45.50736" lon="5.91885">
        <ele>1005.9</ele>
        <time>2017-06-25T18:47:31Z</time>
      </trkpt>
      <trkpt lat="45.50743" lon="5.9191">
        <ele>1000.31</ele>
        <time>2017-06-25T18:47:53Z</time>
      </trkpt>
      <trkpt lat="45.50757" lon="5.91927">
        <ele>995.85</ele>
        <time>2017-06-25T18:48:14Z</time>
      </trkpt>
      <trkpt lat="45.50775" lon="5.91931">
        <ele>990.97</ele>
        <time>2017-06-25T18:48:36Z</time>
      </trkpt>
      <trkpt lat="45.50793" lon="5.91934">
        <ele>987.01</ele>
        <time>2017-06-25T18:48:58Z</time>
      </trkpt>
      <trkpt lat="45.50812" lon="5.91934">
        <ele>983.49</ele>
        <time>2017-06-25T18:49:16Z</time>
      </trkpt>
      <trkpt lat="45.5083" lon="5.91935">
        <ele>982.66</ele>
        <time>2017-06-25T18:49:38Z</time>
      </trkpt>
      <trkpt lat="45.50849" lon="5.91938">
        <ele>978.87</ele>
        <time>2017-06-25T18:50:00Z</time>
      </trkpt>
      <trkpt lat="45.50866" lon="5.91945">
        <ele>980.26</ele>
        <time>2017-06-25T18:50:23Z</time>
      </trkpt>
      <trkpt lat="45.50884" lon="5.9195">
        <ele>981.62</ele>
        <time>2017-06-25T18:50:45Z</time>
      </trkpt>
      <trkpt lat="45.50892" lon="5.91973">
        <ele>973.55</ele>
        <time>2017-06-25T18:51:10Z</time>
      </trkpt>
      <trkpt lat="45.50899" lon="5.91998">
        <ele>966.68</ele>
        <time>2017-06-25T18:51:30Z</time>
      </trkpt>
      <trkpt lat="45.50908" lon="5.9202">
        <ele>956.88</ele>
        <time>2017-06-25T18:51:49Z</time>
      </trkpt>
      <trkpt lat="45.50918" lon="5.92042">
        <ele>949.49</ele>
        <time>2017-06-25T18:52:13Z</time>
      </trkpt>
      <trkpt lat="45.50925" lon="5.92066">
        <ele>946.19</ele>
        <time>2017-06-25T18:52:31Z</time>
      </trkpt>
      <trkpt lat="45.50936" lon="5.92089">
        <ele>941.69</ele>
        <time>2017-06-25T18:52:53Z</time>
      </trkpt>
      <trkpt lat="45.50943" lon="5.92114">
        <ele>944.12</ele>
        <time>2017-06-25T18:53:11Z</time>
      </trkpt>
      <trkpt lat="45.50949" lon="5.92139">
        <ele>934.31</ele>
        <time>2017-06-25T18:53:34Z</time>
      </trkpt>
      <trkpt lat="45.50951" lon="5.92166">
        <ele>929.97</ele>
        <time>2017-06-25T18:54:00Z</time>
      </trkpt>
      <trkpt lat="45.50951" lon="5.92192">
        <ele>929.97</ele>
        <time>2017-06-25T18:54:19Z</time>
      </trkpt>
      <trkpt lat="45.50958" lon="5.92216">
        <ele>919</ele>
        <time>2017-06-25T18:54:40Z</time>
      </trkpt>
      <trkpt lat="45.50961" lon="5.92242">
        <ele>919.13</ele>
        <time>2017-06-25T18:54:55Z</time>
      </trkpt>
      <trkpt lat="45.50963" lon="5.92268">
        <ele>924.5</ele>
        <time>2017-06-25T18:55:08Z</time>
      </trkpt>
      <trkpt lat="45.50968" lon="5.92294">
        <ele>920.57</ele>
        <time>2017-06-25T18:55:24Z</time>
      </trkpt>
      <trkpt lat="45.50976" lon="5.92318">
        <ele>912.71</ele>
        <time>2017-06-25T18:55:41Z</time>
      </trkpt>
      <trkpt lat="45.50986" lon="5.92339">
        <ele>911.4</ele>
        <time>2017-06-25T18:55:57Z</time>
      </trkpt>
      <trkpt lat="45.51002" lon="5.92351">
        <ele>906.83</ele>
        <time>2017-06-25T18:56:15Z</time>
      </trkpt>
      <trkpt lat="45.51018" lon="5.92364">
        <ele>903.5</ele>
        <time>2017-06-25T18:56:30Z</time>
      </trkpt>
      <trkpt lat="45.51035" lon="5.92376">
        <ele>899.86</ele>
        <time>2017-06-25T18:56:49Z</time>
      </trkpt>
      <trkpt lat="45.51046" lon="5.92397">
        <ele>894.97</ele>
        <time>2017-06-25T18:57:35Z</time>
      </trkpt>
      <trkpt lat="45.51065" lon="5.92396">
        <ele>891.91</ele>
        <time>2017-06-25T18:57:54Z</time>
      </trkpt>
      <trkpt lat="45.51076" lon="5.92376">
        <ele>889.9</ele>
        <time>2017-06-25T18:58:10Z</time>
      </trkpt>
      <trkpt lat="45.51094" lon="5.92374">
        <ele>889.65</ele>
        <time>2017-06-25T18:58:31Z</time>
      </trkpt>
      <trkpt lat="45.51085" lon="5.92397">
        <ele>874.88</ele>
        <time>2017-06-25T19:02:19Z</time>
      </trkpt>
      <trkpt lat="45.51078" lon="5.92421">
        <ele>873</ele>
        <time>2017-06-25T19:02:38Z</time>
      </trkpt>
      <trkpt lat="45.51067" lon="5.92443">
        <ele>867.22</ele>
        <time>2017-06-25T19:02:59Z</time>
      </trkpt>
      <trkpt lat="45.51061" lon="5.92467">
        <ele>867.58</ele>
        <time>2017-06-25T19:03:23Z</time>
      </trkpt>
      <trkpt lat="45.5105" lon="5.92487">
        <ele>862.93</ele>
        <time>2017-06-25T19:03:40Z</time>
      </trkpt>
      <trkpt lat="45.51051" lon="5.92513">
        <ele>866.97</ele>
        <time>2017-06-25T19:03:57Z</time>
      </trkpt>
      <trkpt lat="45.51066" lon="5.92528">
        <ele>866.23</ele>
        <time>2017-06-25T19:04:15Z</time>
      </trkpt>
      <trkpt lat="45.51078" lon="5.92547">
        <ele>855.98</ele>
        <time>2017-06-25T19:04:32Z</time>
      </trkpt>
      <trkpt lat="45.51078" lon="5.92573">
        <ele>855.9</ele>
        <time>2017-06-25T19:04:47Z</time>
      </trkpt>
      <trkpt lat="45.51087" lon="5.92595">
        <ele>852.94</ele>
        <time>2017-06-25T19:05:05Z</time>
      </trkpt>
      <trkpt lat="45.51102" lon="5.92611">
        <ele>850.18</ele>
        <time>2017-06-25T19:06:03Z</time>
      </trkpt>
      <trkpt lat="45.51119" lon="5.92621">
        <ele>846.98</ele>
        <time>2017-06-25T19:06:24Z</time>
      </trkpt>
      <trkpt lat="45.51138" lon="5.92627">
        <ele>845.47</ele>
        <time>2017-06-25T19:06:40Z</time>
      </trkpt>
      <trkpt lat="45.51156" lon="5.92628">
        <ele>841.88</ele>
        <time>2017-06-25T19:06:57Z</time>
      </trkpt>
      <trkpt lat="45.51175" lon="5.92628">
        <ele>844.18</ele>
        <time>2017-06-25T19:07:15Z</time>
      </trkpt>
      <trkpt lat="45.51193" lon="5.92623">
        <ele>837.6</ele>
        <time>2017-06-25T19:07:32Z</time>
      </trkpt>
      <trkpt lat="45.51212" lon="5.92623">
        <ele>838.92</ele>
        <time>2017-06-25T19:07:49Z</time>
      </trkpt>
      <trkpt lat="45.5123" lon="5.92623">
        <ele>844.08</ele>
        <time>2017-06-25T19:08:06Z</time>
      </trkpt>
      <trkpt lat="45.51247" lon="5.92612">
        <ele>839.07</ele>
        <time>2017-06-25T19:08:22Z</time>
      </trkpt>
      <trkpt lat="45.51266" lon="5.92615">
        <ele>841.09</ele>
        <time>2017-06-25T19:08:55Z</time>
      </trkpt>
      <trkpt lat="45.51284" lon="5.92617">
        <ele>838.1</ele>
        <time>2017-06-25T19:11:10Z</time>
      </trkpt>
      <trkpt lat="45.51291" lon="5.92593">
        <ele>833.97</ele>
        <time>2017-06-25T19:11:47Z</time>
      </trkpt>
      <trkpt lat="45.5131" lon="5.92589">
        <ele>835.69</ele>
        <time>2017-06-25T19:12:25Z</time>
      </trkpt>
      <trkpt lat="45.51327" lon="5.92597">
        <ele>835.82</ele>
        <time>2017-06-25T19:12:45Z</time>
      </trkpt>
      <trkpt lat="45.51345" lon="5.92606">
        <ele>838.88</ele>
        <time>2017-06-25T19:13:07Z</time>
      </trkpt>
      <trkpt lat="45.51362" lon="5.92615">
        <ele>841.99</ele>
        <time>2017-06-25T19:13:28Z</time>
      </trkpt>
      <trkpt lat="45.51378" lon="5.92625">
        <ele>842.55</ele>
        <time>2017-06-25T19:13:52Z</time>
      </trkpt>
      <trkpt lat="45.51392" lon="5.92643">
        <ele>840.49</ele>
        <time>2017-06-25T19:14:13Z</time>
      </trkpt>
      <trkpt lat="45.51408" lon="5.92628">
        <ele>853.97</ele>
        <time>2017-06-25T19:15:01Z</time>
      </trkpt>
      <trkpt lat="45.51422" lon="5.92645">
        <ele>852.57</ele>
        <time>2017-06-25T19:15:47Z</time>
      </trkpt>
      <trkpt lat="45.51423" lon="5.92671">
        <ele>849.86</ele>
        <time>2017-06-25T19:16:07Z</time>
      </trkpt>
      <trkpt lat="45.51425" lon="5.92697">
        <ele>852.57</ele>
        <time>2017-06-25T19:16:30Z</time>
      </trkpt>
      <trkpt lat="45.51424" lon="5.92723">
        <ele>846.86</ele>
        <time>2017-06-25T19:16:56Z</time>
      </trkpt>
      <trkpt lat="45.51427" lon="5.92749">
        <ele>838.88</ele>
        <time>2017-06-25T19:17:33Z</time>
      </trkpt>
      <trkpt lat="45.51436" lon="5.92772">
        <ele>835.55</ele>
        <time>2017-06-25T19:17:58Z</time>
      </trkpt>
      <trkpt lat="45.51446" lon="5.92794">
        <ele>830</ele>
        <time>2017-06-25T19:18:26Z</time>
      </trkpt>
      <trkpt lat="45.51453" lon="5.92818">
        <ele>829.94</ele>
        <time>2017-06-25T19:18:53Z</time>
      </trkpt>
      <trkpt lat="45.51455" lon="5.92844">
        <ele>828.82</ele>
        <time>2017-06-25T19:19:14Z</time>
      </trkpt>
      <trkpt lat="45.51457" lon="5.9287">
        <ele>820.22</ele>
        <time>2017-06-25T19:19:37Z</time>
      </trkpt>
      <trkpt lat="45.51461" lon="5.92896">
        <ele>816.52</ele>
        <time>2017-06-25T19:20:02Z</time>
      </trkpt>
      <trkpt lat="45.51456" lon="5.92921">
        <ele>820.07</ele>
        <time>2017-06-25T19:20:22Z</time>
      </trkpt>
      <trkpt lat="45.51455" lon="5.92947">
        <ele>815.87</ele>
        <time>2017-06-25T19:20:47Z</time>
      </trkpt>
      <trkpt lat="45.51454" lon="5.92973">
        <ele>809.97</ele>
        <time>2017-06-25T19:21:09Z</time>
      </trkpt>
      <trkpt lat="45.51455" lon="5.92999">
        <ele>804.99</ele>
        <time>2017-06-25T19:21:45Z</time>
      </trkpt>
      <trkpt lat="45.51454" lon="5.93025">
        <ele>809.88</ele>
        <time>2017-06-25T19:22:05Z</time>
      </trkpt>
      <trkpt lat="45.51454" lon="5.93051">
        <ele>801.76</ele>
        <time>2017-06-25T19:22:35Z</time>
      </trkpt>
      <trkpt lat="45.51457" lon="5.93077">
        <ele>787.91</ele>
        <time>2017-06-25T19:23:05Z</time>
      </trkpt>
      <trkpt lat="45.5147" lon="5.93095">
        <ele>785.44</ele>
        <time>2017-06-25T19:23:33Z</time>
      </trkpt>
      <trkpt lat="45.51477" lon="5.93119">
        <ele>788.85</ele>
        <time>2017-06-25T19:23:57Z</time>
      </trkpt>
      <trkpt lat="45.51494" lon="5.9313">
        <ele>784.18</ele>
        <time>2017-06-25T19:24:52Z</time>
      </trkpt>
      <trkpt lat="45.51511" lon="5.9314">
        <ele>774.98</ele>
        <time>2017-06-25T19:25:16Z</time>
      </trkpt>
      <trkpt lat="45.51525" lon="5.93156">
        <ele>770.63</ele>
        <time>2017-06-25T19:25:39Z</time>
      </trkpt>
      <trkpt lat="45.51544" lon="5.93163">
        <ele>776.85</ele>
        <time>2017-06-25T19:26:00Z</time>
      </trkpt>
      <trkpt lat="45.51561" lon="5.93174">
        <ele>777.03</ele>
        <time>2017-06-25T19:26:18Z</time>
      </trkpt>
      <trkpt lat="45.51577" lon="5.93187">
        <ele>776.8</ele>
        <time>2017-06-25T19:26:36Z</time>
      </trkpt>
      <trkpt lat="45.51594" lon="5.93197">
        <ele>775.9</ele>
        <time>2017-06-25T19:26:55Z</time>
      </trkpt>
      <trkpt lat="45.51611" lon="5.93207">
        <ele>773.09</ele>
        <time>2017-06-25T19:27:15Z</time>
      </trkpt>
      <trkpt lat="45.51627" lon="5.93216">
        <ele>779.24</ele>
        <time>2017-06-25T19:27:39Z</time>
      </trkpt>
      <trkpt lat="45.51646" lon="5.9322">
        <ele>773.33</ele>
        <time>2017-06-25T19:28:00Z</time>
      </trkpt>
      <trkpt lat="45.51663" lon="5.93229">
        <ele>769.47</ele>
        <time>2017-06-25T19:28:17Z</time>
      </trkpt>
      <trkpt lat="45.51681" lon="5.93233">
        <ele>773.69</ele>
        <time>2017-06-25T19:28:39Z</time>
      </trkpt>
      <trkpt lat="45.51697" lon="5.93247">
        <ele>770.75</ele>
        <time>2017-06-25T19:28:59Z</time>
      </trkpt>
    </trkseg>
  </trk>
</gpx>